[[{"header":{"parameterUnit":"m.s-1","parameterCategory":1,"la1":31.0,"la2":29.5877,"lo1":-88.7671,"lo2":-86.6584,"dy":0.0162,"dx":0.0185,"nx":115,"ny":88,"refTime":"2024-06-15T00:00:00:Z","depth":0,"parameterNumber":2,"parameterNumberName":"U-component_of_WINDS"},"data":[0.0,0.0,0.0,0.0,0.0,0.0,0.0,0.0,0.0,0.0,0.0,0.0,0.0,0.0,0.0,0.0,0.0,0.0,0.0,0.0,0.0,0.0,0.0,0.0,0.0,0.0,0.0,0.0,0.0,0.0,0.0,0.0,0.0,0.0,0.0,0.0,0.0,0.0,0.0,0.0,0.0,0.0,0.0,0.0,0.0,0.0,0.0,0.0,0.0,0.0,0.0,0.0,0.0,0.0,0.0,0.0,0.0,0.0,0.0,0.0,0.0,0.0,0.0,0.0,0.0,0.0,0.0,0.0,0.0,0.0,0.0,0.0,0.0,0.0,0.0,0.0,0.0,0.0,0.0,0.0,0.0,0.0,0.0,0.0,0.0,0.0,0.0,0.0,0.0,0.0,0.0,0.0,0.0,0.0,0.0,0.0,0.0,0.0,0.0,0.0,0.0,0.0,0.0,0.0,0.0,0.0,0.0,0.0,0.0,0.0,0.0,0.0,0.0,0.0,0.0,0.0,0.0,0.0,0.0,0.0,0.0,0.0,0.0,0.0,0.0,0.0,0.0,0.0,0.0,0.0,0.0,0.0,0.0,0.0,0.0,0.0,0.0,0.0,0.0,0.0,0.0,0.0,0.0,0.0,0.0,0.0,0.0,0.0,0.0,0.0,0.0,0.0,0.0,0.0,0.0,0.0,0.0,0.0,0.0,0.0,0.0,0.0,0.0,0.0,0.0,0.0,0.0,0.0,0.0,0.0,0.0,0.0,0.0,0.0,0.0,0.0,0.0,0.0,0.0,0.0,0.0,0.0,0.0,0.0,0.0,0.0,0.0,0.0,0.0,0.0,0.0,0.0,0.0,0.0,0.0,0.0,0.0,0.0,0.0,0.0,0.0,0.0,0.0,0.0,0.0,0.0,0.0,0.0,0.0,0.0,0.0,0.0,0.0,0.0,0.0,0.0,0.0,0.0,0.0,0.0,0.0,0.0,0.0,0.0,0.0,0.0,0.0,0.0,0.0,0.0,0.0,0.0,0.0,0.0,0.0,0.0,0.0,0.0,0.0,0.0,0.0,0.0,0.0,0.0,0.0,0.0,0.0,0.0,0.0,0.0,0.0,0.0,0.0,0.0,0.0,0.0,0.0,0.0,0.0,0.0,0.0,0.0,0.0,0.0,0.0,0.0,0.0,0.0,0.0,0.0,0.0,0.0,0.0,0.0,0.0,0.0,0.0,0.0,0.0,0.0,0.0,0.0,0.0,0.0,0.0,0.0,0.0,0.0,0.0,0.0,0.0,0.0,0.0,0.0,0.0,0.0,0.0,0.0,0.0,0.0,0.0,0.0,0.0,0.0,0.0,0.0,0.0,0.0,0.0,0.0,0.0,0.0,0.0,0.0,0.0,0.0,0.0,0.0,0.0,0.0,0.0,0.0,0.0,0.0,0.0,0.0,0.0,0.0,0.0,0.0,0.0,0.0,0.0,0.0,0.0,0.0,0.0,0.0,0.0,0.0,0.0,0.0,0.0,0.0,0.0,0.0,0.0,0.0,0.0,0.0,0.0,0.0,0.0,0.0,0.0,0.0,0.0,0.0,0.0,0.0,0.0,0.0,0.0,0.0,0.0,0.0,0.0,0.0,0.0,0.0,0.0,0.0,0.0,0.0,0.0,0.0,0.0,0.0,0.0,0.0,0.0,0.0,0.0,0.0,0.0,0.0,0.0,0.0,0.0,0.0,0.0,0.0,0.0,0.0,0.0,0.0,0.0,0.0,0.0,0.0,0.0,0.0,0.0,0.0,0.0,0.0,0.0,0.0,0.0,0.0,0.0,0.0,0.0,0.0,0.0,0.0,0.0,0.0,0.0,0.0,0.0,0.0,0.0,0.0,0.0,0.0,0.0,0.0,0.0,0.0,0.0,0.0,0.0,0.0,0.0,0.0,0.0,0.0,0.0,0.0,0.0,0.0,0.0,0.0,0.0,0.0,0.0,0.0,0.0,0.0,0.0,0.0,0.0,0.0,0.0,0.0,0.0,0.0,0.0,0.0,0.0,0.0,0.0,0.0,0.0,0.0,0.0,0.0,0.0,0.0,0.0,0.0,0.0,0.0,0.0,0.0,0.0,0.0,0.0,0.0,0.0,0.0,0.0,0.0,0.0,0.0,0.0,0.0,0.0,0.0,0.0,0.0,0.0,0.0,0.0,0.0,0.0,0.0,0.0,0.0,0.0,0.0,0.0,0.0,0.0,0.0,0.0,0.0,0.0,0.0,0.0,0.0,0.0,0.0,0.0,0.0,0.0,0.0,0.0,0.0,0.0,0.0,0.0,0.0,0.0,0.0,0.0,0.0,0.0,0.0,0.0,0.0,0.0,0.0,0.0,0.0,0.0,0.0,0.0,0.0,0.0,0.0,0.0,0.0,0.0,0.0,0.0,0.0,0.0,0.0,0.0,0.0,0.0,0.0,0.0,0.0,0.0,0.0,0.0,0.0,0.0,0.0,0.0,0.0,0.0,0.0,0.0,0.0,0.0,0.0,0.0,0.0,0.0,0.0,0.0,0.0,0.0,0.0,0.0,0.0,0.0,0.0,0.0,0.0,0.0,0.0,0.0,0.0,0.0,0.0,0.0,0.0,0.0,0.0,0.0,0.0,0.0,0.0,0.0,0.0,0.0,0.0,0.0,0.0,0.0,0.0,0.0,0.0,0.0,0.0,0.0,0.0,0.0,0.0,0.0,0.0,0.0,0.0,0.0,0.0,0.0,0.0,0.0,0.0,0.0,0.0,0.0,0.0,0.0,0.0,0.0,0.0,0.0,0.0,0.0,0.0,0.0,0.0,0.0,0.0,0.0,0.0,0.0,0.0,0.0,0.0,0.0,0.0,0.0,0.0,0.0,0.0,0.0,0.0,0.0,0.0,0.0,0.0,0.0,0.0,0.0,0.0,0.0,0.0,0.0,0.0,0.0,0.0,0.0,0.0,0.0,0.0,0.0,0.0,0.0,0.0,0.0,0.0,0.0,0.0,0.0,0.0,0.0,0.0,0.0,0.0,0.0,0.0,0.0,0.0,0.0,0.0,0.0,0.0,0.0,0.0,0.0,0.0,0.0,0.0,0.0,0.0,0.0,0.0,0.0,0.0,0.0,0.0,0.0,0.0,0.0,0.0,0.0,0.0,0.0,0.0,0.0,0.0,0.0,0.0,0.0,0.0,0.0,0.0,0.0,0.0,0.0,0.0,0.0,0.0,0.0,0.0,0.0,0.0,0.0,0.0,0.0,0.0,0.0,0.0,0.0,0.0,0.0,0.0,0.0,0.0,0.0,0.0,0.0,0.0,0.0,0.0,0.0,0.0,0.0,0.0,0.0,0.0,0.0,0.0,0.0,0.0,0.0,0.0,0.0,0.0,0.0,0.0,0.0,0.0,0.0,0.0,0.0,0.0,0.0,0.0,0.0,0.0,0.0,0.0,0.0,0.0,0.0,0.0,0.0,0.0,0.0,0.0,0.0,0.0,0.0,0.0,0.0,0.0,0.0,0.0,0.0,0.0,0.0,0.0,0.0,0.0,0.0,0.0,0.0,0.0,0.0,0.0,0.0,0.0,0.0,0.0,0.0,0.0,0.0,0.0,0.0,0.0,0.0,0.0,0.0,0.0,0.0,0.0,0.0,0.0,0.0,0.0,0.0,0.0,0.0,0.0,0.0,0.0,0.0,0.0,0.0,0.0,0.0,0.0,0.0,0.0,0.0,0.0,0.0,0.0,0.0,0.0,0.0,0.0,0.0,0.0,0.0,0.0,0.0,0.0,0.0,0.0,0.0,0.0,0.0,0.0,0.0,0.0,0.0,0.0,0.0,0.0,0.0,0.0,0.0,0.0,0.0,0.0,0.0,0.0,0.0,0.0,0.0,0.0,0.0,0.0,0.0,0.0,0.0,0.0,0.0,0.0,0.0,0.0,0.0,0.0,0.0,0.0,0.0,0.0,0.0,0.0,0.0,0.0,0.0,0.0,0.0,0.0,0.0,0.0,0.0,0.0,0.0,0.0,0.0,0.0,0.0,0.0,0.0,0.0,0.0,0.0,0.0,0.0,0.0,0.0,0.0,0.0,0.0,0.0,0.0,0.0,0.0,0.0,0.0,0.0,0.0,0.0,0.0,0.0,0.0,0.0,0.0,0.0,0.0,0.0,0.0,0.0,0.0,0.0,0.0,0.0,0.0,0.0,0.0,0.0,0.0,0.0,0.0,0.0,0.0,0.0,0.0,0.0,0.0,0.0,0.0,0.0,0.0,0.0,0.2157,0.0,0.0,0.0,0.0,0.0,0.0,0.0,0.0,0.0,0.0,0.0,0.0,0.0,0.0,0.0,0.0,0.0,0.0,0.0,0.0,0.0,0.0,0.0,0.0,0.0,0.0,0.0,0.0,0.0,0.0,0.0,0.0,0.0,0.0,0.0,0.0,0.0,0.0,0.0,0.0,0.0,0.0,0.0,0.0,0.0,0.0,0.0,0.0,0.0,0.0,0.0,0.0,0.0,0.0,0.0,0.0,0.0,0.0,0.0,0.0,0.0,0.0,0.0,0.0,0.0,0.0,0.0,0.0,0.0,0.0,0.0,0.0,0.0,0.0,0.0,0.0,0.0,0.0,0.0,0.0,0.0,0.0,0.0,0.0,0.0,0.0,0.0,0.0,0.0,0.0,0.0,0.0,0.0,0.0,0.0,0.0,0.0,0.0,0.0,0.0,0.0,0.0,0.0,0.0,0.0,0.0,0.0,0.0,0.0,0.0,0.4324,0.3895,0.3473,0.2948,0.2275,0.0,0.0,0.0,0.0,0.0,0.0,0.0,0.0,0.0,0.0,0.0,0.0,0.0,0.0,0.0,0.0,0.0,0.0,0.0,0.0,0.0,0.0,0.0,0.0,0.0,0.0,0.0,0.0,0.0,0.0,0.0,0.0,0.0,0.0,0.0,0.0,0.0,0.0,0.0,0.0,0.0,0.0,0.0,0.0,0.0,0.0,0.0,0.0,0.0,0.0,0.0,0.0,0.0,0.0,0.0,0.0,0.0,0.0,0.0,0.0,0.0,0.0,0.0,0.0,0.0,0.0,0.0,0.0,0.0,0.0,0.0,0.0,0.0,0.0,0.0,0.0,0.0,0.0,0.0,0.0,0.0,0.0,0.0,0.0,0.0,0.0,0.0,0.0,0.0,0.0,0.0,0.0,0.0,0.0,0.0,0.0,0.0,0.0,0.0,0.0,0.0,0.0,0.0,0.0,0.0,0.0,0.0,0.0,0.0,0.0,0.0,0.0,0.3968,0.3253,0.228,0.0,0.0,0.0,0.0,0.0,0.0,0.0,0.0,0.0,0.0,0.0,0.0,0.0,0.0,0.0,0.0,0.0,0.0,0.0,0.0,0.0,0.0,0.0,0.0,0.0,0.0,0.0,0.0,0.0,0.0,0.0,0.0,0.0,0.0,0.0,0.0,0.0,0.0,0.0,0.0,0.0,0.0,0.0,0.0,0.0,0.0,0.0,0.0,0.0,0.0,0.0,0.0,0.0,0.0,0.0,0.0,0.0,0.0,0.0,0.0,0.0,0.0,0.0,0.0,0.0,0.0,0.0,0.0,0.0,0.0,0.0,0.0,0.0,0.0,0.0,0.0,0.0,0.0,0.0,0.0,0.0,0.0,0.0,0.0,0.0,0.0,0.0,0.0,0.0,0.0,0.0,0.0,0.0,0.0,0.0,0.0,0.0,0.0,0.0,0.0,0.0,0.0,0.0,0.0,0.0,0.0,0.0,0.0,0.0,0.0,0.5577,0.4872,0.4493,0.0,0.2131,0.0,0.0,0.0,0.0,0.0,0.0,0.0,0.0,0.0,0.0,0.0,0.0,0.0,0.0,0.0,0.0,0.0,0.0,0.0,0.0,0.0,0.0,0.0,0.0,0.0,0.0,0.0,0.0,0.0,0.0,0.0,0.0,0.0,0.0,0.0,0.0,0.0,0.0,0.0,0.0,0.0,0.0,0.0,0.0,0.0,0.0,0.0,0.0,0.0,0.0,0.0,0.0,0.0,0.0,0.0,0.0,0.0,0.0,0.0,0.0,0.0,0.0,0.0,0.0,0.0,0.0,0.0,0.0,0.0,0.0,0.0,0.0,0.0,0.0,0.0,0.0,0.0,0.0,0.0,0.0,0.0,0.0,0.0,0.0,0.0,0.0,0.0,0.0,0.0,0.0,0.0,0.0,0.0,0.0,0.0,0.0,0.0,0.0,0.0,0.0,0.0,0.0,0.0,0.0,0.0,0.0,0.0,0.0,0.0,0.0,0.6062,0.5451,0.4227,0.3076,0.0,0.0,0.0,0.0,0.0,0.0,0.0,0.0,0.0,0.0,0.0,0.0,0.0,0.0,0.0,0.0,0.0,0.0,0.0,0.0,0.0,0.0,0.0,0.0,0.0,0.0,0.0,0.0,0.0,0.0,0.0,0.0,0.0,0.0,0.0,0.0,0.0,0.0,0.0,0.0,0.0,0.0,0.0,0.0,0.0,0.0,0.0,0.0,0.0,0.0,0.0,0.0,0.0,0.0,0.0,0.0,0.0,0.0,0.0,0.0,0.0,0.0,0.0,0.0,0.0,0.0,0.0,0.0,0.0,0.0,0.0,0.0,0.0,0.0,0.0,0.0,0.0,0.0,0.0,0.0,0.0,0.0,0.0,0.0,0.0,0.0,0.0,0.0,0.0,0.0,0.0,0.0,0.0,0.0,0.0,0.0,0.0,0.0,0.0,0.0,0.0,0.0,0.0,0.0,0.0,0.0,0.0,0.0,0.0,0.0,0.6723,0.6262,0.5483,0.3979,0.2777,0.205,0.0,0.0,0.0,0.0,0.0,0.0,0.0,0.0,0.0,0.0,0.0,0.0,0.0,0.0,0.0,0.0,0.0,0.0,0.0,0.0,0.0,0.0,0.0,0.0,0.0,0.0,0.0,0.0,0.0,0.0,0.0,0.0,0.0,0.0,0.0,0.0,0.0,0.0,0.0,0.0,0.0,0.0,0.0,0.0,0.0,0.0,0.0,0.0,0.0,0.0,0.0,0.0,0.0,0.0,0.0,0.0,0.0,0.0,0.0,0.0,0.0,0.0,0.0,0.0,0.0,0.0,0.0,0.0,0.0,0.0,0.0,0.0,0.0,0.0,0.0,0.0,0.0,0.0,0.0,0.0,0.0,0.0,0.0,0.0,0.0,0.0,0.0,0.0,0.0,0.0,0.0,0.0,0.0,0.0,0.0,0.0,0.0,0.0,0.0,0.0,0.0,0.0,0.0,0.0,0.0,0.0,0.0,0.0,0.6724,0.6623,0.5998,0.4785,0.3912,0.295,0.0,0.0,0.0,0.0,0.0,0.0,0.0,0.0,0.0,0.0,0.0,0.0,0.0,0.0,0.0,0.0,0.0,0.0,0.0,0.0,0.0,0.0,0.0,0.0,0.0,0.0,0.0,0.0,0.0,0.0,0.0,0.0,0.0,0.0,0.0,0.0,0.0,0.0,0.0,0.0,0.0,0.0,0.0,0.0,0.0,0.0,0.0,0.0,0.0,0.0,0.0,0.0,0.0,0.0,0.0,0.0,0.0,0.0,0.0,0.0,0.0,0.0,0.0,0.0,0.0,0.0,0.0,0.0,0.0,0.0,0.0,0.0,0.0,0.0,0.0,0.0,0.0,0.0,0.0,0.0,0.0,0.0,0.0,0.0,0.0,0.0,0.0,0.0,0.0,0.0,0.0,0.0,0.0,0.0,0.0,0.0,0.0,0.0,0.0,0.0,0.0,0.0,0.0,0.0,0.0,0.0,0.0,0.0,0.0,0.6371,0.6101,0.5414,0.4291,0.3539,0.2649,0.0,0.0,0.0,0.0,0.0,0.0,0.0,0.0,0.0,0.0,0.0,0.0,0.0,0.0,0.0,0.0,0.0,0.0,0.0,0.0,0.0,0.0,0.0,0.0,0.0,0.0,0.0,0.0,0.0,0.0,0.0,0.0,0.0,0.0,0.0,0.0,0.0,0.0,0.0,0.0,0.0,0.0,0.0,0.0,0.0,0.0,0.0,0.0,0.0,0.0,0.0,0.0,0.0,0.0,0.0,0.0,0.0,0.0,0.0,0.0,0.0,0.0,0.0,0.0,0.0,0.0,0.0,0.0,0.0,0.0,0.0,0.0,0.0,0.0,0.0,0.0,0.0,0.0,0.0,0.0,0.0,0.0,0.0,0.0,0.0,0.0,0.0,0.0,0.0,0.0,0.0,0.0,0.0,0.0,0.0,0.0,0.0,0.0,0.0,0.0,0.0,0.0,0.0,0.0,0.0,0.0,0.0,0.0,0.0,0.5583,0.0,0.463,0.3774,0.3089,0.2291,0.0,0.0,0.0,0.0,0.0,0.0,0.0,0.0,0.0,0.0,0.0,0.0,0.0,0.0,0.0,0.0,0.0,0.0,0.0,0.0,0.0,0.0,0.0,0.0,0.0,0.0,0.0,0.0,0.0,0.0,0.0,0.0,0.0,0.0,0.0,0.0,0.0,0.0,0.0,0.0,0.0,0.0,0.0,0.0,0.0,0.0,0.0,0.0,0.0,0.0,0.0,0.0,0.0,0.0,0.0,0.0,0.0,0.0,0.0,0.0,0.0,0.0,0.0,0.0,0.0,0.0,0.0,0.0,0.0,0.0,0.0,0.0,0.0,0.0,0.0,0.0,0.0,0.0,0.0,0.0,0.0,0.0,0.0,0.0,0.0,0.0,0.0,0.0,0.0,0.0,0.0,0.0,0.0,0.0,0.0,0.0,0.0,0.0,0.0,0.0,0.0,0.0,0.0,0.0,0.0,0.0,0.0,0.0,0.5018,0.4327,0.4055,0.3678,0.3186,0.2537,0.1898,0.0,0.0,0.0,0.0,0.0,0.0,0.0,0.0,0.0,0.0,0.0,0.0,0.0,0.0,0.0,0.0,0.0,0.0,0.0,0.0,0.0,0.0,0.0,0.0,0.0,0.0,0.0,0.0,0.0,0.0,0.0,0.0,0.0,0.0,0.0,0.0,0.0,0.0,0.0,0.0,0.0,0.0,0.0,0.0,0.0,0.0,0.0,0.0,0.0,0.0,0.0,0.0,0.0,0.0,0.0,0.0,0.0,0.0,0.0,0.0,0.0,0.0,0.0,0.0,0.0,0.0,0.0,0.0,0.0,0.0,0.0,0.0,0.0,0.0,0.0,0.0,0.0,0.0,0.0,0.0,0.0,0.0,0.0,0.0,0.0,0.0,0.0,0.0,0.0,0.0,0.0,0.0,0.0,0.0,0.0,0.0,0.0,0.0,0.0,0.0,0.0,0.0,0.0,0.0,0.0,0.0,0.0,0.0,0.0,0.3449,0.3213,0.282,0.2319,0.1825,0.1279,0.0,0.0,0.0,0.0,0.0,0.0,0.0,0.0,0.0,0.0,0.0,0.0,0.0,0.0,0.0,0.0,0.0,0.0,0.0,0.0,0.0,0.0,0.0,0.0,0.0,0.0,0.0,0.0,0.0,0.0,0.0,0.0,0.0,0.0,0.0,0.0,0.0,0.0,0.0,0.0,0.0,0.0,0.0,0.0,0.0,0.0,0.0,0.0,0.0,0.0,0.0,0.0,0.0,0.0,0.0,0.0,0.0,0.0,0.0,0.0,0.0,0.0,0.0,0.0,0.0,0.0,0.0,0.0,0.0,0.0,0.0,0.0,0.0,0.0,0.0,0.0,0.0,0.0,0.0,0.0,0.0,0.0,0.0,0.0,0.0,0.0,0.0,0.0,0.0,0.0,0.0,0.0,0.0,0.0,0.0,0.0,0.0,0.0,0.0,0.0,0.0,0.0,0.0,0.0,0.0,0.0,0.0,0.0,0.0,0.2285,0.2147,0.1864,0.153,0.1191,0.0814,0.0412,0.0,0.0,0.0,0.0,0.0,0.0,0.0,0.0,0.0,0.0,0.0,0.0,0.0,0.0,0.0,0.0,0.0,0.0,0.0,0.0,0.0,0.0,0.0,0.0,0.0,0.0,0.0,0.0,0.0,0.0,0.0,0.0,0.0,0.0,0.0,0.0,0.0,0.0,0.0,0.0,0.0,0.0,0.0,0.0,0.0,0.0,0.0,0.0,0.0,0.0,0.0,0.0,0.0,0.0,0.0,0.0,0.0,0.0,0.0,0.0,0.0,0.0,0.0,0.0,0.0,0.0,0.0,0.0,0.0,0.0,0.0,0.0,0.0,0.0,0.0,0.0,0.0,0.0,0.0,0.0,0.0,0.0,0.0,0.0,0.0,0.0,0.0,0.0,0.0,0.0,0.0,0.0,0.0,0.0,0.0,0.0,0.0,0.0,0.0,0.0,0.0,0.0,0.0,0.0,0.0,0.0,0.0,0.0,0.0932,0.0867,0.0849,0.0914,0.0617,0.0432,0.0,0.0,0.0,0.0,0.0,0.0,0.0,0.0,0.0,0.0,0.0,0.0,0.0,0.0,0.0,0.0,0.0,0.0,0.0,0.0,0.0,0.0,0.0,0.0,0.0,0.0,0.0,0.0,0.0,0.0,0.0,0.0,0.0,0.0,0.0,0.0,0.0,0.0,0.0,0.0,0.0,0.0,0.0,0.0,0.0,0.0,0.0,0.0,0.0,0.0,0.0,0.0,0.0,0.0,0.0,0.0,0.0,0.0,0.0,0.0,0.0,0.0,0.0,0.0,0.0,0.0,0.0,0.0,0.0,0.0,0.0,0.0,0.0,0.0,0.0,0.0,0.0,0.0,0.0,0.0,0.0,0.0,0.0,0.0,0.0,0.0,0.0,0.0,0.0,0.0,0.0,0.0,0.0,0.0,0.0,0.0,0.0,0.0,0.0,0.0,0.0,0.0,0.0,0.0,0.0,0.0,0.0,0.0,0.0,0.026,0.0228,0.0377,0.0653,0.0311,0.013,0.0,0.0,0.0,0.0,0.0,0.0,0.0,0.0,0.0,0.0,0.0,0.0,0.0,0.0,0.0,0.0,0.0,0.0,0.0,0.0,0.0,0.0,0.0,0.0,0.0,0.0,0.0,0.0,0.0,0.0,0.0,0.0,0.0,0.0,0.0,0.0,0.0,0.0,0.0,0.0,0.0,0.0,0.0,0.0,0.0,0.0,0.0,0.0,0.0,0.0,0.0,0.0,0.0,0.0,0.0,0.0,0.0,0.0,0.0,0.0,0.0,0.0,0.0,0.0,0.0,0.0,0.0,0.0,0.0,0.0,0.0,0.0,0.0,0.0,0.0,0.0,0.0,0.0,0.0,0.0,0.0,0.0,0.0,0.0,0.0,0.0,0.0,0.0,0.0,0.0,0.0,0.0,0.0,0.0,0.0,0.0,0.0,0.0,0.0,0.0,0.0,0.0,0.0,0.0,0.0,0.0,0.0,0.0,0.0181,0.0,0.0,0.0121,0.0354,0.011,0.0,0.0,0.0,0.0,0.0,0.0,0.0,0.0,0.0,0.0,0.0,0.0,0.0,0.0,0.0,0.0,0.0,0.0,0.0,0.0,0.0,0.0,0.0,0.0,0.0,0.0,0.0,0.0,0.0,0.0,0.0,0.0,0.0,0.0,0.0,0.0,0.0,0.0,0.0,0.0,0.0,0.0,0.0,0.0,0.0,0.0,0.0,0.0,0.0,0.0,0.0,0.0,0.0,0.0,0.0,0.0,0.0,0.0,0.0,0.0,0.0,0.0,0.0,0.0,0.0,0.0,0.0,0.0,0.0,0.0,0.0,0.0,0.0,0.0,0.0,0.0,0.0,0.0,0.0,0.0,0.0,0.0,0.0,0.0,0.0,0.0,0.0,0.0,0.0,0.0,0.0,0.0,0.0,0.0,0.0,0.0,0.0,0.0,0.0,0.0,0.0,0.0,0.0,0.0,0.0,0.0,0.0,0.0,0.0,0.0,0.0,0.0,0.0,0.0,0.0,0.0,0.0,0.0,0.0,0.0,0.0,0.0,0.0,0.0,0.0,0.0,0.0,0.0,0.0,0.0,0.0,0.0,0.0,0.0,0.0,0.0,0.0,0.0,0.0,0.0,0.0,0.0,0.0,0.0,0.0,0.0,0.0,0.0,0.0,0.0,0.0,0.0,0.0,0.0,0.0,0.0,0.0,0.0,0.0,0.0,0.0,0.0,0.0,0.0,0.0,0.0,0.0,0.0,0.0,0.0,0.0,0.0,0.0,0.0,0.0,0.0,0.0,0.0,0.0,0.0,0.0,0.0,0.0,0.0,0.0,0.0,0.0,0.0,0.0,0.0,0.0,0.0,0.0,0.0,0.0,0.0,0.0,0.0,0.0,0.0,0.0,0.0,0.0,0.0,0.0,0.0,0.0,0.0,0.0,0.0,0.0,0.0,0.0,0.0,0.0,0.0,0.0,0.0,0.0,0.0,0.0,0.0,0.0,0.0,0.0,0.0,0.0,0.0,0.0,0.0,0.0,0.0,0.0,0.0,0.0,0.0,0.0,0.0,0.0,0.0,0.0,0.0,0.0,0.0,0.0,0.0,0.0,0.0,0.0,0.0,0.0,0.0,0.0,0.0,0.0,0.0,0.0,0.0,0.0,0.0,0.0,0.0,0.0,0.0,0.0,0.0,0.0,0.0,0.0,0.0,0.0,0.0,0.0,0.0,0.0,0.0,0.0,0.0,0.0,0.9131,0.0,0.0,0.0,0.0,0.0,0.0,0.0,0.0,0.0,0.0,0.0,0.0,0.0,0.0,0.0,0.0,0.0,0.0,0.0,0.0,0.0,0.0,0.0,0.0,0.0,0.0,0.0,0.0,0.0,0.0,0.0,0.0,0.0,0.0,0.0,0.0,0.0,0.0,0.0,0.0,0.0,0.0,0.0,0.0,0.0,0.0,0.0,0.0,0.0,0.0,0.0,0.0,0.0,0.0,0.0,0.0,0.0,0.0,0.0,0.0,0.0,0.0,0.0,0.0,0.0,0.0,0.0,0.0,0.0,0.0,0.0,0.0,0.0,0.0,0.0,0.0,0.0,0.0,0.0,0.0,0.0,0.0,0.0,0.0,0.0,0.0,0.0,0.0,0.0,0.0,0.0,0.0,0.0,0.0,0.0,0.0,0.0,0.0,0.0,0.0,0.0,0.0,0.0,0.0,0.0,0.0,0.0,0.0,0.0,0.0,0.0,0.0,0.0,0.0,0.0,0.0,0.0,0.0,0.0,0.0,0.0,0.0,0.0,0.0,0.0,0.0,0.0,0.0,0.0,0.0,0.0,0.0,0.0,0.0,0.0,0.0,0.0,0.0,0.0,0.0,0.0,0.0,0.0,0.0,0.0,0.0,0.0,0.0,0.0,0.0,0.0,0.0,0.0,0.0,0.0,0.0,0.0,0.0,0.0,0.0,0.0,0.0,0.0,0.0,0.0,0.0,0.0,0.0,0.0,0.0,0.0,0.0,0.0,0.0,0.0,0.0,0.0,0.0,0.0,0.0,0.0,0.0,0.0,0.0,0.0,0.0,0.0,0.0,0.0,0.0,0.0,0.0,0.0,0.0,0.0,0.0,0.0,0.0,0.0,0.0,0.0,0.0,0.0,0.0,0.0,0.0,0.0,0.0,0.0,0.0,0.0,0.0,0.0,0.0,0.0,0.0,0.0,0.0,0.0,0.0,0.8724,0.8615,0.0,0.0,0.0,0.0,0.0,0.0,0.0,0.0,0.7584,0.0,0.0,0.0,0.0,0.0,0.0,0.0,0.0,0.0,0.0,0.0,0.0,0.0,0.0,0.0,0.0,0.0,0.0,0.0,0.0,0.0,0.0,0.0,0.0,0.0,0.0,0.0,0.0,0.0,0.0,0.0,0.0,0.0,0.0,0.0,0.0,0.0,0.0,0.0,0.0,0.0,0.0,0.0,0.0,0.0,0.0,0.0,0.0,0.0,0.0,0.0,0.0,0.0,0.0,0.0,0.0,0.0,0.0,0.0,0.0,0.0,0.0,0.0,0.0,0.0,0.0,0.0,0.0,0.0,0.0,0.0,0.0,0.0,0.0,0.0,0.0,0.0,0.0,0.0,0.0,0.0,0.0,0.0,0.0,0.0,0.0,0.0,0.0,0.0,0.0,0.0,0.0,0.0,0.0,0.0,0.0,0.0,0.0,0.0,0.0,0.0,0.0,0.0,0.0,0.0,0.848,0.8082,0.0,0.0,0.0,0.0,0.0,0.0,0.0,0.0,0.7485,0.0,0.0,0.0,0.0,0.0,0.0,0.0,0.0,0.0,0.0,0.0,0.0,0.0,0.0,0.0,0.0,0.0,0.0,0.0,0.0,0.0,0.0,0.0,0.0,0.0,0.0,0.0,0.0,0.0,0.0,0.0,0.0,0.0,0.0,0.0,0.0,0.0,0.0,0.0,0.0,0.0,0.0,0.0,0.0,0.0,0.0,0.0,0.0,0.0,0.0,0.0,0.0,0.0,0.0,0.0,0.0,0.0,0.0,0.0,0.0,0.0,0.0,0.0,0.0,0.0,0.0,0.0,0.0,0.0,0.0,0.0,0.0,0.0,0.0,0.0,0.0,0.0,0.0,0.0,0.0,0.0,0.0,0.0,0.0,0.0,0.0,0.0,0.0,0.0,0.0,0.0,0.0,0.0,0.0,0.0,0.0,0.0,0.0,0.0,0.0,0.0,0.0,0.0,0.0,0.7637,0.7059,0.6686,0.0,0.0,0.0,0.0,0.0,0.0,0.5929,0.5798,0.0,0.0,0.0,0.0,0.0,0.0,0.0,0.0,0.0,0.0,0.0,0.0,0.0,0.0,0.0,0.0,0.0,0.0,0.0,0.0,0.0,0.0,0.0,0.0,0.0,0.0,0.0,0.0,0.0,0.0,0.0,0.0,0.0,0.0,0.0,0.0,0.0,0.0,0.0,0.0,0.0,0.0,0.0,0.0,0.0,0.0,0.0,0.0,0.0,0.0,0.0,0.0,0.0,0.0,0.0,0.0,0.0,0.0,0.0,0.0,0.0,0.0,0.0,0.0,0.0,0.0,0.0,0.0,0.0,0.0,0.0,0.0,0.0,0.0,0.0,0.0,0.0,0.0,0.0,0.0,0.0,0.0,0.0,0.0,0.0,0.0,0.0,0.0,0.0,0.0,0.0,0.0,0.0,0.0,0.0,0.0,0.0,0.0,0.0,0.0,0.0,0.0,0.0,0.0,0.0,0.6013,0.556,0.544,0.0,0.0,0.0,0.0,0.4934,0.4437,0.0,0.0,0.0,0.0,0.0,0.0,0.0,0.0,0.0,0.0,0.0,0.0,0.0,0.0,0.0,0.0,0.0,0.0,0.0,0.0,0.0,0.0,0.0,0.0,0.0,0.0,0.0,0.0,0.0,0.0,0.0,0.0,0.0,0.0,0.0,0.0,0.0,0.0,0.0,0.0,0.0,0.0,0.0,0.0,0.0,0.0,0.0,0.0,0.0,0.0,0.0,0.0,0.0,0.0,0.0,0.0,0.0,0.0,0.0,0.0,0.0,0.0,0.0,0.0,0.0,0.0,0.0,0.0,0.0,0.0,0.0,0.0,0.0,0.0,0.0,0.0,0.0,0.0,0.0,0.0,0.0,0.0,0.0,0.0,0.0,0.0,0.0,0.0,0.0,0.0,0.0,0.0,0.0,0.0,0.0,0.0,0.0,0.0,0.0,0.0,0.0,0.0,0.0,0.0,0.0,0.0,0.5321,0.4264,0.4129,0.4097,0.0,0.0,0.4033,0.404,0.3925,0.0,0.0,0.0,0.0,0.0,0.0,0.0,0.0,0.0,0.0,0.0,0.0,0.0,0.0,0.0,0.0,0.0,0.0,0.0,0.0,0.0,0.0,0.0,0.0,0.0,0.0,0.0,0.0,0.0,0.0,0.0,0.0,0.0,0.0,0.0,0.0,0.0,0.0,0.0,0.0,0.0,0.0,0.0,0.0,0.0,0.0,0.0,0.0,0.0,0.0,0.0,0.0,0.0,0.0,0.0,0.0,0.0,0.0,0.0,0.0,0.0,0.0,0.0,0.0,0.0,0.0,0.0,0.0,0.0,0.0,0.0,0.0,0.0,0.0,0.0,0.0,0.0,0.0,0.0,0.0,0.0,0.0,0.0,0.0,0.0,0.0,0.0,0.0,0.0,0.0,0.0,0.0,0.0,0.0,0.0,0.0,0.0,0.0,0.0,0.0,0.0,0.0,0.0,0.0,0.0,0.0,0.0,0.315,0.2848,0.0,0.0,0.0,0.264,0.2658,0.0,0.0,0.0,0.0,0.0,0.0,0.0,0.0,0.0,0.0,0.0,0.0,0.0,0.0,0.0,0.0,0.0,0.0,0.0,0.0,0.0,0.0,0.0,0.0,0.0,0.0,0.0,0.0,0.0,0.0,0.0,0.0,0.0,0.0,0.0,0.0,0.0,0.0,0.0,0.0,0.0,0.0,0.0,0.0,0.0,0.0,0.0,0.0,0.0,0.0,0.0,0.0,0.0,0.0,0.0,0.0,0.0,0.0,0.0,0.0,0.0,0.0,0.0,0.0,0.0,0.0,0.0,0.0,0.0,0.0,0.0,0.0,0.0,0.0,0.0,0.0,0.0,0.0,0.0,0.0,0.0,0.0,0.0,0.0,0.0,0.0,0.0,0.0,0.0,0.0,0.0,0.0,0.0303,0.0,0.0,0.0,0.0,0.0,0.0,0.0,0.0,0.0,0.0,0.0,0.0,0.0,0.0,0.2609,0.2292,0.1877,0.1605,0.0,0.0,0.161,0.1618,0.1341,0.1267,0.0,0.0,0.0,0.0,0.0,0.0,0.0,0.0,0.0,0.0,0.0,0.0,0.0,0.0,0.0,0.0,0.0,0.0,0.0,0.0,0.0,0.0,0.0,0.0,0.0,0.0,0.0,0.0,0.0,0.0,0.0,0.0,0.0,0.0,0.0,0.0,0.0,0.0,0.0,0.0,0.0,0.0,0.0,0.0,0.0,0.0,0.0,0.0,0.0,0.0,0.0,0.0,0.0,0.0,0.0,0.0,0.0,0.0,0.0,0.0,0.0,0.0,0.0,0.0,0.0,0.0,0.0,0.0,0.0,0.0,0.0,0.0,0.0,0.0,0.0,0.0,0.0,0.0,0.0,0.0,0.0,0.0,0.0,0.0,0.0,0.0,0.0,0.0,0.0,0.0,0.0,0.0,0.0,0.0,0.0,0.0,0.0,0.0,0.0,0.0,0.0,0.0,0.0,0.0,0.0,0.2586,0.1999,0.1593,0.1317,0.0,0.1329,0.1333,0.132,0.1283,0.1284,0.1242,0.0,0.0,0.0,0.0,0.0,0.0,0.0,0.0,0.0,0.0,0.0,0.0,0.0,0.0,0.0,0.0,0.0,0.0,0.0,0.0,0.0,0.0,0.0,0.0,0.0,0.0,0.0,0.0,0.0,0.0,0.0,0.0,0.0,0.0,0.0,0.0,0.0,0.0,0.0,0.0,0.0,0.0,0.0,0.0,0.0,0.0,0.0,0.0,0.0,0.0,0.0,0.0,0.0,0.0,0.0,0.0,0.0,0.0,0.0,0.0,0.0,0.0,0.0,0.0,0.0,0.0,0.0,0.0,0.0,0.0,0.0,0.0,0.0,0.0,0.0,0.0,0.0,0.0,0.0,0.0,0.0,0.0,0.0,0.0,0.0,0.0,0.0,0.0,0.0,0.0,0.0,0.0086,0.0145,0.0175,0.0,0.0,0.0,0.0,0.0,0.0,0.0,0.0,0.0,0.0,0.1308,0.1198,0.0767,0.0,0.0,0.0504,0.0503,0.0501,0.049,0.0477,0.0461,0.0604,0.0,0.0,0.0,0.0,0.0,0.0,0.0,0.0,0.0,0.0,0.0,0.0,0.0,0.0,0.0,0.0,0.0,0.0,0.0,0.0,0.0,0.0,0.0,0.0,0.0,0.0,-0.0029,-0.0028,0.0,0.0,0.0,0.0,0.0,0.0,0.0,0.0,0.0,0.0,0.0,0.0,0.0,0.0,0.0,0.0,0.0,0.0,0.0,0.0,0.0,0.0,0.0,0.0,0.0,0.0,0.0,0.0,0.0,0.0,0.0,0.0,0.0,0.0,0.0,0.0,0.0,0.0,0.0,0.0,0.0,0.0,0.0,0.0,0.0,0.0,0.0,0.0,0.0,0.0,0.0,0.0,0.0,0.0,0.0,0.0,0.0,0.0,0.0,0.0,0.0,0.0,0.0,0.0,0.0,0.0,0.0,0.0,0.0,0.0,0.0,0.0,0.0,0.0,0.0,0.0577,0.0653,0.0188,-0.0236,-0.0238,-0.0379,-0.0423,-0.028,-0.023,-0.027,-0.0218,0.0,0.0,0.0,0.0,0.0,0.0,0.0,0.0,0.0,0.0,0.0,0.0,0.0,0.0,0.0,0.0,0.0,0.0,0.0,0.0,0.0,0.0,0.0,0.0,0.0,0.0,0.0,-0.1071,0.0,0.0,-0.0963,0.0,0.0,0.0,0.0,0.0,0.0,0.0,0.0,0.0,0.0,0.0,0.0,0.0,0.0,0.0,0.0,0.0,0.0,0.0,0.0,0.0,0.0,0.0,0.0,0.0,0.0,0.0,0.0,0.0,0.0,0.0,0.0,0.0,0.0,0.0,0.0,0.0,0.0,0.0,0.0,0.0,0.0,0.0,0.0,0.0,0.0,0.0,0.0,0.0,0.0,0.0,0.0,0.0,0.0,0.0,0.0,0.0,0.0,0.0,0.0,0.0,0.0,0.0,0.0,0.0,0.0,0.0,0.0,0.0,0.0,0.0,0.0515,0.058,0.0601,0.0625,-0.0146,-0.0784,-0.0785,-0.1226,-0.1364,-0.086,-0.0804,-0.079,0.0,0.0,0.0,0.0,0.0,0.0,0.0,0.0,0.0,0.0,0.0,0.0,0.0,0.0,0.0,0.0,0.0,0.0,0.0,0.0,0.0,0.0,0.0,0.0,0.0,0.0,0.0,-0.1154,-0.1286,0.0,0.0,0.0,0.0,0.0,0.0,0.0,0.0,0.0,0.0,0.0,-0.2304,-0.2312,0.0,0.0,0.0,0.0,0.0,0.0,0.0,0.0,0.0,0.0,0.0,0.0,-0.0519,-0.0567,-0.088,-0.0872,-0.055,-0.0549,-0.0347,0.0,0.0,0.0,0.0,0.0,0.0,0.0,0.0,0.0,0.0,0.0,0.0,0.0,0.0,0.0,0.0,0.0,0.0,0.0,0.0,0.0,0.0,0.0,0.0,0.0,0.0,0.0,0.0,0.0,-0.0683,0.0,0.0,0.0,0.0,0.0,0.0,0.0,0.0,0.0,0.0,-0.0836,-0.0889,-0.09,-0.0937,-0.0921,-0.0901,-0.1153,-0.1404,0.0,0.0,0.0,0.0,0.0,0.0,0.0,0.0,0.0,0.0,0.0,0.0,0.0,0.0,-0.1993,-0.1312,-0.1051,-0.0886,-0.0597,0.0,0.0,0.0,0.0,0.0,0.0,0.0,0.0,0.0,0.0,0.0,0.0,0.0,0.0,-0.1719,-0.1862,-0.1797,0.0,0.0,0.0,0.0,0.0,0.0,0.0,0.0,-0.2959,-0.3302,-0.3773,-0.3787,-0.3828,-0.3899,-0.3651,-0.3312,0.0,0.0,0.0,0.0,0.0,0.0,0.0,0.0,-0.1027,-0.107,-0.1405,-0.1414,-0.1109,-0.1055,-0.0901,-0.06,-0.0579,-0.055,-0.0558,-0.0527,-0.0497,0.0,0.0,0.0,0.0,0.0,0.0,0.0,0.0,0.0,0.0,0.0,0.0,0.0,0.0,0.0,0.0,0.0,0.0,0.0,0.0,0.0,0.0,0.0,-0.1102,0.0,0.0,0.0,0.0,0.0,0.0,0.0,0.0,0.0,-0.1757,-0.176,-0.1812,-0.1852,-0.1762,-0.1708,-0.1693,0.0,0.0,0.0,0.0,0.0,0.0,0.0,-0.1918,-0.1901,-0.1893,-0.2085,-0.2579,-0.2951,-0.308,-0.279,0.0,0.0,-0.2248,-0.2081,-0.1985,-0.1702,-0.1581,-0.1419,-0.1161,-0.0811,-0.0501,0.0,0.0,0.0,0.0,-0.1752,0.0,0.0,0.0,-0.2382,-0.2641,0.0,-0.2862,0.0,0.0,0.0,0.0,-0.2604,-0.2637,0.0,0.0,-0.3894,-0.4504,-0.564,-0.5746,-0.5998,-0.6445,-0.6227,-0.6143,-0.5978,-0.3021,-0.1451,0.0,0.0,0.0,0.0,0.0,-0.1527,-0.1595,-0.171,-0.1719,-0.1715,-0.1717,-0.1717,-0.1715,-0.1657,-0.1649,-0.1644,-0.1562,-0.152,-0.1435,-0.1348,0.0,0.0,0.0,0.0,0.0,0.0,0.0,0.0,0.0,0.0,0.0,0.0,0.0,0.0,0.0,0.0,0.0,0.0,0.0,0.0,-0.1196,0.0,0.0,0.0,0.0,0.0,0.0,0.0,0.0,0.0,-0.2254,-0.2353,-0.2334,-0.2326,-0.2416,0.0,0.0,0.0,0.0,-0.2547,-0.2548,-0.2963,-0.3107,-0.2618,-0.2511,-0.2503,-0.2534,0.0,0.0,-0.3215,-0.3325,-0.3335,-0.3417,-0.3344,-0.328,-0.3137,-0.3053,-0.3041,-0.3063,-0.2694,-0.2424,-0.2378,-0.2049,-0.172,-0.5474,0.0,0.0,0.0,0.0,-0.4431,-0.4693,-0.4889,-0.5176,-0.5386,-0.549,-0.5379,0.0,0.0,0.0,0.0,0.0,0.0,-0.4431,-0.5252,-0.5732,-0.6402,-0.7275,-0.7706,-0.7923,-0.7884,-0.784,-0.7734,-0.7571,-0.6604,-0.5367,-0.3949,0.0,0.0,0.0,0.0,-0.3168,-0.3258,-0.3681,-0.3879,-0.3884,-0.3885,-0.3721,-0.3297,-0.2966,-0.2725,-0.276,-0.2692,-0.2618,-0.254,-0.2184,0.0,0.0,0.0,0.0,0.0,0.0,0.0,0.0,0.0,0.0,0.0,0.0,0.0,0.0,0.0,0.0,0.0,0.0,0.0,-0.1941,-0.203,-0.2076,0.0,0.0,0.0,0.0,0.0,0.0,0.0,0.0,0.0,-0.3119,-0.3023,-0.2972,0.0,0.0,-0.2989,-0.2962,-0.3127,-0.3181,-0.3235,-0.3325,0.0,-0.3247,-0.3175,-0.3159,-0.3152,-0.3173,-0.3248,-0.3416,-0.3437,-0.3453,-0.3463,-0.3456,-0.3435,-0.3395,-0.3314,-0.3258,-0.3249,-0.3166,-0.3134,-0.3085,-0.3003,-0.2911,-0.9153,-0.7299,-0.7092,-0.6814,-0.6623,-0.6952,-0.7145,-0.7214,-0.7482,-0.7541,-0.7515,-0.7366,-0.725,-0.7144,-0.7033,0.0,0.0,0.0,-0.6191,-0.6939,-0.7335,-0.8225,-0.9462,-0.9957,-1.0367,-1.0587,-1.06,-1.0495,-1.032,-1.0056,-0.9246,-0.778,0.0,-0.5421,-0.5244,-0.537,-0.5479,-0.5567,-0.5992,-0.6201,-0.6131,-0.611,-0.5932,-0.5647,-0.5297,-0.5113,-0.5082,-0.5027,-0.4816,-0.4551,-0.4119,-0.3628,0.0,0.0,0.0,0.0,0.0,0.0,0.0,0.0,0.0,0.0,0.0,-0.1451,-0.1712,0.0,0.0,0.0,-0.1983,-0.2132,-0.239,-0.2461,0.0,0.0,0.0,0.0,0.0,0.0,0.0,-0.3189,-0.3228,-0.3336,-0.354,-0.3441,-0.336,-0.3474,-0.3498,-0.3517,-0.3535,0.0,-0.352,-0.352,-0.3494,-0.3533,-0.349,-0.3476,-0.3472,-0.3497,-0.3514,-0.3532,-0.3601,-0.3562,-0.3573,-0.3573,-0.3573,-0.3573,-0.3573,-0.3512,-0.3445,-0.3403,-0.3407,-0.342,-0.342,-0.3435,-0.3442,-1.2929,-1.1609,-1.0253,-0.9537,-0.9266,-0.9346,-0.947,-0.9521,-0.9444,-0.947,-0.9451,-0.9223,-0.9136,-0.9015,-0.8875,0.0,-0.8049,-0.7948,-0.8239,-0.8761,-0.896,-1.0146,-1.2074,-1.2492,-1.3063,-1.3958,-1.3955,-1.3891,-1.3746,-1.3301,-1.288,-1.2303,-0.9515,-0.802,-0.7832,-0.7899,-0.8067,-0.8247,-0.8406,-0.8487,-0.8476,-0.8456,-0.8417,-0.841,-0.8349,-0.8253,-0.8233,-0.8036,-0.7711,-0.7161,-0.678,-0.61,-0.5021,0.0,0.0,0.0,0.0,0.0,0.0,0.0,0.0,0.0,0.0,0.0,0.0,0.0,0.0,-0.3345,-0.2999,0.0,-0.2824,-0.2918,0.0,0.0,0.0,-0.302,-0.3034,-0.3074,-0.3185,-0.3329,0.0,0.0,-0.3594,-0.3633,-0.364,-0.3614,-0.3603,-0.3596,-0.3596,-0.3574,-0.35,-0.3559,-0.3535,-0.3527,-0.3554,-0.3501,-0.3516,-0.3562,-0.3582,-0.3643,-0.3666,-0.3674,-0.3678,-0.3674,-0.3679,-0.3678,-0.3679,-0.3667,-0.3647,-0.3535,-0.3514,-0.3513,-0.3509,-0.3508,-0.3508,-1.5879,-1.6121,-1.5571,-1.3499,-1.0752,-1.1751,-1.21,-1.2098,-1.29,-1.3298,-1.3232,-1.3177,-1.2993,-1.2636,-1.1611,-1.1109,-1.0966,-1.0182,-1.0253,-1.0989,-1.1974,-1.2972,-1.3888,-1.4898,-1.536,-1.5415,-1.5374,-1.535,-1.5218,-1.505,-1.4835,-1.456,-1.3676,-1.2072,-0.9893,-0.9526,-0.942,-0.9386,-0.9561,-0.9975,-1.0668,-1.1097,-1.1253,-1.1168,-1.0523,-1.0139,-1.0113,-0.9593,-0.921,-0.8965,-0.8077,-0.7399,-0.7079,-0.5913,0.0,0.0,0.0,0.0,0.0,0.0,0.0,0.0,0.0,-0.3934,-0.4306,0.0,-0.5204,0.0,-0.5172,-0.5097,-0.4767,-0.4821,0.0,0.0,-0.3809,-0.3706,-0.3366,-0.3351,-0.3446,-0.3549,-0.3594,-0.3654,-0.3752,-0.3769,-0.3779,-0.3849,-0.3716,-0.3659,-0.3659,-0.3654,-0.3648,-0.3647,-0.364,-0.3641,-0.3644,-0.3648,-0.3652,-0.3667,-0.367,-0.3673,-0.3679,-0.3681,-0.3681,-0.3681,-0.3681,-0.3681,-0.3682,-0.3681,-0.3674,-0.3643,-0.3619,-0.3596,-0.3574,-0.3569,-0.3564,-1.7581,-1.7611,-1.7883,-1.6394,-1.3941,-1.465,-1.4904,-1.4838,-1.5299,-1.5526,-1.5468,-1.5341,-1.5258,-1.5047,-1.4358,-1.3841,-1.3573,-1.3031,-1.2972,-1.344,-1.4164,-1.4899,-1.5653,-1.644,-1.6833,-1.6845,-1.6901,-1.6743,-1.6544,-1.6393,-1.6139,-1.5857,-1.5591,-1.46,-1.2853,-1.2359,-1.216,-1.2155,-1.222,-1.2564,-1.3067,-1.3265,-1.3329,-1.3257,-1.2574,-1.2255,-1.2352,-1.1793,-1.137,-1.1153,-1.0475,-0.9691,-0.8908,-0.7982,-0.7236,0.0,0.0,0.0,0.0,0.0,0.0,0.0,0.0,0.0,0.0,0.0,-0.731,-0.7167,-0.7131,-0.6907,-0.6476,-0.6319,-0.5761,-0.4628,-0.4385,-0.4115,-0.3535,-0.3543,-0.3617,-0.3705,-0.3731,-0.3765,-0.3827,-0.3836,-0.384,-0.3917,-0.3802,-0.3754,-0.3741,-0.372,-0.3701,-0.37,-0.3689,-0.3686,-0.3699,-0.3712,-0.372,-0.378,-0.3722,-0.3722,-0.3722,-0.3722,-0.372,-0.3722,-0.372,-0.3722,-0.372,-0.372,-0.3718,-0.3703,-0.3688,-0.3664,-0.3636,-0.363,-0.3624,-1.8718,-1.7908,-1.8671,-1.8495,-1.7612,-1.76,-1.7435,-1.7203,-1.7061,-1.6875,-1.6732,-1.6602,-1.6615,-1.6714,-1.6657,-1.6316,-1.5862,-1.576,-1.5713,-1.5682,-1.5793,-1.6294,-1.7079,-1.743,-1.7758,-1.8124,-1.8124,-1.7975,-1.7642,-1.7419,-1.7003,-1.6555,-1.6346,-1.6133,-1.5931,-1.54,-1.5169,-1.5167,-1.524,-1.5222,-1.5222,-1.5054,-1.4892,-1.49,-1.4428,-1.4255,-1.4366,-1.3942,-1.3547,-1.3186,-1.2976,-1.2117,-1.0715,-1.0247,-0.9552,0.0,-0.8478,0.0,0.0,0.0,0.0,0.0,0.0,0.0,0.0,-0.9373,-0.9859,-0.9622,-0.9317,-0.8894,-0.8354,-0.799,-0.7187,-0.5863,-0.5283,-0.4719,-0.4107,-0.3915,-0.3852,-0.3938,-0.3888,-0.3839,-0.3928,-0.3931,-0.3931,-0.3934,-0.3865,-0.3848,-0.3828,-0.378,-0.3748,-0.3744,-0.3722,-0.3726,-0.3745,-0.3767,-0.378,-0.3837,-0.3834,-0.3835,-0.3828,-0.3827,-0.3828,-0.3828,-0.3826,-0.3827,-0.3831,-0.3828,-0.3761,-0.3737,-0.373,-0.3718,-0.3686,-0.3675,-0.3681,-1.9917,-1.9599,-1.9655,-1.9582,-1.9372,-1.932,-1.8747,-1.7909,-1.8266,-1.8287,-1.8134,-1.7994,-1.7954,-1.7918,-1.7464,-1.7174,-1.701,-1.6666,-1.6468,-1.6507,-1.7102,-1.7422,-1.751,-1.8064,-1.8302,-1.828,-1.828,-1.8186,-1.8002,-1.7826,-1.7622,-1.7392,-1.713,-1.7029,-1.7076,0.0,0.0,0.0,-1.5838,-1.5987,-1.5928,-1.6066,-1.6057,-1.5831,-1.5462,0.0,-1.4872,-1.4353,-1.3934,-1.3685,-1.3167,0.0,0.0,0.0,0.0,0.0,0.0,0.0,0.0,0.0,0.0,0.0,-1.3234,-1.2803,-1.1172,-1.2008,-1.2772,-1.2973,-1.2943,-1.2629,-1.1762,-1.1708,-1.0875,-0.8774,-0.8057,-0.7358,-0.6311,-0.5292,-0.4623,-0.4671,-0.4252,-0.3899,-0.3986,-0.3933,-0.3932,-0.3928,-0.3911,-0.3895,-0.3888,-0.3853,-0.3833,-0.3833,-0.388,-0.3884,-0.3893,-0.3896,-0.3889,-0.3816,-0.3808,-0.3799,-0.3838,-0.3832,-0.3831,-0.3831,-0.3831,-0.3831,-0.3831,-0.3831,-0.3772,-0.3764,-0.3764,-0.3805,-0.3693,-0.3682,-0.3681,-2.0302,-2.0098,-2.0017,-1.9942,0.0,-1.978,-1.9415,-1.888,-1.8882,-1.8708,-1.843,-1.8423,-1.8423,-1.8366,-1.8074,-1.8007,-1.8079,-1.7857,-1.7717,-1.7723,-1.8142,-1.8251,-1.8185,-1.8531,-1.8606,-1.8538,-1.8457,-1.8348,-1.8199,-1.805,-1.7901,-1.7751,-1.7595,-1.7561,-1.7629,-1.7419,-1.7043,-1.6447,-1.663,-1.6657,-1.6644,-1.6632,-1.6513,-1.6402,-1.5832,0.0,0.0,0.0,0.0,0.0,0.0,0.0,0.0,-1.359,0.0,-1.3181,-1.3091,-1.3028,-1.3028,-1.3621,-1.412,-1.4458,-1.5434,-1.5309,-1.3798,-1.4318,-1.485,-1.5108,-1.5141,-1.4779,-1.3843,-1.3565,-1.2613,-1.0685,-0.9922,-0.913,-0.7941,-0.7193,-0.6685,-0.6428,-0.6069,-0.5773,-0.5426,-0.5366,-0.5058,-0.4504,-0.4429,-0.4294,-0.3983,-0.3888,-0.392,-0.392,-0.392,-0.392,-0.392,-0.392,-0.3917,-0.384,-0.3838,-0.3825,-0.3798,-0.3794,-0.379,-0.3835,-0.3831,-0.3834,-0.3791,-0.3794,-0.3798,-0.381,-0.3874,-0.3801,-0.3757,-0.3737,-0.3726,-2.0444,-2.018,-2.0153,-2.0037,-1.9922,-1.9807,-1.9745,-1.9691,-1.9183,0.0,0.0,-1.842,-1.8518,-1.844,-1.8518,-1.8586,-1.8681,-1.8708,-1.8708,-1.8745,-1.8766,-1.8708,-1.8687,-1.8687,-1.8745,-1.8681,-1.8552,-1.8416,-1.828,-1.8152,-1.8016,-1.7929,-1.7915,-1.7908,-1.7819,-1.7711,-1.746,-1.7249,-1.7209,-1.7209,-1.7222,-1.6865,-1.6682,-1.6655,-1.5974,-1.5635,-1.5806,-1.5337,-1.512,-1.5174,-1.5181,-1.508,-1.4769,-1.4754,-1.4612,-1.4213,-1.4486,-1.4649,-1.4567,-1.5001,-1.5453,-1.5861,-1.6849,-1.7098,-1.6269,-1.6308,-1.6502,-1.6778,-1.6803,-1.646,-1.5623,-1.5148,-1.419,-1.2582,-1.177,-1.0946,-0.9865,-0.9331,-0.8927,-0.8492,-0.8252,-0.8073,-0.7519,-0.7273,-0.6911,-0.5933,-0.569,-0.5255,-0.4691,-0.4279,-0.3881,-0.3881,-0.3883,-0.3878,-0.3876,-0.3878,-0.3934,-0.3929,-0.3866,-0.3857,-0.3833,-0.3824,-0.3814,-0.3856,-0.3846,-0.3799,-0.3818,-0.3824,-0.3832,-0.3854,-0.392,-0.3853,-0.3829,-0.3805,-0.3783,-2.0756,-2.0408,-2.0349,-2.0132,-1.9875,-1.9854,-1.9834,-1.9684,-1.9183,-1.881,-1.8504,-1.8518,-1.8407,-1.8355,-1.8477,-1.842,-1.8389,-1.8504,-1.8498,-1.8389,-1.8511,-1.8498,-1.8382,-1.8382,-1.8382,-1.8382,-1.8362,-1.8274,-1.8138,-1.8104,-1.8009,-1.7936,-1.7915,-1.7806,-1.7684,-1.7602,-1.7507,-1.7392,-1.7256,-1.7256,-1.7378,-1.6919,-1.6635,-1.6551,-1.6313,-1.5947,-1.5493,-1.552,-1.5432,-1.5194,-1.5181,-1.535,-1.5681,-1.5781,-1.6017,-1.6266,-1.6473,-1.6627,-1.6721,-1.6929,-1.7244,-1.7672,-1.8097,-1.8165,-1.7813,-1.7914,-1.8121,-1.8403,-1.8372,-1.8324,-1.7893,-1.7641,-1.7049,-1.5843,-1.4743,-1.377,-1.3067,-1.1613,-1.064,-1.0535,-0.9911,-0.9675,-0.9559,-0.9125,-0.8718,-0.8388,-0.7781,-0.7468,-0.7025,-0.5379,-0.4061,-0.3937,-0.3937,-0.3936,-0.3992,-0.3936,-0.3922,-0.3902,-0.3898,-0.3888,-0.3858,-0.3913,-0.391,-0.3906,-0.39,-0.3906,-0.3913,-0.3913,-0.3918,-0.3925,-0.3927,-0.3862,-0.3914,-0.3906,-0.3828,-2.0872,-2.0641,-2.0424,-2.0248,-2.0112,-2.0031,-1.982,-1.9542,-1.9495,-1.921,-1.8789,-1.8694,-1.862,-1.8559,-1.8481,-1.8586,-1.8681,-1.8667,-1.862,-1.8565,-1.8626,-1.862,-1.8559,-1.8477,-1.8437,-1.8373,-1.8355,-1.828,-1.8219,-1.8213,-1.8138,-1.7996,-1.7989,-1.7955,-1.7887,-1.7806,-1.7636,-1.7487,-1.7311,-1.7222,-1.729,-1.7019,-1.6876,-1.6876,-1.6592,-1.6388,-1.6266,-1.6096,-1.594,-1.5798,-1.5716,-1.5805,-1.6083,-1.632,-1.6537,-1.6696,-1.7074,-1.7338,-1.7317,-1.769,-1.7996,-1.8206,-1.8565,-1.8728,-1.8593,-1.864,-1.8769,-1.8979,-1.9,-1.8851,-1.8462,-1.8428,-1.8066,-1.7235,-1.6579,-1.6077,-1.5508,-1.4791,-1.401,-1.3748,-1.351,-1.3014,-1.2336,-1.1964,-1.1288,-1.046,-0.9589,-0.9213,-0.9273,-0.8185,-0.6839,-0.5746,-0.4936,-0.4504,-0.4444,-0.4134,-0.3943,-0.393,-0.3929,-0.3917,-0.3891,-0.3883,-0.3877,-0.3922,-0.392,-0.3927,-0.3878,-0.3884,-0.3889,-0.3906,-0.3908,-0.3904,-0.3889,-0.3932,-0.3909,-2.096,-2.0797,-2.0539,-2.037,-2.0268,-2.0112,-1.9847,-1.9563,-1.9705,-1.9535,-1.9149,-1.8945,-1.8868,-1.8701,-1.862,-1.8694,-1.8864,-1.8837,-1.8776,-1.8773,-1.8807,-1.8728,-1.866,-1.8538,-1.8484,-1.8413,-1.8312,-1.8301,-1.8274,-1.8301,-1.826,-1.8152,-1.8145,-1.8145,-1.8138,-1.7996,-1.7846,-1.7636,-1.7433,-1.7277,-1.7243,-1.7073,-1.7032,-1.7107,-1.6809,-1.672,-1.6897,-1.6625,-1.6463,-1.6456,-1.6347,-1.6354,-1.651,-1.6736,-1.6912,-1.6986,-1.7412,-1.7711,-1.7609,-1.805,-1.8369,-1.847,-1.8789,-1.902,-1.9081,-1.9088,-1.9128,-1.9237,-1.9244,-1.9132,-1.8845,-1.8811,-1.8628,-1.8222,-1.8057,-1.7745,-1.7429,-1.7267,-1.7054,-1.6705,-1.6597,-1.6149,-1.5347,-1.4972,-1.4226,-1.2735,-1.1859,-1.1604,-1.1541,-1.1341,-1.0269,-0.8828,-0.7056,-0.5939,-0.5628,-0.5065,-0.4751,-0.4565,-0.4318,-0.4245,-0.4164,-0.4036,-0.3907,-0.3889,-0.3883,-0.3892,-0.391,-0.3914,-0.3922,-0.3877,-0.3881,-0.3877,-0.3918,-0.3899,-0.3934,-2.1109,-2.0967,-2.079,-2.0492,-2.0132,-1.9969,-1.9875,-1.9793,-1.9583,-1.9535,-1.9609,-1.9291,-1.8938,-1.8606,-1.8687,-1.8687,-1.8633,-1.885,-1.8816,-1.8599,-1.8694,-1.8677,-1.8403,-1.8355,-1.8342,-1.8348,-1.8328,-1.8253,-1.8152,-1.826,-1.8258,-1.8301,-1.8301,-1.8294,-1.8274,-1.8138,-1.7996,-1.7846,-1.7684,-1.7487,-1.7392,-1.7127,-1.6985,-1.6998,-1.6971,-1.6883,-1.6784,-1.687,-1.6917,-1.6917,-1.691,-1.6965,-1.7121,-1.7338,-1.7561,-1.7738,-1.7935,-1.8097,-1.8219,-1.8287,-1.8498,-1.8877,-1.8959,-1.9115,-1.9345,-1.9386,-1.9393,-1.9406,-1.9413,-1.9414,-1.9556,-1.9576,-1.9509,-1.9507,-1.911,-1.8805,-1.8797,-1.8331,-1.7969,-1.7907,-1.7943,-1.7857,-1.7568,-1.7131,-1.6533,-1.5682,-1.5371,-1.524,-1.5235,-1.4487,-1.3811,-1.2933,-1.0875,-0.8654,-0.79,-0.712,-0.6541,-0.6475,-0.5553,-0.4933,-0.4681,-0.4249,-0.388,-0.3928,-0.3933,-0.3934,-0.3877,-0.3884,-0.3882,-0.3885,-0.3888,-0.3886,-0.3884,-0.3877,-0.3918,-2.1184,-2.1102,-2.0872,-2.0566,-2.0234,-2.0071,-1.9956,-1.9861,-1.9746,-1.9685,-1.9711,-1.9529,-1.9271,-1.8925,-1.8816,-1.8834,-1.881,-1.8837,-1.8854,-1.8674,-1.8793,-1.8694,-1.8586,-1.8484,-1.8386,-1.8379,-1.8362,-1.8287,-1.8247,-1.8294,-1.8321,-1.8321,-1.8321,-1.8321,-1.8308,-1.8165,-1.8057,-1.7996,-1.7765,-1.7561,-1.7487,-1.7351,-1.7283,-1.7311,-1.7378,-1.7392,-1.7412,-1.7473,-1.75,-1.7555,-1.75,-1.7528,-1.7582,-1.7711,-1.7799,-1.7922,-1.8002,-1.8199,-1.843,-1.8525,-1.866,-1.8909,-1.9101,-1.9312,-1.942,-1.9515,-1.9569,-1.9569,-1.9563,-1.9596,-1.9718,-1.98,-1.9807,-1.9875,-1.9709,-1.963,-1.9776,-1.9545,-1.9446,-1.9524,-1.9537,-1.9348,-1.8906,-1.8401,-1.7914,-1.7644,-1.7587,-1.7581,-1.7518,-1.7097,-1.6637,-1.6098,-1.4704,-1.2698,-1.0469,-0.8792,-0.8079,-0.7458,-0.6352,-0.5491,-0.4938,-0.4383,-0.3888,-0.3888,-0.3888,-0.3888,-0.3886,-0.3888,-0.3888,-0.3888,-0.3888,-0.3888,-0.3888,-0.3888,-0.3936,-2.1285,-2.117,-2.0899,-2.06,-2.0322,-2.0166,-2.001,-1.9936,-1.9834,-1.9759,-1.9732,-1.9725,-1.9515,-1.9257,-1.9033,-1.8986,-1.9033,-1.8972,-1.8956,-1.8837,-1.8823,-1.8803,-1.8755,-1.8654,-1.8593,-1.8579,-1.8498,-1.8423,-1.8382,-1.8335,-1.8321,-1.8321,-1.8321,-1.8321,-1.8308,-1.8206,-1.8131,-1.8077,-1.7874,-1.7697,-1.7704,-1.7602,-1.7575,-1.7595,-1.7676,-1.7799,-1.7915,-1.7956,-1.7963,-1.7922,-1.7915,-1.7915,-1.7922,-1.7956,-1.7997,-1.7996,-1.8131,-1.8321,-1.8579,-1.8701,-1.8875,-1.8952,-1.9264,-1.9447,-1.9501,-1.9596,-1.9718,-1.9718,-1.9725,-1.9718,-1.9739,-1.9793,-1.9943,-1.9936,-2.0071,-2.022,-2.03,-2.0383,-2.0361,-2.0519,-2.0322,-2.0349,-1.984,-1.9382,-1.9058,-1.9064,-1.9,-1.9013,-1.9013,-1.8873,-1.8491,-1.8115,-1.7642,-1.5888,-1.2801,-1.1207,-1.0051,-0.8873,-0.7888,-0.6537,-0.5553,-0.4813,-0.4011,-0.4011,-0.3949,-0.3888,-0.3888,-0.3888,-0.3888,-0.3888,-0.3888,-0.3888,-0.3888,-0.3888,-0.3888,-2.1482,-2.1184,-2.0899,-2.0614,-2.0259,-2.0173,-2.0024,-1.9881,-1.9807,-1.9732,-1.9732,-1.9732,-1.9576,-1.938,-1.9406,-1.9318,-1.9217,-1.9298,-1.9203,-1.8979,-1.8966,-1.8898,-1.8827,-1.8813,-1.8807,-1.8728,-1.8773,-1.8647,-1.8518,-1.8396,-1.8321,-1.8328,-1.8335,-1.8321,-1.8314,-1.8294,-1.8233,-1.8097,-1.8043,-1.7989,-1.7867,-1.7895,-1.7779,-1.7656,-1.7914,-1.7982,-1.7949,-1.8058,-1.8016,-1.7922,-1.7936,-1.7929,-1.7936,-1.8009,-1.8138,-1.828,-1.8373,-1.8579,-1.8721,-1.8782,-1.8952,-1.9305,-1.9406,-1.9495,-1.9617,-1.9711,-1.9725,-1.9725,-1.9725,-1.9725,-1.9752,-1.982,-1.9949,-2.0078,-2.0227,-2.0376,-2.0505,-2.0505,-2.0462,-2.0539,-2.0539,-2.0476,-2.0412,-2.0412,-2.0285,-2.0285,-2.0349,-2.0285,-2.0158,-1.9776,-1.9465,-1.9223,-1.8554,-1.7289,-1.5321,-1.372,-1.2754,-1.153,-0.9757,-0.8325,-0.7029,-0.5799,-0.4938,-0.4196,-0.4134,-0.4073,-0.3949,-0.3888,-0.3888,-0.3888,-0.3888,-0.3888,-0.3888,-0.3888,-0.3888,-2.2525,-2.1853,-2.1195,-2.0797,-2.0594,-2.0349,-2.0159,-2.001,-1.9922,-1.98,-1.9793,-1.9861,-1.982,-1.9854,-1.9759,-1.9522,-1.9217,-1.9169,-1.9088,-1.8979,-1.8891,-1.8875,-1.8827,-1.882,-1.882,-1.882,-1.882,-1.8793,-1.8687,-1.862,-1.8552,-1.8464,-1.8457,-1.8416,-1.8321,-1.8226,-1.8145,-1.8091,-1.8002,-1.7976,-1.7942,-1.7955,-1.7982,-1.7935,-1.7935,-1.7976,-1.7922,-1.8009,-1.8063,-1.8009,-1.8104,-1.8158,-1.8158,-1.8206,-1.8301,-1.845,-1.8593,-1.8749,-1.8905,-1.9088,-1.925,-1.9406,-1.9529,-1.9596,-1.9711,-1.9725,-1.9725,-1.9725,-1.9725,-1.9752,-1.9868,-1.9929,-2.0078,-2.0234,-2.0376,-2.0478,-2.0462,-2.0539,-2.0539,-2.0539,-2.0539,-2.0539,-2.0539,-2.0539,-2.0539,-2.0539,-2.0539,-2.0539,-2.0476,-2.0285,-2.0101,-2.0068,-1.9752,-1.9113,-1.8103,-1.612,-1.4531,-1.3185,-1.1667,-1.0237,-0.8872,-0.7383,-0.6331,-0.5863,-0.5368,-0.4628,-0.4628,-0.4134,-0.4073,-0.3888,-0.3888,-0.3888,-0.3888,-0.3888,-0.3888,-2.3244,-2.258,-2.1973,-2.1559,-2.1377,-2.1083,-2.0741,-2.0402,-2.0244,-2.0093,-1.9882,-1.9854,-1.9929,-2.0003,-1.9922,-1.9725,-1.9413,-1.923,-1.9081,-1.8986,-1.8884,-1.8868,-1.8827,-1.882,-1.882,-1.882,-1.882,-1.882,-1.882,-1.882,-1.8701,-1.8606,-1.8606,-1.8538,-1.8389,-1.8287,-1.8219,-1.8158,-1.8063,-1.8009,-1.8016,-1.8063,-1.8091,-1.807,-1.7997,-1.7942,-1.7935,-1.8036,-1.8063,-1.8043,-1.8118,-1.8192,-1.824,-1.8342,-1.8457,-1.8599,-1.8749,-1.8925,-1.9115,-1.9318,-1.9387,-1.9501,-1.9596,-1.9725,-1.9725,-1.9725,-1.9725,-1.9725,-1.9773,-1.9848,-1.9936,-2.0085,-2.0214,-2.0329,-2.0458,-2.0539,-2.0539,-2.0539,-2.0539,-2.0539,-2.0539,-2.0539,-2.0539,-2.0539,-2.0539,-2.0539,-2.0539,-2.0539,-2.0539,-2.0539,-2.0539,-2.0462,-2.0291,-1.9889,-1.9082,-1.766,-1.6159,-1.4846,-1.3743,-1.2303,-1.0853,-0.9294,-0.8148,-0.7543,-0.6721,-0.5799,-0.5059,-0.4566,-0.4258,-0.4011,-0.3888,-0.3888,-0.3888,-0.3888,-0.3888,-2.3605,-2.3314,-2.3136,-2.2857,-2.2616,-2.2305,-2.1811,-2.1161,-2.0997,-2.0563,-2.0105,-1.9943,-2.0011,-1.995,-1.9936,-1.9909,-1.9766,-1.9508,-1.925,-1.9027,-1.8986,-1.8956,-1.8827,-1.882,-1.882,-1.882,-1.882,-1.882,-1.882,-1.882,-1.8807,-1.8807,-1.88,-1.8667,-1.8531,-1.8504,-1.8437,-1.8342,-1.8287,-1.8287,-1.8294,-1.8179,-1.8111,-1.8091,-1.7975,-1.7962,-1.8084,-1.8084,-1.8009,-1.7949,-1.7942,-1.7941,-1.8145,-1.8382,-1.8599,-1.8755,-1.8911,-1.9128,-1.9366,-1.9367,-1.9522,-1.961,-1.9657,-1.9725,-1.9725,-1.9725,-1.9732,-1.9766,-1.9793,-1.9929,-2.0085,-2.022,-2.0259,-2.0286,-2.0471,-2.0532,-2.0539,-2.0539,-2.0539,-2.0539,-2.0539,-2.0539,-2.0539,-2.0539,-2.0539,-2.0539,-2.0539,-2.0539,-2.0469,-2.0455,-2.0526,-2.0499,-2.0327,-2.0031,-1.9614,-1.9068,-1.783,-1.6614,-1.5665,-1.4462,-1.3094,-1.1638,-1.059,-0.9849,-0.8448,-0.7463,-0.6044,-0.5489,-0.4751,-0.4504,-0.4258,-0.4011,-0.3888,-0.3888,-0.3888,-2.4402,-2.4114,-2.3375,-2.3046,-2.2949,-2.2636,-2.2279,-2.1999,-2.1829,-2.1544,-2.1182,-2.0706,-2.0607,-2.0511,-2.0072,-1.9841,-1.9841,-1.9569,-1.9325,-1.9149,-1.9047,-1.8918,-1.8854,-1.882,-1.882,-1.882,-1.882,-1.882,-1.882,-1.882,-1.882,-1.882,-1.882,-1.8742,-1.8694,-1.8586,-1.844,-1.8407,-1.8369,-1.8321,-1.8321,-1.8274,-1.8247,-1.824,-1.8199,-1.8206,-1.8233,-1.805,-1.7976,-1.7929,-1.7922,-1.8038,-1.824,-1.8531,-1.8755,-1.8918,-1.9162,-1.9318,-1.942,-1.9529,-1.9603,-1.9711,-1.9725,-1.9725,-1.9725,-1.9725,-1.9712,-1.9786,-1.9854,-1.9969,-2.02,-2.0295,-2.0307,-2.0401,-2.0455,-2.0539,-2.0539,-2.0539,-2.0539,-2.0539,-2.0539,-2.0539,-2.0539,-2.0539,-2.0539,-2.0539,-2.0539,-2.0539,-2.0469,-2.0401,-2.0334,-2.032,-2.0212,-2.0165,-1.9914,-1.969,-1.9069,-1.8109,-1.7229,-1.6441,-1.5185,-1.4192,-1.3125,-1.1869,-1.0456,-0.9014,-0.7591,-0.6541,-0.599,-0.5186,-0.4878,-0.4506,-0.4073,-0.3949,-0.4073,-2.5163,-2.4916,-2.4186,-2.3852,-2.3806,-2.3475,-2.311,-2.2761,-2.2524,-2.2234,-2.1785,-2.1031,-2.0789,-2.0805,-2.0072,-1.9773,-1.9834,-1.959,-1.9434,-1.9298,-1.9203,-1.9074,-1.8945,-1.8925,-1.8891,-1.8909,-1.8843,-1.8875,-1.882,-1.882,-1.8847,-1.8837,-1.885,-1.8877,-1.8905,-1.8782,-1.8701,-1.8681,-1.8565,-1.8484,-1.847,-1.843,-1.8396,-1.8389,-1.8348,-1.8321,-1.8301,-1.8131,-1.803,-1.8057,-1.8187,-1.8294,-1.8491,-1.8762,-1.8993,-1.9156,-1.9312,-1.9387,-1.9515,-1.9671,-1.9725,-1.9725,-1.9725,-1.9752,-1.9786,-1.98,-1.9807,-1.9929,-2.0017,-2.0126,-2.0288,-2.032,-2.0381,-2.0462,-2.0476,-2.0539,-2.0539,-2.0539,-2.0539,-2.0539,-2.0539,-2.0539,-2.0539,-2.0539,-2.0539,-2.0539,-2.0539,-2.0539,-2.0512,-2.0417,-2.0356,-2.0226,-2.0151,-2.02,-2.0234,-2.0163,-2.0104,-1.9493,-1.8754,-1.8004,-1.7063,-1.6384,-1.5561,-1.4015,-1.2567,-1.1137,-0.9703,-0.8683,-0.7935,-0.6871,-0.5877,-0.5246,-0.4874,-0.4443,-0.4383,-2.5826,-2.564,-2.5226,-2.5015,-2.4967,-2.4627,-2.407,-2.3536,-2.3239,-2.2758,-2.2037,-2.1232,-2.0797,-2.0739,-2.0071,-1.9705,-1.9657,-1.9718,-1.9569,-1.9481,-1.9434,-1.9366,-1.921,-1.9162,-1.9088,-1.9013,-1.9,-1.8932,-1.8902,-1.8895,-1.8915,-1.8986,-1.9006,-1.9061,-1.9115,-1.9054,-1.8986,-1.8959,-1.8837,-1.8755,-1.8749,-1.862,-1.8559,-1.8565,-1.847,-1.8423,-1.845,-1.843,-1.8375,-1.8369,-1.8565,-1.8779,-1.8816,-1.9054,-1.9271,-1.9386,-1.9434,-1.9535,-1.9691,-1.9752,-1.9773,-1.9732,-1.98,-1.9732,-1.9922,-1.9895,-1.9949,-2.0098,-2.0214,-2.0253,-2.0307,-2.0381,-2.0455,-2.0469,-2.0539,-2.0539,-2.0539,-2.0539,-2.0539,-2.0539,-2.0539,-2.0539,-2.0539,-2.0539,-2.0539,-2.0539,-2.0539,-2.0469,-2.0408,-2.032,-2.0259,-2.022,-2.0085,-2.0112,-2.0126,-2.0207,-2.0163,-2.0065,-1.9584,-1.9235,-1.8673,-1.8119,-1.7469,-1.5967,-1.4719,-1.3281,-1.2083,-1.1109,-0.9847,-0.8728,-0.7646,-0.6557,-0.5999,-0.5827,-0.5328,-2.5835,-2.564,-2.529,-2.508,-2.5023,-2.4746,-2.4505,-2.4251,-2.402,-2.3711,-2.3236,-2.2145,-2.1473,-2.1366,-2.0095,-1.9549,-1.9691,-1.9725,-1.9711,-1.9624,-1.9719,-1.9603,-1.9386,-1.9257,-1.9189,-1.9149,-1.9149,-1.9128,-1.9088,-1.9067,-1.9094,-1.9142,-1.9149,-1.9162,-1.9189,-1.9169,-1.9149,-1.9128,-1.9,-1.8925,-1.8905,-1.8782,-1.8762,-1.8857,-1.8823,-1.8857,-1.8952,-1.8966,-1.8796,-1.8518,-1.8769,-1.8925,-1.8952,-1.9203,-1.9386,-1.944,-1.9549,-1.9664,-1.9773,-1.9875,-1.9929,-1.9969,-1.9956,-2.0003,-2.0031,-2.0044,-2.0119,-2.0234,-2.0315,-2.0313,-2.0401,-2.0449,-2.0539,-2.0539,-2.0539,-2.0539,-2.0539,-2.0539,-2.0539,-2.0539,-2.0539,-2.0539,-2.0539,-2.0539,-2.0539,-2.0539,-2.0469,-2.0449,-2.0374,-2.0282,-2.0193,-2.0003,-1.9895,-1.9963,-2.0024,-2.0105,-2.0241,-2.0395,-2.0258,-2.0131,-1.9692,-1.9247,-1.8567,-1.7557,-1.6727,-1.5467,-1.4587,-1.3621,-1.2178,-1.0798,-0.9898,-0.9051,-0.8323,-0.7902,-0.7246,-2.577,-2.5648,-2.529,-2.508,-2.5031,-2.4746,-2.4592,-2.456,-2.4405,-2.4235,-2.3801,-2.2512,-2.1855,-2.159,-2.0209,-1.9535,-1.9569,-1.963,-1.9725,-1.9685,-1.9861,-1.9732,-1.9549,-1.9427,-1.9366,-1.9298,-1.9298,-1.9257,-1.9203,-1.9203,-1.923,-1.9284,-1.9298,-1.9325,-1.9406,-1.9325,-1.9298,-1.9264,-1.9108,-1.9013,-1.9061,-1.8932,-1.8952,-1.9047,-1.9081,-1.9128,-1.9189,-1.9196,-1.904,-1.8843,-1.8945,-1.9081,-1.9101,-1.9298,-1.9461,-1.9522,-1.9671,-1.9854,-1.9861,-1.9929,-2.0003,-2.0078,-2.0098,-2.0139,-2.018,-2.02,-2.0261,-2.0397,-2.0417,-2.0401,-2.0512,-2.0539,-2.0539,-2.0539,-2.0539,-2.0539,-2.0539,-2.0539,-2.0539,-2.0539,-2.0539,-2.0539,-2.0539,-2.0539,-2.0539,-2.0539,-2.0539,-2.0435,-2.0374,-2.0234,-2.0071,-1.9956,-1.9861,-1.9922,-2.0037,-2.0126,-2.0227,-2.0368,-2.0469,-2.0476,-2.0308,-1.9995,-1.9481,-1.8755,-1.8335,-1.7753,-1.6698,-1.5755,-1.4729,-1.352,-1.2496,-1.147,-1.0594,-1.0237,-0.9509,-2.5672,-2.5648,-2.5226,-2.508,-2.5023,-2.4754,-2.4592,-2.456,-2.4446,-2.4275,-2.3849,-2.2551,-2.1863,-2.1562,-2.0272,-1.959,-1.9481,-1.9644,-1.9745,-1.9732,-1.98,-1.978,-1.9711,-1.9677,-1.9549,-1.9468,-1.9454,-1.9393,-1.9325,-1.9284,-1.9332,-1.9427,-1.9454,-1.9522,-1.9569,-1.9508,-1.9461,-1.9406,-1.921,-1.9115,-1.9156,-1.9074,-1.9074,-1.9156,-1.9264,-1.9278,-1.9291,-1.9271,-1.9189,-1.904,-1.9162,-1.9217,-1.9244,-1.9373,-1.9529,-1.9664,-1.9786,-1.9936,-1.9942,-2.0071,-2.0139,-2.0173,-2.018,-2.02,-2.0315,-2.0286,-2.0397,-2.0505,-2.0532,-2.0469,-2.0469,-2.0539,-2.0539,-2.0539,-2.0539,-2.0539,-2.0539,-2.0539,-2.0539,-2.0539,-2.0539,-2.0539,-2.0539,-2.0539,-2.0539,-2.0539,-2.0532,-2.0428,-2.0361,-2.0288,-2.0159,-2.0071,-1.999,-1.9922,-2.0044,-2.0166,-2.0275,-2.041,-2.0442,-2.0532,-2.0455,-2.0232,-2.0028,-1.9672,-1.9298,-1.8925,-1.8405,-1.7564,-1.6747,-1.6029,-1.4871,-1.3682,-1.2639,-1.2618,-1.2168,-2.5672,-2.5648,-2.529,-2.508,-2.5015,-2.4754,-2.4592,-2.4584,-2.4551,-2.4421,-2.3948,-2.2719,-2.199,-2.1764,-2.0382,-1.9637,-1.9617,-1.9732,-1.9888,-1.9895,-1.9847,-1.9793,-1.9752,-1.9725,-1.9705,-1.9664,-1.961,-1.959,-1.9616,-1.9529,-1.9637,-1.9603,-1.961,-1.9691,-1.9711,-1.9705,-1.9671,-1.9576,-1.9413,-1.9278,-1.9223,-1.9196,-1.9176,-1.9244,-1.9427,-1.9609,-1.9563,-1.9563,-1.9488,-1.9386,-1.9352,-1.9359,-1.9393,-1.9515,-1.9664,-1.9786,-1.9922,-1.9983,-2.018,-2.0254,-2.0266,-2.0404,-2.041,-2.0395,-2.0478,-2.0422,-2.0505,-2.0539,-2.0539,-2.0539,-2.0539,-2.0539,-2.0539,-2.0539,-2.0539,-2.0539,-2.0539,-2.0539,-2.0539,-2.0539,-2.0539,-2.0539,-2.0539,-2.0539,-2.0539,-2.0539,-2.0519,-2.0485,-2.0347,-2.0259,-2.0241,-2.0153,-2.0119,-2.0064,-2.0153,-2.0261,-2.0356,-2.0431,-2.0499,-2.0539,-2.0462,-2.0455,-2.0252,-2.0258,-2.0258,-1.9834,-1.9325,-1.9197,-1.8424,-1.7789,-1.7212,-1.6215,-1.5423,-1.5258,-1.4799,-2.5623,-2.5518,-2.5193,-2.5096,-2.4974,-2.4722,-2.4592,-2.4592,-2.4592,-2.4495,-2.4012,-2.2718,-2.2049,-2.1762,-2.0396,-1.9725,-1.9739,-1.9793,-1.9834,-1.9827,-1.9834,-1.9793,-1.9745,-1.9725,-1.9725,-1.9725,-1.9725,-1.9725,-1.9725,-1.9732,-1.9745,-1.982,-1.9814,-1.982,-1.982,-1.9814,-1.978,-1.9637,-1.9515,-1.9413,-1.9413,-1.9345,-1.9359,-1.9413,-1.9637,-1.9725,-1.9718,-1.9576,-1.9508,-1.9454,-1.9434,-1.9434,-1.9454,-1.9576,-1.9725,-1.9854,-2.0031,-2.0132,-2.0302,-2.0397,-2.0458,-2.0469,-2.0539,-2.0539,-2.0539,-2.0539,-2.0539,-2.0539,-2.0539,-2.0539,-2.0539,-2.0539,-2.0539,-2.0539,-2.0539,-2.0539,-2.0539,-2.0539,-2.0539,-2.0539,-2.0539,-2.0539,-2.0539,-2.0539,-2.0539,-2.0539,-2.0539,-2.0512,-2.0478,-2.039,-2.0253,-2.0248,-2.0227,-2.0234,-2.0295,-2.0376,-2.0444,-2.0492,-2.0519,-2.0539,-2.0469,-2.0532,-2.0469,-2.0476,-2.0469,-2.0412,-1.9967,-1.9974,-1.9719,-1.8994,-1.8409,-1.8242,-1.7918,-1.7171,-1.6836,-2.5575,-2.5388,-2.5153,-2.5039,-2.4916,-2.4673,-2.4592,-2.4592,-2.4592,-2.4456,-2.3981,-2.2734,-2.201,-2.1493,-2.0342,-1.9732,-1.9725,-1.9725,-1.9752,-1.9752,-1.9752,-1.9739,-1.9725,-1.9725,-1.9725,-1.9725,-1.9725,-1.9725,-1.9725,-1.9732,-1.9766,-1.9868,-1.9827,-1.9813,-1.9854,-1.9834,-1.978,-1.9698,-1.9569,-1.9495,-1.9563,-1.9495,-1.9529,-1.9664,-1.9705,-1.9725,-1.9705,-1.9569,-1.9481,-1.9461,-1.9481,-1.9495,-1.9529,-1.961,-1.978,-1.9936,-2.018,-2.0239,-2.0383,-2.0401,-2.0526,-2.0539,-2.0539,-2.0539,-2.0539,-2.0539,-2.0539,-2.0539,-2.0539,-2.0539,-2.0539,-2.0539,-2.0539,-2.0539,-2.0539,-2.0539,-2.0539,-2.0539,-2.0539,-2.0539,-2.0539,-2.0539,-2.0539,-2.0539,-2.0539,-2.0539,-2.0539,-2.0532,-2.0499,-2.0471,-2.0397,-2.0307,-2.0363,-2.0356,-2.041,-2.0431,-2.0505,-2.0519,-2.0539,-2.0539,-2.0539,-2.0539,-2.0539,-2.0539,-2.0476,-2.0412,-2.0412,-2.0285,-2.0031,-1.9719,-1.9528,-1.9331,-1.9076,-1.8822,-1.8618,-2.5567,-2.5388,-2.5153,-2.5039,-2.4852,-2.4673,-2.4592,-2.4592,-2.4592,-2.426,-2.3622,-2.2593,-2.1829,-2.1102,-2.0194,-1.9732,-1.9732,-1.9725,-1.9725,-1.9725,-1.9725,-1.9725,-1.9725,-1.9725,-1.9725,-1.9725,-1.9725,-1.9725,-1.9725,-1.9732,-1.9759,-1.9766,-1.9719,-1.9766,-1.9834,-1.9841,-1.9861,-1.982,-1.9712,-1.963,-1.9563,-1.9583,-1.961,-1.9725,-1.9725,-1.9725,-1.9725,-1.9698,-1.9624,-1.963,-1.9793,-1.978,-1.9807,-1.9834,-1.9976,-2.0173,-2.0288,-2.0327,-2.0408,-2.0512,-2.0539,-2.0539,-2.0539,-2.0539,-2.0539,-2.0539,-2.0539,-2.0539,-2.0539,-2.0539,-2.0539,-2.0539,-2.0539,-2.0539,-2.0539,-2.0539,-2.0539,-2.0539,-2.0539,-2.0539,-2.0539,-2.0539,-2.0539,-2.0539,-2.0539,-2.0539,-2.0539,-2.0539,-2.0526,-2.0519,-2.0499,-2.0499,-2.0512,-2.0505,-2.0519,-2.0512,-2.0532,-2.0532,-2.0539,-2.0539,-2.0539,-2.0539,-2.0539,-2.0539,-2.0539,-2.0476,-2.0476,-2.0539,-2.0412,-2.0094,-2.0158,-2.0222,-1.9967,-1.9586,-1.9586,-2.5518,-2.5266,-2.5177,-2.4982,-2.4738,-2.4633,-2.4592,-2.4592,-2.4592,-2.4403,-2.3826,-2.2887,-2.2035,-2.1359,-2.0312,-1.98,-1.9739,-1.9725,-1.9725,-1.9725,-1.9725,-1.9725,-1.9725,-1.9725,-1.9725,-1.9725,-1.9725,-1.9725,-1.9725,-1.9725,-1.9698,-1.9827,-1.9773,-1.9847,-1.9949,-1.9942,-1.9922,-1.9956,-1.9908,-1.9807,-1.9657,-1.9685,-1.9725,-1.9732,-1.9732,-1.9725,-1.9725,-1.9725,-1.9766,-1.9827,-1.9834,-1.9949,-2.0051,-2.0119,-2.0166,-2.0315,-2.0334,-2.0395,-2.0462,-2.0539,-2.0539,-2.0539,-2.0539,-2.0539,-2.0539,-2.0539,-2.0539,-2.0539,-2.0539,-2.0539,-2.0539,-2.0539,-2.0539,-2.0539,-2.0539,-2.0539,-2.0539,-2.0539,-2.0539,-2.0539,-2.0539,-2.0539,-2.0539,-2.0539,-2.0539,-2.0539,-2.0539,-2.0539,-2.0539,-2.0539,-2.0539,-2.0449,-2.0449,-2.0442,-2.0442,-2.0442,-2.0532,-2.0539,-2.0539,-2.0539,-2.0539,-2.0539,-2.0539,-2.0539,-2.0539,-2.0539,-2.0539,-2.0539,-2.0539,-2.0539,-2.0412,-2.0412,-2.0476,-2.0412,-2.0222,-2.5429,-2.508,-2.5104,-2.4892,-2.4624,-2.4592,-2.4592,-2.4592,-2.4592,-2.4466,-2.4252,-2.3159,-2.2381,-2.1673,-2.0635,-1.9854,-1.9732,-1.9725,-1.9725,-1.9725,-1.9725,-1.9725,-1.9725,-1.9725,-1.9725,-1.9725,-1.9725,-1.9725,-1.9725,-1.9725,-1.9725,-1.9766,-1.982,-1.9902,-1.9997,-1.9942,-2.0037,-2.0092,-2.0058,-1.999,-1.9908,-1.9813,-1.9752,-1.9752,-1.9746,-1.9827,-1.9786,-1.9848,-1.9895,-1.9908,-1.9983,-2.0078,-2.0219,-2.0293,-2.0307,-2.039,-2.0422,-2.0462,-2.0539,-2.0539,-2.0539,-2.0539,-2.0539,-2.0539,-2.0539,-2.0539,-2.0539,-2.0539,-2.0539,-2.0539,-2.0539,-2.0539,-2.0539,-2.0539,-2.0539,-2.0539,-2.0539,-2.0539,-2.0539,-2.0539,-2.0539,-2.0539,-2.0539,-2.0539,-2.0539,-2.0539,-2.0539,-2.0539,-2.0539,-2.0539,-2.0462,-2.0428,-2.0408,-2.0408,-2.0401,-2.0388,-2.0428,-2.0539,-2.0539,-2.0539,-2.0539,-2.0539,-2.0539,-2.0539,-2.0539,-2.0539,-2.0539,-2.0539,-2.0539,-2.0539,-2.0539,-2.0539,-2.0539,-2.0539,-2.0412,-2.5323,-2.5064,-2.4974,-2.4779,-2.4608,-2.4592,-2.4592,-2.4592,-2.4592,-2.4276,-2.389,-2.3363,-2.2581,-2.1415,-2.0429,-1.9868,-1.978,-1.9766,-1.978,-1.9786,-1.9759,-1.9759,-1.9745,-1.9725,-1.9752,-1.9752,-1.9745,-1.9725,-1.9725,-1.9725,-1.9732,-1.9766,-1.978,-1.9766,-1.9908,-1.9854,-1.9854,-2.0031,-1.9976,-1.9969,-2.0051,-2.0044,-2.0024,-2.0024,-2.0017,-2.001,-1.999,-1.999,-2.0031,-2.0071,-2.02,-2.0282,-2.0286,-2.0395,-2.0442,-2.0455,-2.0532,-2.0539,-2.0539,-2.0539,-2.0539,-2.0539,-2.0539,-2.0539,-2.0539,-2.0539,-2.0539,-2.0539,-2.0539,-2.0539,-2.0539,-2.0539,-2.0539,-2.0539,-2.0539,-2.0539,-2.0539,-2.0539,-2.0539,-2.0539,-2.0539,-2.0539,-2.0539,-2.0539,-2.0539,-2.0539,-2.0539,-2.0539,-2.0539,-2.0539,-2.0462,-2.0428,-2.0408,-2.0408,-2.0415,-2.0395,-2.0415,-2.0532,-2.0539,-2.0539,-2.0539,-2.0539,-2.0539,-2.0539,-2.0539,-2.0539,-2.0539,-2.0539,-2.0539,-2.0539,-2.0539,-2.0539,-2.0539,-2.0539,-2.0539,-2.5145,-2.5064,-2.4949,-2.4763,-2.46,-2.4592,-2.4592,-2.4592,-2.4592,-2.4466,-2.4079,-2.3708,-2.2672,-2.1354,-2.0395,-1.9976,-1.9915,-1.9902,-1.9908,-1.9868,-1.9834,-1.9827,-1.9881,-1.9827,-1.978,-1.9834,-1.9827,-1.9786,-1.9759,-1.9725,-1.9725,-1.9725,-1.9732,-1.9739,-1.9847,-1.9868,-1.9915,-2.0024,-2.0051,-2.0085,-2.0166,-2.0153,-2.0105,-2.0105,-2.0112,-2.0112,-2.0112,-2.0098,-2.0153,-2.0207,-2.0309,-2.0313,-2.0438,-2.0442,-2.0476,-2.0476,-2.0539,-2.0539,-2.0539,-2.0539,-2.0539,-2.0539,-2.0539,-2.0539,-2.0539,-2.0539,-2.0539,-2.0539,-2.0539,-2.0539,-2.0539,-2.0539,-2.0539,-2.0539,-2.0539,-2.0539,-2.0539,-2.0539,-2.0539,-2.0539,-2.0539,-2.0539,-2.0539,-2.0539,-2.0539,-2.0539,-2.0539,-2.0539,-2.0539,-2.0539,-2.0462,-2.0435,-2.0428,-2.0422,-2.0435,-2.0435,-2.0435,-2.0469,-2.0539,-2.0539,-2.0539,-2.0539,-2.0539,-2.0539,-2.0539,-2.0539,-2.0539,-2.0539,-2.0539,-2.0539,-2.0539,-2.0539,-2.0539,-2.0539,-2.0539,-2.508,-2.5055,-2.4901,-2.4722,-2.46,-2.4592,-2.4592,-2.4592,-2.4592,-2.4592,-2.434,-2.3692,-2.2598,-2.1585,-2.0644,-2.0132,-2.0085,-2.0098,-2.0098,-2.0058,-2.001,-2.0003,-1.9997,-1.9942,-1.9861,-1.9875,-1.9793,-1.9807,-1.9752,-1.9725,-1.9725,-1.9725,-1.9725,-1.9773,-1.9786,-1.9868,-1.9929,-2.0003,-2.0119,-2.0207,-2.0226,-2.0261,-2.0234,-2.022,-2.0207,-2.0207,-2.0207,-2.022,-2.0295,-2.0349,-2.039,-2.0381,-2.0449,-2.0532,-2.0539,-2.0539,-2.0539,-2.0539,-2.0539,-2.0539,-2.0539,-2.0539,-2.0539,-2.0539,-2.0539,-2.0539,-2.0539,-2.0539,-2.0539,-2.0539,-2.0539,-2.0539,-2.0539,-2.0539,-2.0539,-2.0539,-2.0539,-2.0539,-2.0539,-2.0539,-2.0539,-2.0539,-2.0539,-2.0539,-2.0539,-2.0539,-2.0539,-2.0539,-2.0539,-2.0539,-2.0435,-2.0408,-2.0381,-2.0374,-2.0388,-2.0408,-2.0435,-2.0469,-2.0476,-2.0539,-2.0539,-2.0539,-2.0539,-2.0539,-2.0539,-2.0539,-2.0539,-2.0539,-2.0539,-2.0539,-2.0539,-2.0539,-2.0539,-2.0539,-2.0539,-2.508,-2.5047,-2.4763,-2.4616,-2.4592,-2.4592,-2.4592,-2.4592,-2.4592,-2.4592,-2.4403,-2.3384,-2.2676,-2.2061,-2.1013,-2.031,-2.0119,-2.0105,-2.0139,-2.0132,-2.0092,-2.0112,-2.0098,-2.0024,-1.9908,-1.9895,-1.9868,-1.9841,-1.9745,-1.98,-1.9766,-1.9725,-1.9773,-1.9745,-1.9766,-1.9759,-1.982,-1.9969,-2.0119,-2.0254,-2.0343,-2.039,-2.0395,-2.0478,-2.0492,-2.0505,-2.0505,-2.0408,-2.0401,-2.0435,-2.0492,-2.0499,-2.0469,-2.0449,-2.0442,-2.0476,-2.0512,-2.0455,-2.0469,-2.0539,-2.0532,-2.0539,-2.0476,-2.0462,-2.0505,-2.0532,-2.0539,-2.0539,-2.0539,-2.0539,-2.0539,-2.0539,-2.0539,-2.0539,-2.0539,-2.0539,-2.0539,-2.0539,-2.0539,-2.0539,-2.0539,-2.0539,-2.0539,-2.0539,-2.0539,-2.0539,-2.0539,-2.0539,-2.0539,-2.0532,-2.0408,-2.0368,-2.0327,-2.037,-2.0363,-2.0397,-2.0415,-2.0455,-2.0476,-2.0539,-2.0539,-2.0539,-2.0539,-2.0539,-2.0539,-2.0539,-2.0539,-2.0539,-2.0539,-2.0539,-2.0539,-2.0539,-2.0539,-2.0539,-2.0539,-2.5079,-2.4949,-2.4698,-2.4592,-2.4592,-2.4592,-2.4592,-2.4592,-2.4592,-2.4592,-2.4529,-2.3637,-2.2974,-2.2361,-2.1596,-2.081,-2.044,-2.0376,-2.0363,-2.0336,-2.0302,-2.0302,-2.0275,-2.0227,-2.0159,-2.0126,-2.0078,-2.0003,-1.9949,-1.9902,-1.9929,-1.9915,-1.9902,-1.98,-1.9793,-1.98,-1.9875,-1.9956,-2.0051,-2.0119,-2.0329,-2.0376,-2.0388,-2.0539,-2.0539,-2.0539,-2.0532,-2.0532,-2.0539,-2.0532,-2.0526,-2.0512,-2.0499,-2.0388,-2.0401,-2.0449,-2.0471,-2.0415,-2.0462,-2.0469,-2.0442,-2.0438,-2.0415,-2.0449,-2.0465,-2.0428,-2.0469,-2.0539,-2.0539,-2.0539,-2.0539,-2.0539,-2.0539,-2.0539,-2.0539,-2.0539,-2.0539,-2.0539,-2.0539,-2.0539,-2.0539,-2.0539,-2.0539,-2.0539,-2.0539,-2.0539,-2.0539,-2.0539,-2.0539,-2.0539,-2.0422,-2.0401,-2.0368,-2.0431,-2.0431,-2.0451,-2.0478,-2.0505,-2.0539,-2.0539,-2.0539,-2.0539,-2.0539,-2.0539,-2.0539,-2.0539,-2.0539,-2.0539,-2.0539,-2.0539,-2.0539,-2.0539,-2.0539,-2.0539,-2.0539,-2.5039,-2.4852,-2.4673,-2.4592,-2.4592,-2.4592,-2.4592,-2.4592,-2.4592,-2.4592,-2.4529,-2.3897,-2.3202,-2.2569,-2.1872,-2.1167,-2.0639,-2.0519,-2.0526,-2.0428,-2.0381,-2.0395,-2.0401,-2.034,-2.0288,-2.0322,-2.0261,-2.0166,-2.0071,-2.0092,-2.0071,-2.0051,-2.0044,-2.0003,-1.9942,-1.9949,-1.9983,-1.999,-2.0017,-1.9976,-2.0193,-2.0241,-2.0288,-2.0383,-2.0376,-2.0376,-2.037,-2.037,-2.0376,-2.0376,-2.0383,-2.0334,-2.0383,-2.0376,-2.0327,-2.0417,-2.0444,-2.0381,-2.0442,-2.0462,-2.0435,-2.0395,-2.0422,-2.0415,-2.0451,-2.0422,-2.0469,-2.0539,-2.0539,-2.0539,-2.0539,-2.0539,-2.0539,-2.0539,-2.0539,-2.0539,-2.0539,-2.0539,-2.0539,-2.0539,-2.0539,-2.0539,-2.0539,-2.0539,-2.0539,-2.0539,-2.0539,-2.0539,-2.0539,-2.0539,-2.0532,-2.0455,-2.0449,-2.0519,-2.0532,-2.0519,-2.0505,-2.0512,-2.0539,-2.0539,-2.0539,-2.0539,-2.0539,-2.0539,-2.0539,-2.0539,-2.0539,-2.0539,-2.0539,-2.0539,-2.0539,-2.0539,-2.0539,-2.0539,-2.0539,-2.5031,-2.4916,-2.4665,-2.4592,-2.4592,-2.4592,-2.4592,-2.4592,-2.4592,-2.4592,-2.4529,-2.3961,-2.3329,-2.2632,-2.2062,-2.1365,-2.0793,-2.0539,-2.0539,-2.0462,-2.0449,-2.0462,-2.0428,-2.0361,-2.0313,-2.0302,-2.0268,-2.0214,-2.0139,-2.018,-2.0159,-2.0187,-2.0234,-2.0234,-2.0112,-2.0098,-2.0031,-1.9929,-2.0044,-2.0017,-2.001,-2.0092,-2.0153,-2.0173,-2.0187,-2.02,-2.02,-2.02,-2.02,-2.02,-2.0193,-2.02,-2.0214,-2.0282,-2.0322,-2.037,-2.0465,-2.0449,-2.0539,-2.0539,-2.0455,-2.0428,-2.0435,-2.0442,-2.0519,-2.0532,-2.0539,-2.0539,-2.0539,-2.0539,-2.0539,-2.0539,-2.0539,-2.0539,-2.0539,-2.0539,-2.0539,-2.0539,-2.0539,-2.0539,-2.0539,-2.0539,-2.0539,-2.0539,-2.0539,-2.0539,-2.0539,-2.0539,-2.0539,-2.0539,-2.0539,-2.0539,-2.0539,-2.0539,-2.0539,-2.0539,-2.0532,-2.0539,-2.0539,-2.0539,-2.0539,-2.0539,-2.0539,-2.0539,-2.0539,-2.0539,-2.0539,-2.0539,-2.0539,-2.0539,-2.0539,-2.0539,-2.0539,-2.0539,-2.0539,-2.4852,-2.4681,-2.4624,-2.4592,-2.4592,-2.4592,-2.4592,-2.4592,-2.4592,-2.4592,-2.4592,-2.434,-2.3897,-2.3202,-2.2569,-2.1872,-2.1238,-2.0603,-2.0539,-2.0539,-2.0539,-2.0476,-2.0449,-2.0428,-2.0395,-2.0458,-2.0397,-2.037,-2.0404,-2.0363,-2.0383,-2.0424,-2.0404,-2.0374,-2.0313,-2.0322,-2.0214,-2.0173,-2.0146,-2.0078,-2.0037,-2.0071,-2.0098,-2.0092,-2.0085,-2.0085,-2.0071,-2.0064,-2.0078,-2.0085,-2.0085,-2.0139,-2.018,-2.0261,-2.0282,-2.0313,-2.0415,-2.0451,-2.0505,-2.0469,-2.0422,-2.0408,-2.0428,-2.0435,-2.0368,-2.0499,-2.0526,-2.0539,-2.0539,-2.0539,-2.0539,-2.0539,-2.0539,-2.0539,-2.0539,-2.0539,-2.0539,-2.0539,-2.0539,-2.0539,-2.0539,-2.0539,-2.0539,-2.0539,-2.0539,-2.0539,-2.0539,-2.0539,-2.0539,-2.0539,-2.0539,-2.0539,-2.0539,-2.0539,-2.0539,-2.0539,-2.0539,-2.0539,-2.0539,-2.0539,-2.0539,-2.0539,-2.0539,-2.0539,-2.0539,-2.0539,-2.0539,-2.0539,-2.0539,-2.0539,-2.0539,-2.0539,-2.0539,-2.0539,-2.0539,-2.4819,-2.46,-2.4592,-2.4592,-2.4592,-2.4592,-2.4592,-2.4592,-2.4592,-2.4592,-2.4592,-2.4592,-2.4213,-2.3581,-2.3139,-2.2316,-2.1618,-2.1174,-2.0603,-2.0603,-2.0539,-2.0539,-2.0539,-2.0539,-2.0455,-2.0539,-2.0539,-2.0462,-2.0449,-2.0469,-2.0519,-2.0512,-2.0539,-2.0519,-2.0428,-2.0374,-2.03,-2.0302,-2.0227,-2.0159,-2.0112,-2.0092,-2.0071,-2.0031,-2.0003,-1.9997,-1.9976,-1.999,-2.0031,-2.0044,-2.0085,-2.0146,-2.02,-2.0248,-2.0268,-2.032,-2.0401,-2.0388,-2.0455,-2.0539,-2.0499,-2.0444,-2.0435,-2.0428,-2.0368,-2.0442,-2.0526,-2.0539,-2.0539,-2.0539,-2.0539,-2.0539,-2.0539,-2.0539,-2.0539,-2.0539,-2.0539,-2.0539,-2.0539,-2.0539,-2.0539,-2.0539,-2.0539,-2.0539,-2.0539,-2.0539,-2.0539,-2.0539,-2.0539,-2.0539,-2.0539,-2.0539,-2.0539,-2.0539,-2.0539,-2.0539,-2.0539,-2.0539,-2.0539,-2.0539,-2.0539,-2.0539,-2.0539,-2.0539,-2.0539,-2.0539,-2.0539,-2.0539,-2.0539,-2.0539,-2.0539,-2.0539,-2.0539,-2.0539,-2.0539,-2.4917,-2.4616,-2.4592,-2.4592,-2.4592,-2.4592,-2.4592,-2.4592,-2.4592,-2.4592,-2.4592,-2.4592,-2.4276,-2.3771,-2.3581,-2.2949,-2.1935,-2.1682,-2.1174,-2.073,-2.0603,-2.0539,-2.0539,-2.0539,-2.0539,-2.0539,-2.0539,-2.0539,-2.0539,-2.0539,-2.0539,-2.0539,-2.0539,-2.0539,-2.0462,-2.0449,-2.0388,-2.0383,-2.0349,-2.0268,-2.0187,-2.0139,-2.0078,-2.0017,-1.9956,-1.9908,-1.9888,-1.9895,-1.9922,-1.9963,-2.0037,-2.0092,-2.0159,-2.0254,-2.0302,-2.0313,-2.0415,-2.0449,-2.0469,-2.0476,-2.0532,-2.0499,-2.0526,-2.0469,-2.0469,-2.0462,-2.0469,-2.0539,-2.0539,-2.0539,-2.0539,-2.0539,-2.0539,-2.0539,-2.0539,-2.0539,-2.0539,-2.0539,-2.0539,-2.0539,-2.0539,-2.0539,-2.0539,-2.0539,-2.0539,-2.0539,-2.0539,-2.0539,-2.0539,-2.0539,-2.0539,-2.0539,-2.0539,-2.0539,-2.0539,-2.0539,-2.0539,-2.0539,-2.0539,-2.0539,-2.0539,-2.0539,-2.0539,-2.0539,-2.0539,-2.0539,-2.0539,-2.0539,-2.0539,-2.0539,-2.0539,-2.0539,-2.0539,-2.0539,-2.0539,-2.4689,-2.4592,-2.4592,-2.4592,-2.4592,-2.4592,-2.4592,-2.4592,-2.4592,-2.4592,-2.4592,-2.4592,-2.4466,-2.4276,-2.3834,-2.3392,-2.2759,-2.2126,-2.1626,-2.1174,-2.073,-2.0603,-2.0539,-2.0539,-2.0539,-2.0539,-2.0539,-2.0539,-2.0539,-2.0539,-2.0539,-2.0539,-2.0539,-2.0539,-2.0539,-2.0539,-2.0505,-2.0478,-2.0458,-2.0376,-2.0302,-2.0261,-2.0166,-2.0078,-2.0037,-1.999,-1.9976,-1.9997,-2.0031,-2.0058,-2.0085,-2.0139,-2.0275,-2.0315,-2.0349,-2.0408,-2.0462,-2.0476,-2.0539,-2.0539,-2.0539,-2.0539,-2.0539,-2.0539,-2.0476,-2.0539,-2.0539,-2.0539,-2.0539,-2.0539,-2.0539,-2.0539,-2.0539,-2.0539,-2.0539,-2.0539,-2.0539,-2.0539,-2.0539,-2.0539,-2.0539,-2.0539,-2.0539,-2.0539,-2.0539,-2.0539,-2.0539,-2.0539,-2.0539,-2.0539,-2.0539,-2.0539,-2.0539,-2.0539,-2.0539,-2.0539,-2.0539,-2.0539,-2.0539,-2.0539,-2.0539,-2.0539,-2.0539,-2.0539,-2.0539,-2.0539,-2.0539,-2.0539,-2.0539,-2.0539,-2.0539,-2.0539,-2.0539,-2.0539,-2.0539,-2.4657,-2.46,-2.4592,-2.4592,-2.4592,-2.4592,-2.4592,-2.4592,-2.4592,-2.4592,-2.4592,-2.4592,-2.4592,-2.4529,-2.415,-2.3834,-2.3455,-2.2569,-2.1872,-2.1365,-2.0857,-2.0603,-2.0539,-2.0539,-2.0539,-2.0539,-2.0539,-2.0539,-2.0539,-2.0539,-2.0539,-2.0539,-2.0539,-2.0539,-2.0539,-2.0539,-2.0539,-2.0532,-2.0519,-2.0485,-2.0438,-2.034,-2.0253,-2.0227,-2.0193,-2.0173,-2.0132,-2.0146,-2.0193,-2.0207,-2.022,-2.0309,-2.0347,-2.0417,-2.0368,-2.0462,-2.0469,-2.0539,-2.0539,-2.0539,-2.0539,-2.0539,-2.0539,-2.0539,-2.0539,-2.0539,-2.0539,-2.0539,-2.0539,-2.0539,-2.0539,-2.0539,-2.0539,-2.0539,-2.0539,-2.0539,-2.0539,-2.0539,-2.0539,-2.0539,-2.0539,-2.0539,-2.0539,-2.0539,-2.0539,-2.0539,-2.0539,-2.0539,-2.0539,-2.0539,-2.0539,-2.0539,-2.0539,-2.0539,-2.0539,-2.0539,-2.0539,-2.0539,-2.0539,-2.0539,-2.0539,-2.0539,-2.0539,-2.0539,-2.0539,-2.0539,-2.0539,-2.0539,-2.0539,-2.0539,-2.0539,-2.0539,-2.0539,-2.0539,-2.0539,-2.4746,-2.4592,-2.4592,-2.4592,-2.4592,-2.4592,-2.4592,-2.4592,-2.4592,-2.4592,-2.4592,-2.4592,-2.4592,-2.4592,-2.4466,-2.415,-2.3771,-2.3012,-2.2316,-2.1682,-2.1111,-2.073,-2.0539,-2.0539,-2.0539,-2.0539,-2.0539,-2.0539,-2.0539,-2.0539,-2.0539,-2.0539,-2.0539,-2.0539,-2.0539,-2.0539,-2.0539,-2.0539,-2.0539,-2.0519,-2.0526,-2.0449,-2.0422,-2.0307,-2.0329,-2.0302,-2.0227,-2.0254,-2.0349,-2.0327,-2.0374,-2.0449,-2.0455,-2.0455,-2.0469,-2.0469,-2.0476,-2.0539,-2.0539,-2.0539,-2.0539,-2.0539,-2.0539,-2.073,-2.0793,-2.0603,-2.0539,-2.0539,-2.0539,-2.0539,-2.0539,-2.0539,-2.0539,-2.073,-2.0857,-2.1047,-2.1238,-2.1047,-2.073,-2.0793,-2.0793,-2.0793,-2.092,-2.0984,-2.1365,-2.0984,-2.092,-2.092,-2.092,-2.092,-2.0666,-2.0666,-2.0539,-2.0539,-2.0539,-2.0539,-2.0539,-2.0539,-2.0539,-2.0539,-2.0539,-2.0539,-2.0539,-2.0539,-2.0539,-2.0539,-2.0539,-2.0539,-2.0539,-2.0539,-2.0539,-2.0539,-2.0539,-2.0539,-2.0539,-2.4633,-2.4592,-2.4592,-2.4592,-2.4592,-2.4592,-2.4592,-2.4592,-2.4592,-2.4592,-2.4592,-2.4592,-2.4592,-2.4592,-2.4592,-2.4403,-2.4213,-2.3518,-2.2949,-2.2316,-2.1682,-2.1047,-2.0603,-2.0666,-2.0539,-2.0539,-2.0539,-2.0539,-2.0539,-2.0539,-2.0539,-2.0539,-2.0539,-2.0539,-2.0539,-2.0539,-2.0539,-2.0539,-2.0539,-2.0539,-2.0539,-2.0539,-2.0449,-2.0422,-2.0465,-2.0458,-2.0417,-2.0444,-2.0485,-2.0449,-2.0455,-2.0532,-2.0539,-2.0539,-2.0539,-2.0539,-2.0539,-2.0603,-2.0666,-2.073,-2.0793,-2.0857,-2.0984,-2.1238,-2.1174,-2.0793,-2.0603,-2.0603,-2.0603,-2.0603,-2.0666,-2.0666,-2.0793,-2.1047,-2.1301,-2.1618,-2.1935,-2.1555,-2.1111,-2.1111,-2.1174,-2.1238,-2.1428,-2.1618,-2.1999,-2.2126,-2.2126,-2.2126,-2.1999,-2.1935,-2.1301,-2.1111,-2.0666,-2.0603,-2.0666,-2.0666,-2.073,-2.0603,-2.0603,-2.0539,-2.0539,-2.0539,-2.0539,-2.0539,-2.0539,-2.0539,-2.0539,-2.0539,-2.0539,-2.0539,-2.0539,-2.0539,-2.0539,-2.0539,-2.0539,-2.4592,-2.4592,-2.4592,-2.4592,-2.4592,-2.4592,-2.4592,-2.4592,-2.4592,-2.4592,-2.4592,-2.4592,-2.4592,-2.4592,-2.4592,-2.4592,-2.4466,-2.3897,-2.3455,-2.2949,-2.2379,-2.1682,-2.1238,-2.0984,-2.073,-2.0603,-2.0539,-2.0539,-2.0539,-2.0539,-2.0539,-2.0539,-2.0539,-2.0539,-2.0539,-2.0539,-2.0539,-2.0539,-2.0539,-2.0539,-2.0539,-2.0539,-2.0539,-2.0539,-2.0539,-2.0539,-2.0539,-2.0539,-2.0539,-2.0539,-2.0539,-2.0539,-2.0539,-2.0539,-2.0539,-2.0603,-2.0793,-2.0984,-2.1047,-2.1174,-2.1301,-2.1492,-2.1682,-2.1999,-2.1999,-2.1682,-2.1682,-2.1682,-2.1682,-2.1682,-2.1682,-2.1745,-2.1745,-2.1935,-2.2062,-2.2189,-2.2316,-2.2126,-2.1935,-2.1872,-2.1935,-2.1999,-2.2062,-2.2126,-2.2379,-2.2379,-2.2569,-2.2696,-2.2696,-2.2886,-2.2252,-2.1809,-2.1555,-2.1428,-2.1618,-2.1428,-2.1111,-2.0991,-2.08,-2.0603,-2.0603,-2.0539,-2.0539,-2.0539,-2.0539,-2.0539,-2.0539,-2.0539,-2.0539,-2.0539,-2.0539,-2.0539,-2.0539,-2.0539,-2.0539,-2.4592,-2.4592,-2.4592,-2.4592,-2.4592,-2.4592,-2.4592,-2.4592,-2.4592,-2.4592,-2.4592,-2.4592,-2.4592,-2.4592,-2.4592,-2.4592,-2.4466,-2.4087,-2.3771,-2.3392,-2.3012,-2.2379,-2.1935,-2.1682,-2.1301,-2.0984,-2.0793,-2.0603,-2.0539,-2.0539,-2.0539,-2.0539,-2.0539,-2.0539,-2.0539,-2.0539,-2.0539,-2.0666,-2.0666,-2.0603,-2.0539,-2.0539,-2.0539,-2.0539,-2.0539,-2.0539,-2.0539,-2.0539,-2.0539,-2.0603,-2.0666,-2.0793,-2.092,-2.0984,-2.1047,-2.1174,-2.1492,-2.1682,-2.1809,-2.2062,-2.2316,-2.2506,-2.2632,-2.2696,-2.2696,-2.2759,-2.2759,-2.2759,-2.2759,-2.2569,-2.2569,-2.2569,-2.2569,-2.2759,-2.2759,-2.2759,-2.2759,-2.2759,-2.2696,-2.2632,-2.2632,-2.2696,-2.2759,-2.2759,-2.2822,-2.2822,-2.2822,-2.2822,-2.2949,-2.3329,-2.3202,-2.3012,-2.2886,-2.2822,-2.2569,-2.2189,-2.1682,-2.1618,-2.1492,-2.0984,-2.0666,-2.0603,-2.0539,-2.0539,-2.0539,-2.0539,-2.0539,-2.0539,-2.0539,-2.0539,-2.0539,-2.0539,-2.0539,-2.0539,-2.0539,-2.4592,-2.4592,-2.4592,-2.4592,-2.4592,-2.4592,-2.4592,-2.4592,-2.4592,-2.4592,-2.4592,-2.4592,-2.4592,-2.4592,-2.4592,-2.4592,-2.4592,-2.434,-2.3961,-2.3581,-2.3518,-2.3012,-2.2506,-2.2252,-2.1935,-2.1618,-2.1238,-2.1047,-2.073,-2.0603,-2.0539,-2.0539,-2.0539,-2.0539,-2.0539,-2.0603,-2.0857,-2.1047,-2.092,-2.0793,-2.1047,-2.092,-2.0539,-2.0539,-2.0539,-2.0539,-2.0539,-2.0539,-2.0539,-2.0666,-2.0984,-2.1238,-2.1428,-2.1682,-2.1872,-2.1935,-2.2252,-2.2379,-2.2569,-2.2759,-2.2949,-2.2949,-2.3075,-2.3392,-2.3518,-2.3834,-2.3834,-2.3771,-2.3581,-2.2949,-2.2822,-2.2822,-2.2886,-2.3392,-2.3645,-2.3581,-2.3518,-2.3392,-2.3265,-2.3202,-2.3202,-2.3265,-2.3392,-2.3581,-2.3961,-2.3961,-2.3897,-2.3897,-2.3834,-2.3961,-2.4024,-2.4024,-2.3961,-2.3392,-2.2822,-2.2696,-2.2379,-2.2316,-2.2126,-2.1618,-2.1174,-2.073,-2.0666,-2.0539,-2.0539,-2.0539,-2.0539,-2.0539,-2.0539,-2.0539,-2.0539,-2.0539,-2.0539,-2.0539,-2.0539]},{"header":{"parameterUnit":"m.s-1","parameterCategory":1,"la1":31.0,"la2":29.5877,"lo1":-88.7671,"lo2":-86.6584,"dy":0.0162,"dx":0.0185,"nx":115,"ny":88,"refTime":"2024-06-15T00:00:00:Z","depth":0,"parameterNumber":3,"parameterNumberName":"V-component_of_WINDS"},"data":[0.0,0.0,0.0,0.0,0.0,0.0,0.0,0.0,0.0,0.0,0.0,0.0,0.0,0.0,0.0,0.0,0.0,0.0,0.0,0.0,0.0,0.0,0.0,0.0,0.0,0.0,0.0,0.0,0.0,0.0,0.0,0.0,0.0,0.0,0.0,0.0,0.0,0.0,0.0,0.0,0.0,0.0,0.0,0.0,0.0,0.0,0.0,0.0,0.0,0.0,0.0,0.0,0.0,0.0,0.0,0.0,0.0,0.0,0.0,0.0,0.0,0.0,0.0,0.0,0.0,0.0,0.0,0.0,0.0,0.0,0.0,0.0,0.0,0.0,0.0,0.0,0.0,0.0,0.0,0.0,0.0,0.0,0.0,0.0,0.0,0.0,0.0,0.0,0.0,0.0,0.0,0.0,0.0,0.0,0.0,0.0,0.0,0.0,0.0,0.0,0.0,0.0,0.0,0.0,0.0,0.0,0.0,0.0,0.0,0.0,0.0,0.0,0.0,0.0,0.0,0.0,0.0,0.0,0.0,0.0,0.0,0.0,0.0,0.0,0.0,0.0,0.0,0.0,0.0,0.0,0.0,0.0,0.0,0.0,0.0,0.0,0.0,0.0,0.0,0.0,0.0,0.0,0.0,0.0,0.0,0.0,0.0,0.0,0.0,0.0,0.0,0.0,0.0,0.0,0.0,0.0,0.0,0.0,0.0,0.0,0.0,0.0,0.0,0.0,0.0,0.0,0.0,0.0,0.0,0.0,0.0,0.0,0.0,0.0,0.0,0.0,0.0,0.0,0.0,0.0,0.0,0.0,0.0,0.0,0.0,0.0,0.0,0.0,0.0,0.0,0.0,0.0,0.0,0.0,0.0,0.0,0.0,0.0,0.0,0.0,0.0,0.0,0.0,0.0,0.0,0.0,0.0,0.0,0.0,0.0,0.0,0.0,0.0,0.0,0.0,0.0,0.0,0.0,0.0,0.0,0.0,0.0,0.0,0.0,0.0,0.0,0.0,0.0,0.0,0.0,0.0,0.0,0.0,0.0,0.0,0.0,0.0,0.0,0.0,0.0,0.0,0.0,0.0,0.0,0.0,0.0,0.0,0.0,0.0,0.0,0.0,0.0,0.0,0.0,0.0,0.0,0.0,0.0,0.0,0.0,0.0,0.0,0.0,0.0,0.0,0.0,0.0,0.0,0.0,0.0,0.0,0.0,0.0,0.0,0.0,0.0,0.0,0.0,0.0,0.0,0.0,0.0,0.0,0.0,0.0,0.0,0.0,0.0,0.0,0.0,0.0,0.0,0.0,0.0,0.0,0.0,0.0,0.0,0.0,0.0,0.0,0.0,0.0,0.0,0.0,0.0,0.0,0.0,0.0,0.0,0.0,0.0,0.0,0.0,0.0,0.0,0.0,0.0,0.0,0.0,0.0,0.0,0.0,0.0,0.0,0.0,0.0,0.0,0.0,0.0,0.0,0.0,0.0,0.0,0.0,0.0,0.0,0.0,0.0,0.0,0.0,0.0,0.0,0.0,0.0,0.0,0.0,0.0,0.0,0.0,0.0,0.0,0.0,0.0,0.0,0.0,0.0,0.0,0.0,0.0,0.0,0.0,0.0,0.0,0.0,0.0,0.0,0.0,0.0,0.0,0.0,0.0,0.0,0.0,0.0,0.0,0.0,0.0,0.0,0.0,0.0,0.0,0.0,0.0,0.0,0.0,0.0,0.0,0.0,0.0,0.0,0.0,0.0,0.0,0.0,0.0,0.0,0.0,0.0,0.0,0.0,0.0,0.0,0.0,0.0,0.0,0.0,0.0,0.0,0.0,0.0,0.0,0.0,0.0,0.0,0.0,0.0,0.0,0.0,0.0,0.0,0.0,0.0,0.0,0.0,0.0,0.0,0.0,0.0,0.0,0.0,0.0,0.0,0.0,0.0,0.0,0.0,0.0,0.0,0.0,0.0,0.0,0.0,0.0,0.0,0.0,0.0,0.0,0.0,0.0,0.0,0.0,0.0,0.0,0.0,0.0,0.0,0.0,0.0,0.0,0.0,0.0,0.0,0.0,0.0,0.0,0.0,0.0,0.0,0.0,0.0,0.0,0.0,0.0,0.0,0.0,0.0,0.0,0.0,0.0,0.0,0.0,0.0,0.0,0.0,0.0,0.0,0.0,0.0,0.0,0.0,0.0,0.0,0.0,0.0,0.0,0.0,0.0,0.0,0.0,0.0,0.0,0.0,0.0,0.0,0.0,0.0,0.0,0.0,0.0,0.0,0.0,0.0,0.0,0.0,0.0,0.0,0.0,0.0,0.0,0.0,0.0,0.0,0.0,0.0,0.0,0.0,0.0,0.0,0.0,0.0,0.0,0.0,0.0,0.0,0.0,0.0,0.0,0.0,0.0,0.0,0.0,0.0,0.0,0.0,0.0,0.0,0.0,0.0,0.0,0.0,0.0,0.0,0.0,0.0,0.0,0.0,0.0,0.0,0.0,0.0,0.0,0.0,0.0,0.0,0.0,0.0,0.0,0.0,0.0,0.0,0.0,0.0,0.0,0.0,0.0,0.0,0.0,0.0,0.0,0.0,0.0,0.0,0.0,0.0,0.0,0.0,0.0,0.0,0.0,0.0,0.0,0.0,0.0,0.0,0.0,0.0,0.0,0.0,0.0,0.0,0.0,0.0,0.0,0.0,0.0,0.0,0.0,0.0,0.0,0.0,0.0,0.0,0.0,0.0,0.0,0.0,0.0,0.0,0.0,0.0,0.0,0.0,0.0,0.0,0.0,0.0,0.0,0.0,0.0,0.0,0.0,0.0,0.0,0.0,0.0,0.0,0.0,0.0,0.0,0.0,0.0,0.0,0.0,0.0,0.0,0.0,0.0,0.0,0.0,0.0,0.0,0.0,0.0,0.0,0.0,0.0,0.0,0.0,0.0,0.0,0.0,0.0,0.0,0.0,0.0,0.0,0.0,0.0,0.0,0.0,0.0,0.0,0.0,0.0,0.0,0.0,0.0,0.0,0.0,0.0,0.0,0.0,0.0,0.0,0.0,0.0,0.0,0.0,0.0,0.0,0.0,0.0,0.0,0.0,0.0,0.0,0.0,0.0,0.0,0.0,0.0,0.0,0.0,0.0,0.0,0.0,0.0,0.0,0.0,0.0,0.0,0.0,0.0,0.0,0.0,0.0,0.0,0.0,0.0,0.0,0.0,0.0,0.0,0.0,0.0,0.0,0.0,0.0,0.0,0.0,0.0,0.0,0.0,0.0,0.0,0.0,0.0,0.0,0.0,0.0,0.0,0.0,0.0,0.0,0.0,0.0,0.0,0.0,0.0,0.0,0.0,0.0,0.0,0.0,0.0,0.0,0.0,0.0,0.0,0.0,0.0,0.0,0.0,0.0,0.0,0.0,0.0,0.0,0.0,0.0,0.0,0.0,0.0,0.0,0.0,0.0,0.0,0.0,0.0,0.0,0.0,0.0,0.0,0.0,0.0,0.0,0.0,0.0,0.0,0.0,0.0,0.0,0.0,0.0,0.0,0.0,0.0,0.0,0.0,0.0,0.0,0.0,0.0,0.0,0.0,0.0,0.0,0.0,0.0,0.0,0.0,0.0,0.0,0.0,0.0,0.0,0.0,0.0,0.0,0.0,0.0,0.0,0.0,0.0,0.0,0.0,0.0,0.0,0.0,0.0,0.0,0.0,0.0,0.0,0.0,0.0,0.0,0.0,0.0,0.0,0.0,0.0,0.0,0.0,0.0,0.0,0.0,0.0,0.0,0.0,0.0,0.0,0.0,0.0,0.0,0.0,0.0,0.0,0.0,0.0,0.0,0.0,0.0,0.0,0.0,0.0,0.0,0.0,0.0,0.0,0.0,0.0,0.0,0.0,0.0,0.0,0.0,0.0,0.0,0.0,0.0,0.0,0.0,0.0,0.0,0.0,0.0,0.0,0.0,0.0,0.0,0.0,0.0,0.0,0.0,0.0,0.0,0.0,0.0,0.0,0.0,0.0,0.0,0.0,0.0,0.0,0.0,0.0,0.0,0.0,0.0,0.0,0.0,0.0,0.0,0.0,0.0,0.0,0.0,0.0,0.0,0.0,0.0,0.0,0.0,0.0,0.0,0.0,0.0,0.0,0.0,0.0,0.0,0.0,0.0,0.0,0.0,0.0,0.0,0.0,0.0,0.0,0.0,0.0,0.0,0.0,0.0,0.0,0.0,0.0,0.0,0.0,0.0,0.0,0.0,0.0,0.0,0.0,0.0,0.0,0.0,0.0,0.0,0.0,0.0,4.1154,0.0,0.0,0.0,0.0,0.0,0.0,0.0,0.0,0.0,0.0,0.0,0.0,0.0,0.0,0.0,0.0,0.0,0.0,0.0,0.0,0.0,0.0,0.0,0.0,0.0,0.0,0.0,0.0,0.0,0.0,0.0,0.0,0.0,0.0,0.0,0.0,0.0,0.0,0.0,0.0,0.0,0.0,0.0,0.0,0.0,0.0,0.0,0.0,0.0,0.0,0.0,0.0,0.0,0.0,0.0,0.0,0.0,0.0,0.0,0.0,0.0,0.0,0.0,0.0,0.0,0.0,0.0,0.0,0.0,0.0,0.0,0.0,0.0,0.0,0.0,0.0,0.0,0.0,0.0,0.0,0.0,0.0,0.0,0.0,0.0,0.0,0.0,0.0,0.0,0.0,0.0,0.0,0.0,0.0,0.0,0.0,0.0,0.0,0.0,0.0,0.0,0.0,0.0,0.0,0.0,0.0,0.0,0.0,0.0,0.0,4.4399,4.3694,4.322,4.2828,4.2517,0.0,0.0,0.0,0.0,0.0,0.0,0.0,0.0,0.0,0.0,0.0,0.0,0.0,0.0,0.0,0.0,0.0,0.0,0.0,0.0,0.0,0.0,0.0,0.0,0.0,0.0,0.0,0.0,0.0,0.0,0.0,0.0,0.0,0.0,0.0,0.0,0.0,0.0,0.0,0.0,0.0,0.0,0.0,0.0,0.0,0.0,0.0,0.0,0.0,0.0,0.0,0.0,0.0,0.0,0.0,0.0,0.0,0.0,0.0,0.0,0.0,0.0,0.0,0.0,0.0,0.0,0.0,0.0,0.0,0.0,0.0,0.0,0.0,0.0,0.0,0.0,0.0,0.0,0.0,0.0,0.0,0.0,0.0,0.0,0.0,0.0,0.0,0.0,0.0,0.0,0.0,0.0,0.0,0.0,0.0,0.0,0.0,0.0,0.0,0.0,0.0,0.0,0.0,0.0,0.0,0.0,0.0,0.0,0.0,0.0,0.0,0.0,4.4511,4.4099,4.3964,0.0,0.0,0.0,0.0,0.0,0.0,0.0,0.0,0.0,0.0,0.0,0.0,0.0,0.0,0.0,0.0,0.0,0.0,0.0,0.0,0.0,0.0,0.0,0.0,0.0,0.0,0.0,0.0,0.0,0.0,0.0,0.0,0.0,0.0,0.0,0.0,0.0,0.0,0.0,0.0,0.0,0.0,0.0,0.0,0.0,0.0,0.0,0.0,0.0,0.0,0.0,0.0,0.0,0.0,0.0,0.0,0.0,0.0,0.0,0.0,0.0,0.0,0.0,0.0,0.0,0.0,0.0,0.0,0.0,0.0,0.0,0.0,0.0,0.0,0.0,0.0,0.0,0.0,0.0,0.0,0.0,0.0,0.0,0.0,0.0,0.0,0.0,0.0,0.0,0.0,0.0,0.0,0.0,0.0,0.0,0.0,0.0,0.0,0.0,0.0,0.0,0.0,0.0,0.0,0.0,0.0,0.0,0.0,0.0,0.0,4.5834,4.5875,4.5874,0.0,4.4871,0.0,0.0,0.0,0.0,0.0,0.0,0.0,0.0,0.0,0.0,0.0,0.0,0.0,0.0,0.0,0.0,0.0,0.0,0.0,0.0,0.0,0.0,0.0,0.0,0.0,0.0,0.0,0.0,0.0,0.0,0.0,0.0,0.0,0.0,0.0,0.0,0.0,0.0,0.0,0.0,0.0,0.0,0.0,0.0,0.0,0.0,0.0,0.0,0.0,0.0,0.0,0.0,0.0,0.0,0.0,0.0,0.0,0.0,0.0,0.0,0.0,0.0,0.0,0.0,0.0,0.0,0.0,0.0,0.0,0.0,0.0,0.0,0.0,0.0,0.0,0.0,0.0,0.0,0.0,0.0,0.0,0.0,0.0,0.0,0.0,0.0,0.0,0.0,0.0,0.0,0.0,0.0,0.0,0.0,0.0,0.0,0.0,0.0,0.0,0.0,0.0,0.0,0.0,0.0,0.0,0.0,0.0,0.0,0.0,0.0,4.6639,4.6714,4.6841,4.6539,0.0,0.0,0.0,0.0,0.0,0.0,0.0,0.0,0.0,0.0,0.0,0.0,0.0,0.0,0.0,0.0,0.0,0.0,0.0,0.0,0.0,0.0,0.0,0.0,0.0,0.0,0.0,0.0,0.0,0.0,0.0,0.0,0.0,0.0,0.0,0.0,0.0,0.0,0.0,0.0,0.0,0.0,0.0,0.0,0.0,0.0,0.0,0.0,0.0,0.0,0.0,0.0,0.0,0.0,0.0,0.0,0.0,0.0,0.0,0.0,0.0,0.0,0.0,0.0,0.0,0.0,0.0,0.0,0.0,0.0,0.0,0.0,0.0,0.0,0.0,0.0,0.0,0.0,0.0,0.0,0.0,0.0,0.0,0.0,0.0,0.0,0.0,0.0,0.0,0.0,0.0,0.0,0.0,0.0,0.0,0.0,0.0,0.0,0.0,0.0,0.0,0.0,0.0,0.0,0.0,0.0,0.0,0.0,0.0,0.0,4.6193,4.7361,4.789,4.7882,4.7536,4.6947,0.0,0.0,0.0,0.0,0.0,0.0,0.0,0.0,0.0,0.0,0.0,0.0,0.0,0.0,0.0,0.0,0.0,0.0,0.0,0.0,0.0,0.0,0.0,0.0,0.0,0.0,0.0,0.0,0.0,0.0,0.0,0.0,0.0,0.0,0.0,0.0,0.0,0.0,0.0,0.0,0.0,0.0,0.0,0.0,0.0,0.0,0.0,0.0,0.0,0.0,0.0,0.0,0.0,0.0,0.0,0.0,0.0,0.0,0.0,0.0,0.0,0.0,0.0,0.0,0.0,0.0,0.0,0.0,0.0,0.0,0.0,0.0,0.0,0.0,0.0,0.0,0.0,0.0,0.0,0.0,0.0,0.0,0.0,0.0,0.0,0.0,0.0,0.0,0.0,0.0,0.0,0.0,0.0,0.0,0.0,0.0,0.0,0.0,0.0,0.0,0.0,0.0,0.0,0.0,0.0,0.0,0.0,0.0,4.4495,4.6207,4.7986,4.9692,4.9024,4.8661,0.0,0.0,0.0,0.0,0.0,0.0,0.0,0.0,0.0,0.0,0.0,0.0,0.0,0.0,0.0,0.0,0.0,0.0,0.0,0.0,0.0,0.0,0.0,0.0,0.0,0.0,0.0,0.0,0.0,0.0,0.0,0.0,0.0,0.0,0.0,0.0,0.0,0.0,0.0,0.0,0.0,0.0,0.0,0.0,0.0,0.0,0.0,0.0,0.0,0.0,0.0,0.0,0.0,0.0,0.0,0.0,0.0,0.0,0.0,0.0,0.0,0.0,0.0,0.0,0.0,0.0,0.0,0.0,0.0,0.0,0.0,0.0,0.0,0.0,0.0,0.0,0.0,0.0,0.0,0.0,0.0,0.0,0.0,0.0,0.0,0.0,0.0,0.0,0.0,0.0,0.0,0.0,0.0,0.0,0.0,0.0,0.0,0.0,0.0,0.0,0.0,0.0,0.0,0.0,0.0,0.0,0.0,0.0,0.0,4.4626,4.7343,4.9431,5.0639,4.9444,4.8521,0.0,0.0,0.0,0.0,0.0,0.0,0.0,0.0,0.0,0.0,0.0,0.0,0.0,0.0,0.0,0.0,0.0,0.0,0.0,0.0,0.0,0.0,0.0,0.0,0.0,0.0,0.0,0.0,0.0,0.0,0.0,0.0,0.0,0.0,0.0,0.0,0.0,0.0,0.0,0.0,0.0,0.0,0.0,0.0,0.0,0.0,0.0,0.0,0.0,0.0,0.0,0.0,0.0,0.0,0.0,0.0,0.0,0.0,0.0,0.0,0.0,0.0,0.0,0.0,0.0,0.0,0.0,0.0,0.0,0.0,0.0,0.0,0.0,0.0,0.0,0.0,0.0,0.0,0.0,0.0,0.0,0.0,0.0,0.0,0.0,0.0,0.0,0.0,0.0,0.0,0.0,0.0,0.0,0.0,0.0,0.0,0.0,0.0,0.0,0.0,0.0,0.0,0.0,0.0,0.0,0.0,0.0,0.0,0.0,4.6305,0.0,5.0687,5.1542,5.0061,4.8813,0.0,0.0,0.0,0.0,0.0,0.0,0.0,0.0,0.0,0.0,0.0,0.0,0.0,0.0,0.0,0.0,0.0,0.0,0.0,0.0,0.0,0.0,0.0,0.0,0.0,0.0,0.0,0.0,0.0,0.0,0.0,0.0,0.0,0.0,0.0,0.0,0.0,0.0,0.0,0.0,0.0,0.0,0.0,0.0,0.0,0.0,0.0,0.0,0.0,0.0,0.0,0.0,0.0,0.0,0.0,0.0,0.0,0.0,0.0,0.0,0.0,0.0,0.0,0.0,0.0,0.0,0.0,0.0,0.0,0.0,0.0,0.0,0.0,0.0,0.0,0.0,0.0,0.0,0.0,0.0,0.0,0.0,0.0,0.0,0.0,0.0,0.0,0.0,0.0,0.0,0.0,0.0,0.0,0.0,0.0,0.0,0.0,0.0,0.0,0.0,0.0,0.0,0.0,0.0,0.0,0.0,0.0,0.0,4.6527,4.9773,5.0815,5.1784,5.256,5.107,4.969,0.0,0.0,0.0,0.0,0.0,0.0,0.0,0.0,0.0,0.0,0.0,0.0,0.0,0.0,0.0,0.0,0.0,0.0,0.0,0.0,0.0,0.0,0.0,0.0,0.0,0.0,0.0,0.0,0.0,0.0,0.0,0.0,0.0,0.0,0.0,0.0,0.0,0.0,0.0,0.0,0.0,0.0,0.0,0.0,0.0,0.0,0.0,0.0,0.0,0.0,0.0,0.0,0.0,0.0,0.0,0.0,0.0,0.0,0.0,0.0,0.0,0.0,0.0,0.0,0.0,0.0,0.0,0.0,0.0,0.0,0.0,0.0,0.0,0.0,0.0,0.0,0.0,0.0,0.0,0.0,0.0,0.0,0.0,0.0,0.0,0.0,0.0,0.0,0.0,0.0,0.0,0.0,0.0,0.0,0.0,0.0,0.0,0.0,0.0,0.0,0.0,0.0,0.0,0.0,0.0,0.0,0.0,0.0,0.0,5.2621,5.3497,5.438,5.5186,5.3094,5.096,0.0,0.0,0.0,0.0,0.0,0.0,0.0,0.0,0.0,0.0,0.0,0.0,0.0,0.0,0.0,0.0,0.0,0.0,0.0,0.0,0.0,0.0,0.0,0.0,0.0,0.0,0.0,0.0,0.0,0.0,0.0,0.0,0.0,0.0,0.0,0.0,0.0,0.0,0.0,0.0,0.0,0.0,0.0,0.0,0.0,0.0,0.0,0.0,0.0,0.0,0.0,0.0,0.0,0.0,0.0,0.0,0.0,0.0,0.0,0.0,0.0,0.0,0.0,0.0,0.0,0.0,0.0,0.0,0.0,0.0,0.0,0.0,0.0,0.0,0.0,0.0,0.0,0.0,0.0,0.0,0.0,0.0,0.0,0.0,0.0,0.0,0.0,0.0,0.0,0.0,0.0,0.0,0.0,0.0,0.0,0.0,0.0,0.0,0.0,0.0,0.0,0.0,0.0,0.0,0.0,0.0,0.0,0.0,0.0,5.8158,5.7851,5.79,5.8417,5.5964,5.3275,5.0389,0.0,0.0,0.0,0.0,0.0,0.0,0.0,0.0,0.0,0.0,0.0,0.0,0.0,0.0,0.0,0.0,0.0,0.0,0.0,0.0,0.0,0.0,0.0,0.0,0.0,0.0,0.0,0.0,0.0,0.0,0.0,0.0,0.0,0.0,0.0,0.0,0.0,0.0,0.0,0.0,0.0,0.0,0.0,0.0,0.0,0.0,0.0,0.0,0.0,0.0,0.0,0.0,0.0,0.0,0.0,0.0,0.0,0.0,0.0,0.0,0.0,0.0,0.0,0.0,0.0,0.0,0.0,0.0,0.0,0.0,0.0,0.0,0.0,0.0,0.0,0.0,0.0,0.0,0.0,0.0,0.0,0.0,0.0,0.0,0.0,0.0,0.0,0.0,0.0,0.0,0.0,0.0,0.0,0.0,0.0,0.0,0.0,0.0,0.0,0.0,0.0,0.0,0.0,0.0,0.0,0.0,0.0,0.0,6.5696,6.3549,6.226,6.2063,5.9528,5.6522,0.0,0.0,0.0,0.0,0.0,0.0,0.0,0.0,0.0,0.0,0.0,0.0,0.0,0.0,0.0,0.0,0.0,0.0,0.0,0.0,0.0,0.0,0.0,0.0,0.0,0.0,0.0,0.0,0.0,0.0,0.0,0.0,0.0,0.0,0.0,0.0,0.0,0.0,0.0,0.0,0.0,0.0,0.0,0.0,0.0,0.0,0.0,0.0,0.0,0.0,0.0,0.0,0.0,0.0,0.0,0.0,0.0,0.0,0.0,0.0,0.0,0.0,0.0,0.0,0.0,0.0,0.0,0.0,0.0,0.0,0.0,0.0,0.0,0.0,0.0,0.0,0.0,0.0,0.0,0.0,0.0,0.0,0.0,0.0,0.0,0.0,0.0,0.0,0.0,0.0,0.0,0.0,0.0,0.0,0.0,0.0,0.0,0.0,0.0,0.0,0.0,0.0,0.0,0.0,0.0,0.0,0.0,0.0,0.0,6.8202,6.9609,6.9061,6.6559,6.3358,5.9765,0.0,0.0,0.0,0.0,0.0,0.0,0.0,0.0,0.0,0.0,0.0,0.0,0.0,0.0,0.0,0.0,0.0,0.0,0.0,0.0,0.0,0.0,0.0,0.0,0.0,0.0,0.0,0.0,0.0,0.0,0.0,0.0,0.0,0.0,0.0,0.0,0.0,0.0,0.0,0.0,0.0,0.0,0.0,0.0,0.0,0.0,0.0,0.0,0.0,0.0,0.0,0.0,0.0,0.0,0.0,0.0,0.0,0.0,0.0,0.0,0.0,0.0,0.0,0.0,0.0,0.0,0.0,0.0,0.0,0.0,0.0,0.0,0.0,0.0,0.0,0.0,0.0,0.0,0.0,0.0,0.0,0.0,0.0,0.0,0.0,0.0,0.0,0.0,0.0,0.0,0.0,0.0,0.0,0.0,0.0,0.0,0.0,0.0,0.0,0.0,0.0,0.0,0.0,0.0,0.0,0.0,0.0,0.0,6.6523,7.1484,7.3789,7.3984,7.203,6.7187,6.2617,0.0,0.0,0.0,0.0,0.0,0.0,0.0,0.0,0.0,0.0,0.0,0.0,0.0,0.0,0.0,0.0,0.0,0.0,0.0,0.0,0.0,0.0,0.0,0.0,0.0,0.0,0.0,0.0,0.0,0.0,0.0,0.0,0.0,0.0,0.0,0.0,0.0,0.0,0.0,0.0,0.0,0.0,0.0,0.0,0.0,0.0,0.0,0.0,0.0,0.0,0.0,0.0,0.0,0.0,0.0,0.0,0.0,0.0,0.0,0.0,0.0,0.0,0.0,0.0,0.0,0.0,0.0,0.0,0.0,0.0,0.0,0.0,0.0,0.0,0.0,0.0,0.0,0.0,0.0,0.0,0.0,0.0,0.0,0.0,0.0,0.0,0.0,0.0,0.0,0.0,0.0,0.0,0.0,0.0,0.0,0.0,0.0,0.0,0.0,0.0,0.0,0.0,0.0,0.0,0.0,0.0,0.0,0.0,6.8984,7.4765,7.6562,7.7422,7.7148,7.0898,6.5351,0.0,0.0,0.0,0.0,0.0,0.0,0.0,0.0,0.0,0.0,0.0,0.0,0.0,0.0,0.0,0.0,0.0,0.0,0.0,0.0,0.0,0.0,0.0,0.0,0.0,0.0,0.0,0.0,0.0,0.0,0.0,0.0,0.0,0.0,0.0,0.0,0.0,0.0,0.0,0.0,0.0,0.0,0.0,0.0,0.0,0.0,0.0,0.0,0.0,0.0,0.0,0.0,0.0,0.0,0.0,0.0,0.0,0.0,0.0,0.0,0.0,0.0,0.0,0.0,0.0,0.0,0.0,0.0,0.0,0.0,0.0,0.0,0.0,0.0,0.0,0.0,0.0,0.0,0.0,0.0,0.0,0.0,0.0,0.0,0.0,0.0,0.0,0.0,0.0,0.0,0.0,0.0,0.0,0.0,0.0,0.0,0.0,0.0,0.0,0.0,0.0,0.0,0.0,0.0,0.0,0.0,0.0,0.0,7.1914,7.6523,7.8281,7.8867,7.8242,7.3476,6.8555,0.0,0.0,0.0,0.0,0.0,0.0,0.0,0.0,0.0,0.0,0.0,0.0,0.0,0.0,0.0,0.0,0.0,0.0,0.0,0.0,0.0,0.0,0.0,0.0,0.0,0.0,0.0,0.0,0.0,0.0,0.0,0.0,0.0,0.0,0.0,0.0,0.0,0.0,0.0,0.0,0.0,0.0,0.0,0.0,0.0,0.0,0.0,0.0,5.162,0.0,0.0,0.0,0.0,0.0,0.0,0.0,0.0,0.0,0.0,0.0,0.0,0.0,0.0,0.0,0.0,0.0,0.0,0.0,0.0,0.0,0.0,0.0,0.0,0.0,0.0,0.0,0.0,0.0,0.0,0.0,0.0,0.0,0.0,0.0,0.0,0.0,0.0,0.0,0.0,0.0,0.0,0.0,0.0,0.0,0.0,0.0,0.0,0.0,0.0,0.0,0.0,0.0,0.0,0.0,0.0,0.0,0.0,0.0,7.3594,7.8203,7.9648,8.0117,7.957,7.5469,7.0625,0.0,0.0,0.0,0.0,0.0,0.0,0.0,0.0,0.0,0.0,0.0,0.0,0.0,0.0,0.0,0.0,0.0,0.0,0.0,0.0,0.0,0.0,0.0,0.0,0.0,0.0,0.0,0.0,0.0,0.0,0.0,0.0,0.0,0.0,0.0,0.0,0.0,0.0,0.0,0.0,0.0,0.0,0.0,0.0,0.0,0.0,0.0,0.0,0.0,0.0,0.0,0.0,0.0,0.0,0.0,0.0,0.0,0.0,0.0,0.0,0.0,0.0,0.0,0.0,0.0,0.0,0.0,0.0,0.0,0.0,0.0,0.0,0.0,0.0,0.0,0.0,0.0,0.0,0.0,0.0,0.0,0.0,0.0,0.0,0.0,0.0,0.0,0.0,0.0,0.0,0.0,0.0,0.0,0.0,0.0,0.0,0.0,0.0,0.0,0.0,0.0,0.0,0.0,0.0,0.0,0.0,0.0,7.0195,7.5156,7.9883,8.0937,8.1289,8.0937,7.6953,7.1953,6.5976,0.0,0.0,0.0,0.0,0.0,0.0,0.0,0.0,0.0,0.0,0.0,0.0,0.0,0.0,0.0,0.0,0.0,0.0,0.0,0.0,0.0,0.0,0.0,0.0,0.0,0.0,0.0,0.0,0.0,0.0,0.0,0.0,0.0,0.0,0.0,0.0,0.0,0.0,5.2483,5.4202,0.0,0.0,0.0,0.0,0.0,0.0,0.0,0.0,5.3962,0.0,0.0,0.0,0.0,0.0,0.0,0.0,0.0,0.0,0.0,0.0,0.0,0.0,0.0,0.0,0.0,0.0,0.0,0.0,0.0,0.0,0.0,0.0,0.0,0.0,0.0,0.0,0.0,0.0,0.0,0.0,0.0,0.0,0.0,0.0,0.0,0.0,0.0,0.0,0.0,0.0,0.0,0.0,0.0,0.0,0.0,0.0,0.0,0.0,0.0,0.0,0.0,0.0,0.0,0.0,0.0,6.8515,7.3672,7.8164,8.1758,8.2734,8.25,8.0976,7.7539,7.2851,6.6914,0.0,0.0,0.0,0.0,0.0,0.0,0.0,0.0,0.0,0.0,0.0,0.0,0.0,0.0,0.0,0.0,0.0,0.0,0.0,0.0,0.0,0.0,0.0,0.0,0.0,0.0,0.0,0.0,0.0,0.0,0.0,0.0,0.0,0.0,0.0,0.0,0.0,0.0,0.0,5.7384,5.8428,0.0,0.0,0.0,0.0,0.0,0.0,0.0,0.0,5.638,0.0,0.0,0.0,0.0,0.0,0.0,0.0,0.0,0.0,0.0,0.0,0.0,0.0,0.0,0.0,0.0,0.0,0.0,0.0,0.0,0.0,0.0,0.0,0.0,0.0,0.0,0.0,0.0,0.0,0.0,0.0,0.0,0.0,0.0,0.0,0.0,0.0,0.0,0.0,0.0,0.0,0.0,0.0,0.0,0.0,0.0,0.0,0.0,0.0,0.0,0.0,0.0,0.0,0.0,0.0,6.9336,7.4531,7.9062,8.2812,8.3398,8.2969,8.164,7.793,7.3086,0.0,0.0,0.0,0.0,0.0,0.0,0.0,0.0,0.0,0.0,0.0,0.0,0.0,0.0,0.0,0.0,0.0,0.0,0.0,0.0,0.0,0.0,0.0,0.0,0.0,0.0,0.0,0.0,0.0,0.0,0.0,0.0,0.0,0.0,0.0,0.0,0.0,0.0,0.0,0.0,5.9512,6.0488,6.0137,0.0,0.0,0.0,0.0,0.0,0.0,5.8882,5.8542,0.0,0.0,0.0,0.0,0.0,0.0,0.0,0.0,0.0,0.0,0.0,0.0,0.0,0.0,0.0,0.0,0.0,0.0,0.0,0.0,0.0,0.0,0.0,0.0,0.0,0.0,0.0,0.0,0.0,0.0,0.0,0.0,0.0,0.0,0.0,0.0,0.0,0.0,0.0,0.0,0.0,0.0,0.0,0.0,0.0,0.0,0.0,0.0,0.0,0.0,0.0,0.0,0.0,0.0,0.0,6.9844,7.5234,7.9883,8.3633,8.3867,8.3359,8.2265,7.832,7.3242,0.0,0.0,0.0,0.0,0.0,0.0,0.0,0.0,0.0,0.0,0.0,0.0,0.0,0.0,0.0,0.0,0.0,0.0,0.0,0.0,0.0,0.0,0.0,0.0,0.0,0.0,0.0,0.0,0.0,0.0,0.0,0.0,0.0,0.0,0.0,0.0,0.0,0.0,0.0,0.0,0.0,6.2445,6.3154,6.2968,0.0,0.0,0.0,0.0,6.2697,6.199,0.0,0.0,0.0,0.0,0.0,0.0,0.0,0.0,0.0,0.0,0.0,0.0,0.0,0.0,0.0,0.0,0.0,0.0,0.0,0.0,0.0,0.0,0.0,0.0,0.0,0.0,0.0,0.0,0.0,0.0,0.0,0.0,0.0,0.0,0.0,0.0,0.0,0.0,0.0,0.0,0.0,0.0,0.0,0.0,0.0,0.0,0.0,0.0,0.0,0.0,0.0,0.0,0.0,0.0,0.0,0.0,7.164,7.7539,8.1914,8.457,8.4765,8.3984,8.2304,7.8867,7.3867,0.0,0.0,0.0,0.0,0.0,0.0,0.0,0.0,0.0,0.0,0.0,0.0,0.0,0.0,0.0,0.0,0.0,0.0,0.0,0.0,0.0,0.0,0.0,0.0,0.0,0.0,0.0,0.0,0.0,0.0,0.0,0.0,0.0,0.0,0.0,0.0,0.0,0.0,0.0,0.0,0.0,6.4899,6.5056,6.6317,6.6984,0.0,0.0,6.7144,6.7261,6.5938,0.0,0.0,0.0,0.0,0.0,0.0,0.0,0.0,0.0,0.0,0.0,0.0,0.0,0.0,0.0,0.0,0.0,0.0,0.0,0.0,0.0,0.0,0.0,0.0,0.0,0.0,0.0,0.0,0.0,0.0,0.0,0.0,0.0,0.0,0.0,0.0,0.0,0.0,0.0,0.0,0.0,0.0,0.0,0.0,0.0,0.0,0.0,0.0,0.0,0.0,0.0,0.0,0.0,0.0,0.0,6.6211,7.2656,7.8203,8.25,8.5508,8.5625,8.457,8.2344,7.9492,7.4453,0.0,0.0,0.0,0.0,0.0,0.0,0.0,0.0,0.0,0.0,0.0,0.0,0.0,0.0,0.0,0.0,0.0,0.0,0.0,0.0,0.0,0.0,0.0,0.0,0.0,0.0,0.0,0.0,0.0,0.0,0.0,0.0,0.0,0.0,0.0,0.0,0.0,0.0,0.0,0.0,0.0,0.0,6.9538,7.0528,0.0,0.0,0.0,7.1162,7.163,0.0,0.0,0.0,0.0,0.0,0.0,0.0,0.0,0.0,0.0,0.0,0.0,0.0,0.0,0.0,0.0,0.0,0.0,0.0,0.0,0.0,0.0,0.0,0.0,0.0,0.0,0.0,0.0,0.0,0.0,0.0,0.0,0.0,0.0,0.0,0.0,0.0,0.0,0.0,0.0,0.0,0.0,0.0,0.0,0.0,0.0,0.0,0.0,0.0,0.0,0.0,0.0,0.0,0.0,0.0,0.0,0.0,7.3555,7.914,8.3359,8.6094,8.6406,8.5273,8.2695,7.9961,0.0,0.0,0.0,0.0,0.0,0.0,0.0,0.0,0.0,0.0,0.0,0.0,0.0,0.0,0.0,0.0,0.0,0.0,0.0,0.0,0.0,0.0,0.0,0.0,0.0,0.0,0.0,4.6327,0.0,0.0,0.0,0.0,0.0,0.0,0.0,0.0,0.0,0.0,0.0,0.0,0.0,0.0,7.0303,7.3714,7.4781,7.5451,0.0,0.0,7.5686,7.6037,7.4519,7.2606,0.0,0.0,0.0,0.0,0.0,0.0,0.0,0.0,0.0,0.0,0.0,0.0,0.0,0.0,0.0,0.0,0.0,0.0,0.0,0.0,0.0,0.0,0.0,0.0,0.0,0.0,0.0,0.0,0.0,0.0,0.0,0.0,0.0,0.0,0.0,0.0,0.0,0.0,0.0,0.0,0.0,0.0,0.0,0.0,0.0,0.0,0.0,0.0,0.0,0.0,0.0,0.0,0.0,0.0,6.8437,7.4492,8.1172,8.5117,8.6211,8.6992,8.6172,8.3554,8.0273,7.5586,0.0,0.0,0.0,0.0,0.0,0.0,0.0,0.0,0.0,0.0,0.0,0.0,0.0,0.0,0.0,0.0,0.0,0.0,0.0,0.0,0.0,0.0,0.0,0.0,0.0,0.0,0.0,0.0,0.0,0.0,0.0,0.0,0.0,0.0,0.0,0.0,0.0,0.0,0.0,0.0,0.0,7.2923,7.6341,7.8929,8.0497,0.0,8.12,8.1434,8.0692,7.8427,7.5926,7.3427,0.0,0.0,0.0,0.0,0.0,0.0,0.0,0.0,0.0,0.0,0.0,0.0,0.0,0.0,0.0,0.0,0.0,0.0,0.0,0.0,0.0,0.0,0.0,0.0,0.0,0.0,0.0,0.0,0.0,0.0,0.0,0.0,0.0,0.0,0.0,0.0,0.0,0.0,0.0,0.0,0.0,0.0,0.0,0.0,0.0,0.0,0.0,0.0,0.0,0.0,0.0,0.0,0.0,6.9101,7.6133,8.1406,8.5547,8.8398,8.8359,8.7265,8.5234,8.1836,7.7461,0.0,0.0,0.0,0.0,0.0,0.0,0.0,0.0,0.0,0.0,0.0,0.0,0.0,0.0,0.0,0.0,0.0,0.0,0.0,0.0,0.0,0.0,0.0,0.0,0.0,0.0,0.0,0.0,5.25,5.3125,5.3476,0.0,0.0,0.0,0.0,0.0,0.0,0.0,0.0,0.0,0.0,7.7372,8.1358,8.277,0.0,0.0,8.4022,8.3787,8.3436,8.1678,7.9452,7.6912,7.3786,0.0,0.0,0.0,0.0,0.0,0.0,0.0,0.0,0.0,0.0,0.0,0.0,0.0,0.0,0.0,0.0,0.0,0.0,0.0,0.0,0.0,0.0,0.0,0.0,0.0,0.0,5.25,5.2226,0.0,0.0,0.0,0.0,0.0,0.0,0.0,0.0,0.0,0.0,0.0,0.0,0.0,0.0,0.0,0.0,0.0,0.0,0.0,0.0,0.0,0.0,0.0,0.0,7.0078,7.7539,8.2344,8.6445,8.9922,8.9648,8.8672,8.6953,8.3828,7.9726,0.0,0.0,0.0,0.0,0.0,0.0,0.0,0.0,0.0,0.0,0.0,0.0,0.0,0.0,0.0,0.0,0.0,0.0,0.0,0.0,0.0,0.0,0.0,0.0,0.0,0.0,0.0,0.0,5.4258,5.4883,5.5156,0.0,0.0,0.0,0.0,0.0,0.0,0.0,0.0,0.0,0.0,8.1443,8.5466,8.625,8.664,8.7226,8.6835,8.6249,8.5702,8.4414,8.2577,8.0039,0.0,0.0,0.0,0.0,0.0,0.0,0.0,0.0,0.0,0.0,0.0,0.0,0.0,0.0,0.0,0.0,0.0,0.0,0.0,0.0,0.0,0.0,0.0,0.0,0.0,0.0,0.0,5.7724,0.0,0.0,5.5148,0.0,0.0,0.0,0.0,0.0,0.0,0.0,0.0,0.0,0.0,0.0,0.0,0.0,0.0,0.0,0.0,0.0,0.0,0.0,0.0,0.0,0.0,7.1562,7.8437,8.4297,8.8242,9.0,9.082,9.039,8.8672,8.6133,8.2383,7.7187,0.0,0.0,0.0,0.0,0.0,0.0,0.0,0.0,0.0,0.0,0.0,0.0,0.0,0.0,0.0,0.0,0.0,0.0,0.0,0.0,0.0,0.0,0.0,0.0,0.0,0.0,5.5195,5.6015,5.6875,0.0,0.0,0.0,0.0,0.0,0.0,0.0,0.0,0.0,7.8748,8.1834,8.4763,8.8162,8.9336,8.984,8.9918,8.9874,8.9286,8.7613,8.6676,8.5231,0.0,0.0,0.0,0.0,0.0,0.0,0.0,0.0,0.0,0.0,0.0,0.0,0.0,0.0,0.0,0.0,0.0,0.0,0.0,0.0,0.0,0.0,0.0,0.0,0.0,0.0,0.0,6.413,6.3698,0.0,0.0,0.0,0.0,0.0,0.0,0.0,0.0,0.0,0.0,0.0,7.5394,7.5668,0.0,0.0,0.0,0.0,0.0,0.0,0.0,0.0,0.0,0.0,0.0,0.0,7.324,7.9998,8.4956,8.8824,9.1639,9.1443,9.1015,9.0429,8.7383,8.2812,7.6523,0.0,0.0,0.0,0.0,0.0,0.0,0.0,0.0,0.0,0.0,0.0,0.0,0.0,0.0,0.0,0.0,0.0,0.0,0.0,0.0,0.0,0.0,0.0,0.0,0.0,5.691,0.0,0.0,0.0,0.0,0.0,0.0,0.0,0.0,0.0,0.0,7.3003,7.7612,8.2534,8.5893,8.8901,9.1753,9.1907,9.1903,0.0,0.0,0.0,0.0,0.0,0.0,0.0,0.0,0.0,0.0,0.0,0.0,0.0,0.0,8.1186,7.5184,7.4094,7.3823,7.2927,0.0,0.0,0.0,0.0,0.0,0.0,0.0,0.0,0.0,0.0,0.0,0.0,0.0,0.0,7.162,7.1108,6.8609,0.0,0.0,0.0,0.0,0.0,0.0,0.0,0.0,7.8577,8.0674,8.2296,8.2608,8.1551,7.9357,7.8704,7.4927,0.0,0.0,0.0,0.0,0.0,0.0,0.0,0.0,7.5305,8.1751,8.5848,8.9403,9.2415,9.2064,9.1753,9.1717,8.8435,8.41,7.8748,7.4373,7.0115,0.0,0.0,0.0,0.0,0.0,0.0,0.0,0.0,0.0,0.0,0.0,0.0,0.0,0.0,0.0,0.0,0.0,0.0,0.0,0.0,0.0,0.0,0.0,5.9443,0.0,0.0,0.0,0.0,0.0,0.0,0.0,0.0,0.0,7.4901,7.8691,8.3027,8.705,8.9748,9.2093,9.4047,0.0,0.0,0.0,0.0,0.0,0.0,0.0,9.0175,8.9355,8.8964,8.8882,8.9181,9.0147,9.1041,9.1324,0.0,0.0,8.243,8.1145,8.0874,7.9982,8.0531,8.1316,8.1867,8.2652,8.3436,0.0,0.0,0.0,0.0,7.6464,0.0,0.0,0.0,8.0863,8.066,0.0,7.7134,0.0,0.0,0.0,0.0,7.2297,7.3234,0.0,0.0,8.3933,8.5937,8.7514,8.8407,8.7842,8.6087,8.4419,8.2663,8.0442,7.189,6.6507,0.0,0.0,0.0,0.0,0.0,7.7758,8.3539,8.7053,9.0022,9.2484,9.2601,9.2562,9.2445,8.932,8.6351,8.3734,7.9555,7.5297,7.1118,6.6783,0.0,0.0,0.0,0.0,0.0,0.0,0.0,0.0,0.0,0.0,0.0,0.0,0.0,0.0,0.0,0.0,0.0,0.0,0.0,0.0,6.0887,0.0,0.0,0.0,0.0,0.0,0.0,0.0,0.0,0.0,8.2625,8.2935,8.5554,8.8837,9.2273,0.0,0.0,0.0,0.0,9.5278,9.5317,9.5266,9.491,9.4104,9.3951,9.3638,9.2895,0.0,0.0,9.5024,9.5215,9.5488,9.6345,9.5762,9.3927,8.9828,8.8815,8.8463,8.772,8.8162,8.8873,8.8952,8.9429,9.0101,9.1125,0.0,0.0,0.0,0.0,8.5432,8.6826,8.8654,8.6955,8.6512,8.6662,8.3459,0.0,0.0,0.0,0.0,0.0,0.0,8.3672,8.9064,9.0482,9.2278,9.4407,9.4608,9.3493,9.1261,9.0756,8.8961,8.5995,8.2196,7.7353,7.161,0.0,0.0,0.0,0.0,8.1774,8.5289,8.8752,9.1128,9.2418,9.2457,9.2151,9.1542,9.0615,8.9177,8.7222,8.3628,7.9957,7.6325,7.149,0.0,0.0,0.0,0.0,0.0,0.0,0.0,0.0,0.0,0.0,0.0,0.0,0.0,0.0,0.0,0.0,0.0,0.0,0.0,6.3525,6.5281,6.6764,0.0,0.0,0.0,0.0,0.0,0.0,0.0,0.0,0.0,9.3698,9.2333,9.2335,0.0,0.0,9.7845,9.8705,9.8817,9.8816,9.8814,9.8303,0.0,9.7563,9.6979,9.6511,9.6276,9.694,9.7602,9.7831,9.8416,9.8885,9.9158,9.8963,9.8377,9.7206,9.4903,9.3302,9.3029,9.3579,9.4166,9.4246,9.4913,9.5268,10.0208,9.4053,9.2032,9.17,9.2537,9.2865,9.4065,9.5666,9.3764,9.3211,9.3526,9.0443,8.8414,8.7129,8.4081,0.0,0.0,0.0,8.9238,9.3375,9.452,9.5819,9.7157,9.7815,9.7104,9.5233,9.4878,9.3475,9.1018,8.8689,8.5281,8.0798,0.0,7.6918,7.8692,8.1933,8.5019,8.7871,9.0661,9.2292,9.2766,9.2454,9.2035,9.1505,9.1526,9.0911,8.9504,8.6847,8.4002,8.0927,7.6217,7.147,0.0,0.0,0.0,0.0,0.0,0.0,0.0,0.0,0.0,0.0,0.0,6.1858,6.4039,0.0,0.0,0.0,6.4891,6.6216,6.8435,7.0465,0.0,0.0,0.0,0.0,0.0,0.0,0.0,8.9904,9.2443,9.5527,9.982,9.8533,9.7755,9.947,10.0173,10.072,10.1227,0.0,10.0798,10.0798,10.0056,9.9625,9.9939,9.9548,9.9431,10.0134,10.0642,10.1149,10.1537,10.2008,10.232,10.232,10.232,10.232,10.232,10.0563,9.8651,9.744,9.7558,9.7948,9.7948,9.8377,9.8572,10.7231,10.4946,10.018,9.8484,9.906,9.9915,10.0649,10.1193,10.0377,10.006,9.9866,9.7455,9.5423,9.3629,9.1131,0.0,9.258,9.2589,9.3583,9.534,9.693,9.756,9.7458,9.9059,9.9222,9.8153,9.7364,9.6545,9.5539,9.2446,9.0928,9.0771,8.4741,8.2345,8.3736,8.5456,8.7794,9.0837,9.2588,9.3483,9.3366,9.2583,9.2155,9.2077,9.1965,9.1464,9.0682,8.9052,8.7042,8.4502,8.0535,7.6437,7.2365,0.0,0.0,0.0,0.0,0.0,0.0,0.0,0.0,0.0,0.0,0.0,0.0,0.0,0.0,6.8864,7.0444,0.0,7.393,7.6389,0.0,0.0,0.0,8.3852,8.5532,8.8032,9.1194,9.5332,0.0,0.0,10.2906,10.4038,10.4233,10.3491,10.3179,10.2984,10.2984,10.2359,10.1815,10.193,10.1227,10.0993,10.1774,10.1854,10.2283,10.361,10.4196,10.4311,10.4975,10.5209,10.5326,10.5209,10.5365,10.5326,10.5365,10.5014,10.4428,10.1227,10.0642,10.0603,10.0485,10.0446,10.0446,10.9519,10.9918,10.7392,10.5192,10.3387,10.4144,10.4182,10.3671,10.2748,10.2303,10.2233,10.094,9.9113,9.6796,9.4996,9.4741,9.578,9.5867,9.7548,10.0337,10.0697,10.1085,10.1633,10.1964,10.1263,9.9793,9.9522,9.9012,9.8163,9.6727,9.5693,9.4944,9.2194,9.0172,8.8983,9.0633,9.1548,9.1708,9.3418,9.3925,9.318,9.2894,9.2482,9.1784,9.0602,8.9859,8.9626,8.8033,8.6267,8.4408,8.1554,7.8637,7.5685,7.069,0.0,0.0,0.0,0.0,0.0,0.0,0.0,0.0,0.0,7.1337,7.3702,0.0,7.5015,0.0,7.6975,7.9094,8.0836,8.3298,0.0,0.0,8.9489,9.1761,9.3455,9.5957,9.869,10.1618,10.2906,10.4623,10.7434,10.7942,10.8215,10.8525,10.6419,10.478,10.478,10.4623,10.4467,10.4428,10.4233,10.4272,10.435,10.4467,10.4584,10.5014,10.5092,10.517,10.5365,10.5404,10.5404,10.5404,10.5404,10.5404,10.5443,10.5404,10.5209,10.4311,10.3648,10.2984,10.2359,10.2203,10.2047,11.1394,11.1192,11.0951,10.9285,10.6789,10.7207,10.6895,10.5997,10.4708,10.3885,10.3499,10.2649,10.1713,10.0678,9.9792,9.9668,10.0139,10.025,10.1085,10.2521,10.2818,10.2753,10.2444,10.3072,10.2652,10.1344,10.1334,10.0727,9.9533,9.8291,9.7422,9.7033,9.5731,9.4859,9.4442,9.3877,9.3549,9.351,9.4408,9.4638,9.4097,9.328,9.264,9.2137,9.0182,8.9319,8.9661,8.7726,8.6364,8.5801,8.3801,8.1496,7.8952,7.477,7.147,0.0,0.0,0.0,0.0,0.0,0.0,0.0,0.0,0.0,0.0,0.0,8.1509,8.1913,8.3603,8.5385,8.7142,8.966,9.1733,9.3166,9.5642,9.7921,9.9664,10.1461,10.3569,10.6107,10.6849,10.7825,10.9581,10.9855,10.9972,11.0438,10.8879,10.7512,10.7122,10.6536,10.599,10.5951,10.5638,10.556,10.5912,10.6302,10.6536,10.6573,10.6575,10.6575,10.6575,10.6575,10.6536,10.6575,10.6536,10.6575,10.6536,10.6536,10.6458,10.6029,10.5599,10.4936,10.4116,10.396,10.3765,11.2991,11.1105,11.2326,11.1642,10.9649,10.9572,10.8926,10.7855,10.6216,10.5059,10.4172,10.3362,10.344,10.4057,10.4066,10.412,10.419,10.4284,10.3975,10.3387,10.4121,10.3609,10.2057,10.3464,10.3685,10.2789,10.2789,10.1943,10.0375,9.8788,9.7989,9.7946,9.7031,9.7383,9.8841,9.588,9.477,9.5759,9.555,9.5434,9.5434,9.372,9.2718,9.244,9.0141,8.9061,8.9439,8.741,8.6445,8.6935,8.5545,8.3895,8.2077,7.8829,7.6082,0.0,7.334,0.0,0.0,0.0,0.0,0.0,0.0,0.0,0.0,8.5582,8.824,8.9209,9.0066,9.1326,9.3142,9.5526,9.743,9.8497,10.0799,10.2939,10.4528,10.5513,10.6962,10.9343,10.9618,10.9933,11.075,11.0828,11.0828,11.0907,11.0674,11.0206,10.962,10.8254,10.7317,10.72,10.6575,10.6693,10.7239,10.7864,10.8254,10.8174,10.8096,10.8135,10.794,10.7901,10.794,10.794,10.7862,10.7901,10.8018,10.794,10.7708,10.7005,10.681,10.6458,10.556,10.5248,10.5404,11.4412,11.3317,11.2911,11.2488,11.2009,11.1344,10.9817,10.774,10.665,10.5735,10.4849,10.4041,10.381,10.3935,10.4013,10.4021,10.4088,10.4855,10.5084,10.496,10.5735,10.5524,10.4638,10.4782,10.4463,10.3674,10.3674,10.3135,10.2097,10.1096,10.026,9.9586,9.8086,9.7825,9.8729,0.0,0.0,0.0,9.6917,9.618,9.615,9.4424,9.284,9.1531,8.9692,0.0,8.5989,8.5483,8.4681,8.3456,8.255,0.0,0.0,0.0,0.0,0.0,0.0,0.0,0.0,0.0,0.0,0.0,8.9219,9.0031,8.9776,9.1599,9.3467,9.4938,9.5888,9.7151,9.8912,10.0806,10.2393,10.3535,10.5317,10.6895,10.8019,10.8934,11.002,11.1152,11.1325,11.165,11.239,11.2626,11.2587,11.247,11.2002,11.1533,11.1338,11.0323,10.9777,10.9777,10.9384,10.9501,10.9774,10.9853,10.9657,10.9269,10.9035,10.8801,10.8213,10.8057,10.8018,10.8018,10.8018,10.8018,10.8018,10.8018,10.802,10.7786,10.7786,10.7276,10.5756,10.5443,10.5404,11.5138,11.3984,11.3522,11.3099,0.0,11.1819,11.0812,10.9517,10.7772,10.6097,10.452,10.4482,10.4482,10.4492,10.4503,10.4792,10.5216,10.565,10.5871,10.591,10.6275,10.6217,10.5832,10.5771,10.552,10.5136,10.4674,10.4059,10.3212,10.2366,10.152,10.0673,9.9788,9.9596,9.9981,9.8788,9.822,9.8282,9.7419,9.6938,9.6861,9.5238,9.395,9.3018,8.9787,0.0,0.0,0.0,0.0,0.0,0.0,0.0,0.0,8.4025,0.0,8.3813,8.5053,8.5576,8.526,8.7857,9.0427,9.2589,9.5756,9.7002,9.5532,9.6522,9.7903,9.9603,10.019,10.1152,10.298,10.4356,10.5577,10.6693,10.7982,10.915,11.0104,11.0665,11.1284,11.212,11.2297,11.2508,11.2955,11.2997,11.3012,11.3074,11.2725,11.2418,11.2312,11.1338,11.0516,11.0516,11.0516,11.0516,11.0516,11.0516,11.0438,10.9972,10.9894,10.9542,10.8762,10.8644,10.8527,10.8135,10.8018,10.8096,10.8566,10.8644,10.8762,10.9113,10.9228,10.884,10.759,10.7005,10.6693,11.5945,11.4445,11.4291,11.3637,11.2626,11.1972,11.1626,11.1318,10.879,0.0,0.0,10.48,10.502,10.4915,10.502,10.5405,10.5944,10.6097,10.6097,10.5972,10.6087,10.6097,10.5982,10.5982,10.5972,10.5944,10.5213,10.4443,10.3674,10.2943,10.2174,10.1356,10.1279,10.1241,10.1058,10.0442,9.9336,9.7827,9.7596,9.7596,9.7673,9.5951,9.4912,9.4758,9.0594,8.8671,8.9355,8.6978,8.5747,8.6055,8.6094,8.6349,8.6799,8.7,8.7024,8.6971,8.8945,8.9948,8.9446,9.2107,9.4883,9.7389,10.1026,10.2173,9.9895,10.0482,10.1677,10.3374,10.3528,10.4295,10.6121,10.694,10.7781,10.8845,10.9683,11.0514,11.136,11.1563,11.1871,11.261,11.2706,11.2797,11.2835,11.2852,11.2992,11.3204,11.3294,11.3276,11.3106,11.2027,11.1143,11.1143,11.1182,11.1065,11.0987,11.1065,11.0907,11.0789,11.0714,11.044,10.9777,10.9503,10.923,10.872,10.8447,10.8801,10.9347,10.9503,10.9738,11.0362,11.0516,11.0323,10.9659,10.8957,10.8332,11.7715,11.611,11.5407,11.4176,11.2714,11.2599,11.2126,11.128,10.879,10.6674,10.4943,10.502,10.4723,10.4097,10.4789,10.48,10.4289,10.4943,10.4905,10.4289,10.4982,10.4905,10.4251,10.4251,10.4251,10.4251,10.4135,10.3635,10.2866,10.2674,10.2135,10.1394,10.1279,10.0981,10.0289,10.0144,9.9606,9.8634,9.7865,9.7865,9.8557,9.6259,9.4643,9.3864,9.2518,9.0441,8.7863,8.8017,8.7517,8.617,8.6094,8.7055,8.9218,9.0073,9.142,9.3438,9.4631,9.5516,9.6055,9.7248,9.9057,10.152,10.3627,10.4011,10.2328,10.2905,10.4098,10.5715,10.5879,10.664,10.8376,10.8695,10.9184,11.0116,11.0584,11.1142,11.1974,11.2252,11.2427,11.2633,11.2572,11.271,11.2799,11.2795,11.3141,11.3714,11.3953,11.3935,11.3846,11.3271,11.2778,11.2744,11.2744,11.2704,11.2546,11.2704,11.2314,11.1729,11.1611,11.1338,11.0479,11.0321,11.0243,11.0126,10.997,11.0126,11.0321,11.0321,11.0477,11.0672,11.0711,11.0596,11.036,11.0126,10.962,11.8369,11.7061,11.583,11.483,11.406,11.3599,11.2406,11.0829,11.056,10.8944,10.6559,10.602,10.5597,10.5251,10.5146,10.5405,10.5944,10.5867,10.5597,10.529,10.5636,10.5597,10.5251,10.4789,10.4559,10.453,10.4097,10.3674,10.3328,10.3289,10.2866,10.2058,10.202,10.1827,10.1443,10.0981,10.0337,9.949,9.8173,9.7673,9.8057,9.6519,9.5711,9.5711,9.4095,9.2941,9.2249,9.1287,9.0402,8.9594,8.9133,8.9633,9.121,9.2556,9.3787,9.4989,9.7143,9.8327,9.8211,10.0327,10.2058,10.3251,10.529,10.6213,10.5443,10.5713,10.6444,10.7636,10.7752,10.8293,10.9588,10.9753,11.0169,11.1172,11.135,11.174,11.2569,11.2823,11.308,11.3506,11.3613,11.3671,11.3786,11.3826,11.3973,11.4523,11.4638,11.4669,11.4625,11.4356,11.3857,11.3174,11.3056,11.3074,11.3116,11.3088,11.29,11.2548,11.2509,11.2158,11.1416,11.1182,11.1026,11.0594,11.0516,11.0711,11.1065,11.1221,11.1377,11.1846,11.1924,11.1807,11.1377,11.0868,11.0204,11.8869,11.7946,11.6484,11.5522,11.4945,11.406,11.256,11.0944,11.1752,11.0791,10.8598,10.7444,10.6664,10.6059,10.5597,10.602,10.6982,10.6828,10.6482,10.6126,10.6318,10.6213,10.5828,10.5136,10.4828,10.4761,10.4184,10.3789,10.3635,10.3789,10.3558,10.2943,10.2904,10.2904,10.2866,10.2058,10.1212,10.0337,9.8865,9.798,9.7788,9.6826,9.6596,9.7019,9.5326,9.4826,9.5826,9.4287,9.3364,9.3326,9.271,9.2749,9.3633,9.522,9.622,9.6643,9.9067,10.0442,10.0183,10.2366,10.4174,10.4751,10.6559,10.7867,10.8213,10.8252,10.8482,10.9098,10.9136,10.9553,11.0395,11.0559,11.0947,11.1885,11.203,11.2436,11.3237,11.3419,11.3689,11.4333,11.4467,11.4452,11.4641,11.4691,11.4825,11.5118,11.5251,11.5237,11.5244,11.5146,11.4501,11.3759,11.3335,11.3321,11.3298,11.3168,11.3064,11.3033,11.3042,11.2732,11.2227,11.2076,11.1885,11.1377,11.1182,11.1455,11.1963,11.208,11.2314,11.2785,11.2902,11.2785,11.2197,11.165,11.0907,11.9715,11.8908,11.7907,11.6215,11.4176,11.3253,11.2714,11.2252,11.106,11.0791,11.0857,10.9406,10.7405,10.552,10.5982,10.5982,10.5674,10.6905,10.6713,10.5482,10.602,10.5587,10.4366,10.4097,10.402,10.4059,10.3943,10.352,10.2943,10.3558,10.3876,10.3789,10.3789,10.3751,10.3635,10.2866,10.2058,10.1212,10.0289,9.949,9.8634,9.7134,9.6326,9.6403,9.6249,9.5749,9.5489,9.5672,9.5942,9.5942,9.5903,9.6211,9.7096,9.8644,9.9913,10.0596,10.1712,10.2635,10.3328,10.3712,10.4905,10.7059,10.7521,10.8406,10.9713,10.9944,10.9983,11.006,11.0098,11.0455,11.1263,11.1378,11.1707,11.2421,11.2688,11.3135,11.3849,11.4123,11.4259,11.4269,11.4501,11.4356,11.4559,11.4625,11.491,11.57,11.5781,11.5759,11.572,11.5383,11.5072,11.4624,11.4249,11.3929,11.3867,11.337,11.3014,11.2939,11.3027,11.2978,11.2871,11.2849,11.2863,11.247,11.2626,11.2665,11.2785,11.298,11.2941,11.3019,11.3097,11.3058,11.298,11.2785,11.2197,12.0139,11.9677,11.8369,11.6638,11.4753,11.383,11.3176,11.2637,11.1983,11.1637,11.1434,11.0752,10.929,10.7328,10.6713,10.6472,10.6674,10.6828,10.6587,10.5905,10.6241,10.602,10.5405,10.4828,10.4607,10.4569,10.4135,10.3712,10.3482,10.3751,10.3905,10.3905,10.3905,10.3905,10.3828,10.302,10.2404,10.2058,10.075,9.9913,9.949,9.8404,9.8019,9.849,9.8557,9.8634,9.875,9.9096,9.925,9.924,9.925,9.9404,9.9712,10.0442,10.0943,10.1317,10.2097,10.3212,10.452,10.5059,10.5828,10.6895,10.8329,10.9521,11.0137,11.0675,11.0983,11.0983,11.0944,11.1137,11.1472,11.1934,11.2329,11.2714,11.3219,11.3867,11.4714,11.4872,11.5048,11.551,11.5587,11.5619,11.5692,11.5773,11.5968,11.6325,11.6374,11.6335,11.6345,11.6131,11.6079,11.5919,11.508,11.4218,11.3934,11.3292,11.2875,11.284,11.2946,11.3031,11.3095,11.3118,11.3097,11.3097,11.3097,11.3097,11.3058,11.3097,11.3097,11.3097,11.3097,11.3097,11.3097,11.3097,11.2704,12.0716,12.0062,11.8523,11.683,11.5253,11.4368,11.3483,11.2703,11.2483,11.206,11.1549,11.1511,11.0675,10.9213,10.7944,10.7675,10.7944,10.7598,10.7164,10.6828,10.6751,10.6636,10.6367,10.579,10.5443,10.5366,10.4905,10.4482,10.4251,10.3982,10.3905,10.3905,10.3905,10.3905,10.3828,10.3251,10.2828,10.252,10.1366,10.0683,10.0404,9.9827,9.9673,10.0106,10.0568,10.0943,10.1279,10.151,10.1548,10.1317,10.1279,10.1279,10.1317,10.151,10.1741,10.2058,10.2828,10.3905,10.5366,10.6059,10.6703,10.7482,10.9252,11.0291,11.0598,11.1137,11.1472,11.1472,11.1511,11.1472,11.1588,11.2252,11.2742,11.306,11.383,11.4676,11.5495,11.5599,11.5841,11.6369,11.6364,11.6517,11.6605,11.6603,11.6617,11.6655,11.6666,11.6743,11.6743,11.6686,11.6748,11.6846,11.5457,11.441,11.401,11.3157,11.2756,11.2737,11.281,11.2936,11.3027,11.3061,11.3093,11.3093,11.3095,11.3097,11.3097,11.3097,11.3097,11.3097,11.3097,11.3097,11.3097,11.3097,11.3097,12.1831,12.0139,11.8523,11.6907,11.5264,11.4407,11.356,11.2753,11.1972,11.1549,11.1549,11.1549,11.1021,11.0263,11.006,10.956,10.8983,10.9444,10.8906,10.7636,10.7559,10.7175,10.6433,10.6356,10.6318,10.6213,10.6126,10.5751,10.502,10.4328,10.3905,10.3943,10.3982,10.3905,10.3866,10.3751,10.3405,10.2635,10.2327,10.202,10.1327,10.1164,10.0827,10.0452,10.1597,10.1981,10.1471,10.2087,10.2174,10.1317,10.1394,10.1356,10.1394,10.2135,10.2866,10.3674,10.453,10.5366,10.6174,10.6521,10.7482,10.9483,11.006,11.056,11.1252,11.1434,11.1511,11.1511,11.1511,11.1511,11.1665,11.2406,11.3137,11.3868,11.4714,11.5561,11.6292,11.6292,11.6418,11.6484,11.6484,11.6495,11.6506,11.6506,11.6529,11.6529,11.6517,11.6529,11.6551,11.6616,11.6708,11.6431,11.5511,11.4404,11.4447,11.3273,11.2482,11.2653,11.2938,11.2857,11.2906,11.3015,11.3095,11.3086,11.3088,11.309,11.3095,11.3097,11.3097,11.3097,11.3097,11.3097,11.3097,11.3097,11.3097,12.1166,12.0098,11.9065,11.7946,11.6792,11.5407,11.433,11.3483,11.2626,11.2291,11.2252,11.228,11.2406,11.2599,11.206,11.0714,10.8983,10.8713,10.8252,10.7636,10.7136,10.6703,10.6433,10.6395,10.6395,10.6395,10.6395,10.6241,10.5982,10.5597,10.5213,10.4713,10.4674,10.4443,10.3905,10.3366,10.2904,10.2597,10.2097,10.1625,10.1433,10.1827,10.1981,10.1712,10.1712,10.1625,10.1317,10.2135,10.2443,10.2135,10.2674,10.2981,10.2981,10.3251,10.3789,10.4636,10.5443,10.6328,10.7213,10.8252,10.9175,11.006,11.0752,11.1137,11.1434,11.1511,11.1511,11.1511,11.1511,11.1665,11.2319,11.3022,11.3868,11.4753,11.5561,11.6138,11.6418,11.6484,11.6484,11.6484,11.6484,11.6484,11.6484,11.6484,11.6484,11.6484,11.6484,11.6484,11.6495,11.6529,11.66,11.6408,11.5709,11.4985,11.5108,11.3351,11.2266,11.2983,11.3385,11.3445,11.3521,11.3588,11.3691,11.3051,11.3036,11.3069,11.3069,11.3088,11.309,11.3097,11.3097,11.3097,11.3097,11.3097,11.3097,12.099,12.0003,11.9282,11.8484,11.7485,11.5871,11.4702,11.389,11.3005,11.2517,11.2395,11.2599,11.3022,11.3445,11.2983,11.1868,11.0098,10.906,10.8213,10.7675,10.7098,10.6664,10.6433,10.6395,10.6395,10.6395,10.6395,10.6395,10.6395,10.6395,10.6059,10.552,10.552,10.5136,10.4289,10.3712,10.3328,10.2981,10.2443,10.2135,10.2174,10.2443,10.2597,10.2481,10.1741,10.1433,10.1712,10.2289,10.2443,10.2327,10.2751,10.3174,10.3443,10.402,10.4674,10.5482,10.6328,10.7328,10.8406,10.956,11.0301,11.0598,11.1137,11.1511,11.1511,11.1511,11.1511,11.1511,11.178,11.2203,11.306,11.3907,11.4638,11.5291,11.6022,11.6484,11.6484,11.6484,11.6484,11.6484,11.6484,11.6484,11.6484,11.6484,11.6484,11.6484,11.6484,11.6484,11.6484,11.6484,11.6484,11.6418,11.5814,11.5368,11.5188,11.3912,11.3188,11.3722,11.3979,11.4065,11.4016,11.4114,11.3849,11.3186,11.2925,11.3015,11.3051,11.3072,11.3084,11.3093,11.3097,11.3097,11.3097,11.3097,11.3097,12.1438,11.9942,11.9022,11.828,11.7372,11.5761,11.4543,11.3831,11.2947,11.2313,11.1879,11.2385,11.2769,11.278,11.2703,11.2549,11.2099,11.0637,10.9175,10.7905,10.7675,10.7164,10.6433,10.6395,10.6395,10.6395,10.6395,10.6395,10.6395,10.6395,10.6318,10.6318,10.628,10.5867,10.5097,10.4943,10.4559,10.402,10.3712,10.3712,10.3751,10.3097,10.2712,10.2597,10.1943,10.1866,10.2558,10.2558,10.2135,10.1471,10.1433,10.175,10.2904,10.4251,10.5482,10.6367,10.7251,10.8482,10.9829,11.0186,11.0714,11.1214,11.1483,11.1511,11.1511,11.1511,11.1549,11.1742,11.2252,11.3022,11.3907,11.4676,11.5264,11.5418,11.6099,11.6446,11.6484,11.6484,11.6484,11.6484,11.6484,11.6484,11.6484,11.6484,11.6484,11.6484,11.6484,11.6484,11.6457,11.638,11.6407,11.6253,11.5649,11.5066,11.49,11.4715,11.4597,11.4583,11.4637,11.4677,11.437,11.4331,11.3883,11.3283,11.2848,11.2917,11.2963,11.2991,11.3064,11.3074,11.3084,11.3093,11.3097,11.3097,11.3097,12.1639,12.0541,11.9214,11.8562,11.8063,11.6453,11.5289,11.4507,11.3625,11.2805,11.2237,11.2405,11.29,11.3076,11.2401,11.2165,11.2522,11.0983,10.9598,10.8598,10.8021,10.729,10.6587,10.6395,10.6395,10.6395,10.6395,10.6395,10.6395,10.6395,10.6395,10.6395,10.6395,10.629,10.602,10.5405,10.4915,10.4723,10.4174,10.3905,10.3905,10.3635,10.3482,10.3443,10.3212,10.3251,10.3405,10.2366,10.1625,10.1356,10.1317,10.1971,10.3443,10.5097,10.6367,10.729,10.8675,10.956,11.0137,11.0752,11.1175,11.1434,11.1511,11.1511,11.1511,11.1511,11.1791,11.2214,11.2599,11.3253,11.4561,11.5099,11.5533,11.6072,11.638,11.6484,11.6484,11.6484,11.6484,11.6484,11.6484,11.6484,11.6484,11.6484,11.6484,11.6484,11.6484,11.6484,11.6457,11.6072,11.5687,11.561,11.4995,11.4725,11.4769,11.4966,11.5111,11.5147,11.5282,11.516,11.486,11.4554,11.4091,11.3522,11.3111,11.2961,11.2987,11.3014,11.3122,11.3123,11.3137,11.3113,11.309,11.3095,11.309,12.1643,12.0777,11.9212,11.8562,11.8332,11.6685,11.5523,11.4756,11.3887,11.3069,11.24,11.2107,11.2509,11.2943,11.2044,11.178,11.2126,11.1098,11.0214,10.9444,10.8906,10.8175,10.7444,10.7328,10.7136,10.6895,10.6867,10.6703,10.6395,10.6395,10.6549,10.6828,10.6905,10.7059,10.7213,10.6521,10.6059,10.5944,10.529,10.4828,10.4751,10.452,10.4328,10.4289,10.4059,10.3905,10.3789,10.2828,10.2251,10.2404,10.2818,10.3751,10.4866,10.6405,10.7713,10.8636,10.9521,11.0301,11.0675,11.1203,11.1511,11.1511,11.1511,11.1665,11.1857,11.1934,11.2329,11.3022,11.3522,11.4137,11.5061,11.561,11.5957,11.6418,11.6495,11.6484,11.6484,11.6484,11.6484,11.6484,11.6484,11.6484,11.6484,11.6484,11.6484,11.6484,11.6484,11.6484,11.633,11.5792,11.5445,11.5072,11.4649,11.4561,11.4753,11.5083,11.5489,11.5713,11.5954,11.5717,11.5465,11.5208,11.4809,11.4143,11.3604,11.3713,11.3766,11.3496,11.3473,11.3346,11.3324,11.3081,11.3059,11.3077,11.3118,12.1504,12.0625,11.8996,11.8322,11.8093,11.6487,11.5407,11.472,11.3903,11.3124,11.2391,11.183,11.1872,11.224,11.1687,11.1395,11.1483,11.1472,11.0983,11.0483,11.0214,10.9829,10.8944,10.8675,10.8252,10.7829,10.7752,10.7367,10.6856,10.6818,10.6933,10.7675,10.779,10.8098,10.8406,10.8059,10.7675,10.7521,10.6828,10.6367,10.6328,10.5597,10.5251,10.529,10.4751,10.4482,10.4636,10.452,10.4212,10.4174,10.529,10.6164,10.6713,10.8059,10.929,10.9944,11.0214,11.0791,11.1318,11.1665,11.178,11.1906,11.1934,11.1906,11.2626,11.2829,11.3137,11.3984,11.4638,11.5226,11.5533,11.5957,11.638,11.6457,11.6484,11.6484,11.6484,11.6484,11.6484,11.6484,11.6484,11.6484,11.6484,11.6484,11.6484,11.6484,11.6484,11.6457,11.611,11.561,11.5264,11.4676,11.3907,11.406,11.4137,11.4599,11.5083,11.6012,11.6252,11.6113,11.5848,11.562,11.5167,11.4517,11.4211,11.4348,11.4363,11.4069,11.3989,11.408,11.3806,11.3287,11.3279,11.3561,11.3508,12.1542,12.0625,11.8982,11.8308,11.8041,11.6422,11.5595,11.5329,11.454,11.3686,11.2947,11.229,11.2102,11.2202,11.1127,11.0868,11.1318,11.1511,11.1434,11.1291,11.1829,11.1175,10.9944,10.9213,10.8829,10.8598,10.8598,10.8482,10.8252,10.8136,10.829,10.8559,10.8598,10.8675,10.8829,10.8713,10.8598,10.8482,10.7752,10.7328,10.7213,10.6521,10.6405,10.6944,10.6751,10.6944,10.7482,10.7559,10.6597,10.502,10.6444,10.7328,10.7482,10.8906,10.9944,11.0252,11.0868,11.1522,11.2137,11.2357,11.2665,11.3253,11.3176,11.3445,11.3599,11.3676,11.4099,11.4753,11.5215,11.5572,11.6072,11.6341,11.6484,11.6484,11.6484,11.6484,11.6484,11.6484,11.6484,11.6484,11.6484,11.6484,11.6484,11.6484,11.6484,11.6484,11.6457,11.6341,11.5918,11.5022,11.4522,11.3445,11.2829,11.3214,11.356,11.4022,11.4791,11.6034,11.6375,11.6397,11.6115,11.5794,11.5193,11.4482,11.4487,11.4586,11.4662,11.4544,11.4667,11.4766,11.4573,11.4212,11.4541,11.4806,11.438,12.1237,12.0663,11.8982,11.8308,11.8079,11.6422,11.5696,11.5543,11.4817,11.4015,11.3188,11.2536,11.2108,11.1722,11.1067,11.0791,11.0983,11.1329,11.1511,11.1637,11.228,11.1906,11.0868,11.0175,10.9829,10.9444,10.9444,10.9213,10.8906,10.8906,10.906,10.9367,10.9444,10.9598,11.006,10.9598,10.9444,10.9252,10.8367,10.7829,10.8098,10.7367,10.7482,10.8021,10.8213,10.8482,10.8829,10.8867,10.7982,10.6867,10.7444,10.8213,10.8329,10.9444,11.0367,11.0714,11.156,11.2242,11.2637,11.3022,11.3445,11.3868,11.3984,11.4214,11.4445,11.4561,11.4907,11.5676,11.5792,11.6072,11.633,11.6484,11.6484,11.6484,11.6484,11.6484,11.6484,11.6484,11.6484,11.6484,11.6484,11.6484,11.6484,11.6484,11.6484,11.6484,11.6484,11.6264,11.5918,11.4753,11.383,11.3176,11.2637,11.2983,11.3637,11.4137,11.4714,11.588,11.6457,11.6495,11.6287,11.5984,11.5636,11.5162,11.4953,11.4926,11.5163,11.5295,11.5274,11.5304,11.5262,11.5172,11.5295,11.5563,11.5194,12.0778,12.0663,11.8996,11.8308,11.8041,11.646,11.5696,11.5543,11.5008,11.4206,11.3418,11.2727,11.2146,11.125,11.1413,11.1098,11.0483,11.1406,11.1626,11.1906,11.2291,11.2175,11.1434,11.1242,11.0868,11.0406,11.0329,10.9983,10.9598,10.9367,10.9637,11.0175,11.0329,11.0714,11.0983,11.0637,11.0367,11.006,10.8944,10.8406,10.8636,10.8175,10.8175,10.8636,10.9252,10.9329,10.9406,10.929,10.8829,10.7982,10.8675,10.8983,10.9136,10.9867,11.0752,11.1522,11.2214,11.2703,11.3099,11.383,11.4214,11.4407,11.4445,11.4561,11.5215,11.5418,11.5676,11.6292,11.6446,11.6457,11.6457,11.6484,11.6484,11.6484,11.6484,11.6484,11.6484,11.6484,11.6484,11.6484,11.6484,11.6484,11.6484,11.6484,11.6484,11.6484,11.6446,11.6226,11.5841,11.5061,11.433,11.383,11.3368,11.2983,11.3676,11.4368,11.4984,11.5753,11.6303,11.6446,11.638,11.6221,11.6177,11.6,11.5706,11.5807,11.6207,11.6219,11.5945,11.5889,11.5885,11.5599,11.5403,11.5799,11.5768,12.0778,12.0663,11.8982,11.8308,11.8002,11.646,11.5696,11.5658,11.5505,11.4894,11.4195,11.357,11.2798,11.1967,11.1671,11.1368,11.1252,11.1906,11.2434,11.2472,11.256,11.2252,11.1665,11.1511,11.1395,11.1165,11.1214,11.1098,11.0895,11.0752,11.1011,11.1175,11.1214,11.1318,11.1434,11.1395,11.1203,11.1021,11.0098,10.9329,10.9021,10.8867,10.8752,10.9136,11.0175,11.0857,11.0944,11.0944,11.0521,10.9944,10.9752,10.979,10.9983,11.0675,11.1522,11.2214,11.2626,11.333,11.4445,11.4868,11.5303,11.5715,11.5753,11.6034,11.6138,11.6187,11.6292,11.6484,11.6484,11.6484,11.6484,11.6484,11.6484,11.6484,11.6484,11.6484,11.6484,11.6484,11.6484,11.6484,11.6484,11.6484,11.6484,11.6484,11.6484,11.6484,11.6369,11.6176,11.5764,11.5264,11.4791,11.4291,11.4099,11.3791,11.4291,11.4907,11.5445,11.5869,11.6253,11.6484,11.6418,11.638,11.6336,11.6375,11.6375,11.6567,11.6652,11.6673,11.6323,11.6422,11.6469,11.6297,11.6168,11.6387,11.6328,12.0549,12.0052,11.8843,11.8065,11.7492,11.6308,11.5696,11.5696,11.5696,11.5238,11.4501,11.3889,11.3105,11.2285,11.1747,11.1511,11.1588,11.1895,11.2126,11.2088,11.2126,11.1895,11.1626,11.1511,11.1511,11.1511,11.1511,11.1511,11.1511,11.1549,11.1626,11.2049,11.2011,11.2049,11.2049,11.2011,11.1819,11.1368,11.0675,11.0098,11.0098,10.9713,10.979,11.0098,11.1011,11.1511,11.1472,11.1021,11.0637,11.0329,11.0214,11.0214,11.0329,11.1021,11.1868,11.2599,11.3599,11.4176,11.5138,11.5676,11.6022,11.6457,11.6484,11.6484,11.6484,11.6484,11.6484,11.6484,11.6484,11.6484,11.6484,11.6484,11.6484,11.6484,11.6484,11.6484,11.6484,11.6484,11.6484,11.6484,11.6484,11.6484,11.6484,11.6484,11.6484,11.6484,11.6484,11.633,11.6138,11.5638,11.5226,11.483,11.4714,11.4753,11.5099,11.5561,11.5945,11.6215,11.6369,11.6484,11.6457,11.6446,11.6457,11.6495,11.6457,11.6506,11.6583,11.6622,11.6665,11.6627,11.6642,11.6826,11.6837,11.6633,11.6564,12.032,11.9441,11.8652,11.7798,11.6905,11.6078,11.5696,11.5696,11.5696,11.5366,11.4667,11.3965,11.3232,11.2536,11.1797,11.1549,11.1511,11.1511,11.1665,11.1665,11.1665,11.1588,11.1511,11.1511,11.1511,11.1511,11.1511,11.1511,11.1511,11.1549,11.1742,11.2319,11.2445,11.2368,11.2599,11.2483,11.2175,11.1714,11.0983,11.056,11.0944,11.056,11.0752,11.1165,11.1395,11.1511,11.1395,11.0983,11.0483,11.0367,11.0483,11.056,11.0752,11.1214,11.2175,11.306,11.4445,11.5149,11.5599,11.6072,11.6407,11.6484,11.6484,11.6484,11.6484,11.6484,11.6484,11.6484,11.6484,11.6484,11.6484,11.6484,11.6484,11.6484,11.6484,11.6484,11.6484,11.6484,11.6484,11.6484,11.6484,11.6484,11.6484,11.6484,11.6484,11.6484,11.6484,11.6446,11.6253,11.6099,11.5676,11.5533,11.5484,11.5445,11.5753,11.5869,11.6292,11.6369,11.6484,11.6484,11.6484,11.6484,11.6484,11.6484,11.6495,11.6506,11.6506,11.6529,11.6573,11.6665,11.6697,11.6691,11.6733,11.6774,11.6727,12.0281,11.9441,11.8652,11.7798,11.6919,11.6078,11.5696,11.5696,11.5696,11.5686,11.546,11.4232,11.3625,11.3166,11.2022,11.1549,11.1549,11.1511,11.1511,11.1511,11.1511,11.1511,11.1511,11.1511,11.1511,11.1511,11.1511,11.1511,11.1511,11.1549,11.1703,11.1742,11.1829,11.2099,11.2483,11.2165,11.228,11.2406,11.1791,11.1329,11.0944,11.106,11.1214,11.1511,11.1511,11.1511,11.1511,11.1357,11.1291,11.1329,11.1895,11.2175,11.2329,11.2483,11.3291,11.4407,11.5061,11.5649,11.611,11.633,11.6484,11.6484,11.6484,11.6484,11.6484,11.6484,11.6484,11.6484,11.6484,11.6484,11.6484,11.6484,11.6484,11.6484,11.6484,11.6484,11.6484,11.6484,11.6484,11.6484,11.6484,11.6484,11.6484,11.6484,11.6484,11.6484,11.6484,11.6484,11.6407,11.6369,11.6253,11.6253,11.633,11.6292,11.6369,11.633,11.6446,11.6446,11.6484,11.6484,11.6484,11.6484,11.6484,11.6484,11.6484,11.6495,11.6495,11.6484,11.6506,11.6562,11.6551,11.654,11.6583,11.6648,11.6648,12.0052,11.8868,11.8447,11.753,11.6384,11.5887,11.5696,11.5696,11.5696,11.5736,11.5497,11.4731,11.4023,11.3516,11.2676,11.1934,11.1588,11.1511,11.1511,11.1511,11.1511,11.1511,11.1511,11.1511,11.1511,11.1511,11.1511,11.1511,11.1511,11.1511,11.1714,11.2088,11.2137,11.256,11.3137,11.3099,11.2983,11.3176,11.2906,11.2329,11.1483,11.1637,11.1511,11.1549,11.1549,11.1511,11.1511,11.1511,11.1742,11.2088,11.2483,11.3137,11.3714,11.4099,11.4368,11.5215,11.5687,11.6034,11.6418,11.6484,11.6484,11.6484,11.6484,11.6484,11.6484,11.6484,11.6484,11.6484,11.6484,11.6484,11.6484,11.6484,11.6484,11.6484,11.6484,11.6484,11.6484,11.6484,11.6484,11.6484,11.6484,11.6484,11.6484,11.6484,11.6484,11.6484,11.6484,11.6484,11.6484,11.6484,11.6484,11.6341,11.6341,11.6303,11.6303,11.6303,11.6446,11.6484,11.6484,11.6484,11.6484,11.6484,11.6484,11.6484,11.6484,11.6484,11.6484,11.6484,11.6484,11.6484,11.6506,11.6506,11.6495,11.6506,11.654,11.9632,11.8308,11.8103,11.711,11.5849,11.5696,11.5696,11.5696,11.5696,11.5723,11.5648,11.5115,11.4473,11.3814,11.3054,11.2242,11.1549,11.1511,11.1511,11.1511,11.1511,11.1511,11.1511,11.1511,11.1511,11.1511,11.1511,11.1511,11.1511,11.1511,11.1868,11.2099,11.2406,11.2868,11.3407,11.3099,11.3637,11.3945,11.3753,11.3368,11.2906,11.2368,11.2022,11.2022,11.1983,11.2088,11.2214,11.2203,11.2472,11.2906,11.333,11.3868,11.5033,11.5456,11.5533,11.5638,11.6187,11.6418,11.6484,11.6484,11.6484,11.6484,11.6484,11.6484,11.6484,11.6484,11.6484,11.6484,11.6484,11.6484,11.6484,11.6484,11.6484,11.6484,11.6484,11.6484,11.6484,11.6484,11.6484,11.6484,11.6484,11.6484,11.6484,11.6484,11.6484,11.6484,11.6484,11.6484,11.6484,11.6484,11.6418,11.6226,11.611,11.611,11.6072,11.5995,11.6226,11.6484,11.6484,11.6484,11.6484,11.6484,11.6484,11.6484,11.6484,11.6484,11.6484,11.6484,11.6484,11.6484,11.6484,11.6484,11.6484,11.6484,11.6506,11.9135,11.8232,11.7492,11.6575,11.5773,11.5696,11.5696,11.5696,11.5696,11.5763,11.5803,11.5154,11.4832,11.4499,11.3329,11.2319,11.1819,11.1742,11.1819,11.1857,11.1703,11.1703,11.1626,11.1511,11.1665,11.1665,11.1626,11.1511,11.1511,11.1511,11.1549,11.1742,11.1819,11.2099,11.2906,11.2599,11.2599,11.3599,11.3291,11.3253,11.3714,11.3676,11.356,11.356,11.3522,11.3483,11.3368,11.3368,11.3599,11.383,11.4561,11.5022,11.5418,11.6034,11.6303,11.638,11.6446,11.6484,11.6484,11.6484,11.6484,11.6484,11.6484,11.6484,11.6484,11.6484,11.6484,11.6484,11.6484,11.6484,11.6484,11.6484,11.6484,11.6484,11.6484,11.6484,11.6484,11.6484,11.6484,11.6484,11.6484,11.6484,11.6484,11.6484,11.6484,11.6484,11.6484,11.6484,11.6484,11.6484,11.6418,11.6226,11.611,11.611,11.6149,11.6034,11.6149,11.6446,11.6484,11.6484,11.6484,11.6484,11.6484,11.6484,11.6484,11.6484,11.6484,11.6484,11.6484,11.6484,11.6484,11.6484,11.6484,11.6484,11.6484,11.8614,11.8232,11.7377,11.6499,11.5734,11.5696,11.5696,11.5696,11.5696,11.5723,11.5764,11.5562,11.5292,11.4868,11.3851,11.3291,11.2945,11.2868,11.2906,11.2676,11.2483,11.2445,11.2753,11.2445,11.2175,11.2126,11.2088,11.1857,11.1703,11.1511,11.1511,11.1511,11.1549,11.1945,11.256,11.2319,11.2945,11.356,11.3714,11.3907,11.4368,11.4291,11.4022,11.4022,11.406,11.406,11.406,11.3984,11.4291,11.4599,11.5176,11.5572,11.5907,11.6303,11.6495,11.6495,11.6484,11.6484,11.6484,11.6484,11.6484,11.6484,11.6484,11.6484,11.6484,11.6484,11.6484,11.6484,11.6484,11.6484,11.6484,11.6484,11.6484,11.6484,11.6484,11.6484,11.6484,11.6484,11.6484,11.6484,11.6484,11.6484,11.6484,11.6484,11.6484,11.6484,11.6484,11.6484,11.6484,11.6484,11.6418,11.6264,11.6226,11.6187,11.6264,11.6264,11.6264,11.6457,11.6484,11.6484,11.6484,11.6484,11.6484,11.6484,11.6484,11.6484,11.6484,11.6484,11.6484,11.6484,11.6484,11.6484,11.6484,11.6484,11.6484,11.8308,11.8194,11.7148,11.6308,11.5734,11.5696,11.5696,11.5696,11.5696,11.5696,11.575,11.5804,11.5585,11.5063,11.4521,11.4176,11.3907,11.3984,11.3984,11.3753,11.3483,11.3445,11.3407,11.3099,11.2637,11.2714,11.2252,11.1972,11.1665,11.1511,11.1511,11.1511,11.1511,11.178,11.2214,11.2319,11.2665,11.3445,11.4099,11.4599,11.5072,11.4907,11.4753,11.4676,11.4599,11.4599,11.4599,11.4676,11.5099,11.5407,11.5638,11.5957,11.6341,11.6446,11.6484,11.6484,11.6484,11.6484,11.6484,11.6484,11.6484,11.6484,11.6484,11.6484,11.6484,11.6484,11.6484,11.6484,11.6484,11.6484,11.6484,11.6484,11.6484,11.6484,11.6484,11.6484,11.6484,11.6484,11.6484,11.6484,11.6484,11.6484,11.6484,11.6484,11.6484,11.6484,11.6484,11.6484,11.6484,11.6484,11.6264,11.611,11.5957,11.5918,11.5995,11.611,11.6264,11.6457,11.6495,11.6484,11.6484,11.6484,11.6484,11.6484,11.6484,11.6484,11.6484,11.6484,11.6484,11.6484,11.6484,11.6484,11.6484,11.6484,11.6484,11.8308,11.8155,11.6499,11.5811,11.5696,11.5696,11.5696,11.5696,11.5696,11.5696,11.5736,11.5907,11.5649,11.5171,11.5129,11.4819,11.4099,11.4022,11.4214,11.4176,11.3945,11.406,11.3984,11.356,11.2906,11.2829,11.2676,11.2165,11.1626,11.1934,11.1742,11.1511,11.178,11.1626,11.1742,11.206,11.2406,11.3253,11.4099,11.4868,11.5368,11.5638,11.6034,11.6138,11.6215,11.6292,11.6292,11.611,11.6072,11.6264,11.6215,11.6253,11.6457,11.6341,11.6303,11.6495,11.633,11.638,11.6457,11.6484,11.6446,11.6484,11.6495,11.6418,11.6292,11.6446,11.6484,11.6484,11.6484,11.6484,11.6484,11.6484,11.6484,11.6484,11.6484,11.6484,11.6484,11.6484,11.6484,11.6484,11.6484,11.6484,11.6484,11.6484,11.6484,11.6484,11.6484,11.6484,11.6484,11.6446,11.611,11.588,11.5649,11.5522,11.5484,11.5676,11.6149,11.638,11.6495,11.6484,11.6484,11.6484,11.6484,11.6484,11.6484,11.6484,11.6484,11.6484,11.6484,11.6484,11.6484,11.6484,11.6484,11.6484,11.6484,11.7989,11.7377,11.6193,11.5696,11.5696,11.5696,11.5696,11.5696,11.5696,11.5696,11.571,11.5855,11.5829,11.571,11.5816,11.5801,11.555,11.5561,11.5484,11.533,11.5138,11.5138,11.4984,11.4714,11.433,11.4137,11.3868,11.3445,11.3137,11.2868,11.3022,11.2945,11.2511,11.2291,11.2252,11.2291,11.2714,11.3176,11.3714,11.4099,11.5291,11.5561,11.5995,11.6484,11.6484,11.6484,11.6446,11.6446,11.6484,11.6446,11.6407,11.633,11.6253,11.5995,11.6072,11.6341,11.6099,11.6149,11.6418,11.6457,11.6303,11.5907,11.6149,11.6341,11.6061,11.6226,11.6457,11.6484,11.6484,11.6484,11.6484,11.6484,11.6484,11.6484,11.6484,11.6484,11.6484,11.6484,11.6484,11.6484,11.6484,11.6484,11.6484,11.6484,11.6484,11.6484,11.6484,11.6484,11.6484,11.6484,11.6187,11.6072,11.588,11.5869,11.5869,11.5984,11.6138,11.6292,11.6484,11.6484,11.6484,11.6484,11.6484,11.6484,11.6484,11.6484,11.6484,11.6484,11.6484,11.6484,11.6484,11.6484,11.6484,11.6484,11.6484,11.7798,11.6919,11.6078,11.5696,11.5696,11.5696,11.5696,11.5696,11.5696,11.5696,11.571,11.5842,11.5983,11.6108,11.6241,11.6332,11.6308,11.6369,11.6407,11.6226,11.5957,11.6034,11.6072,11.5726,11.5061,11.5253,11.4907,11.4368,11.383,11.3945,11.383,11.3714,11.3676,11.3445,11.3099,11.3137,11.333,11.3368,11.3522,11.3291,11.4522,11.4791,11.5061,11.5599,11.5561,11.5561,11.5522,11.5522,11.5561,11.5561,11.5599,11.5687,11.5599,11.5561,11.5649,11.5792,11.5945,11.5957,11.6303,11.6418,11.6264,11.6034,11.6187,11.6149,11.5984,11.6187,11.6457,11.6484,11.6484,11.6484,11.6484,11.6484,11.6484,11.6484,11.6484,11.6484,11.6484,11.6484,11.6484,11.6484,11.6484,11.6484,11.6484,11.6484,11.6484,11.6484,11.6484,11.6484,11.6484,11.6484,11.6446,11.638,11.6341,11.6369,11.6446,11.6369,11.6292,11.633,11.6484,11.6484,11.6484,11.6484,11.6484,11.6484,11.6484,11.6484,11.6484,11.6484,11.6484,11.6484,11.6484,11.6484,11.6484,11.6484,11.6484,11.776,11.6905,11.604,11.5696,11.5696,11.5696,11.5696,11.5696,11.5696,11.5696,11.571,11.5829,11.5958,11.6095,11.6205,11.6335,11.6439,11.6484,11.6484,11.6418,11.6341,11.6418,11.6226,11.5841,11.5572,11.5138,11.4945,11.4638,11.4214,11.4445,11.433,11.4484,11.4753,11.4753,11.406,11.3984,11.3599,11.3022,11.3676,11.3522,11.3483,11.3945,11.4291,11.4407,11.4484,11.4561,11.4561,11.4561,11.4561,11.4561,11.4522,11.4561,11.4638,11.5022,11.5253,11.5522,11.6061,11.6341,11.6484,11.6484,11.638,11.6226,11.6264,11.6303,11.6369,11.6446,11.6484,11.6484,11.6484,11.6484,11.6484,11.6484,11.6484,11.6484,11.6484,11.6484,11.6484,11.6484,11.6484,11.6484,11.6484,11.6484,11.6484,11.6484,11.6484,11.6484,11.6484,11.6484,11.6484,11.6484,11.6484,11.6484,11.6484,11.6484,11.6484,11.6484,11.6446,11.6484,11.6484,11.6484,11.6484,11.6484,11.6484,11.6484,11.6484,11.6484,11.6484,11.6484,11.6484,11.6484,11.6484,11.6484,11.6484,11.6484,11.6484,11.6919,11.6117,11.5849,11.5696,11.5696,11.5696,11.5696,11.5696,11.5696,11.5696,11.5696,11.575,11.5842,11.5983,11.6108,11.6241,11.6359,11.6473,11.6484,11.6484,11.6484,11.6495,11.6341,11.6226,11.6034,11.6022,11.5676,11.5522,11.5715,11.5484,11.5599,11.583,11.5715,11.5918,11.5572,11.5253,11.4638,11.4407,11.4253,11.3868,11.3637,11.383,11.3984,11.3945,11.3907,11.3907,11.383,11.3791,11.3868,11.3907,11.3907,11.4214,11.4445,11.4907,11.5022,11.5572,11.6149,11.5984,11.6292,11.6457,11.6187,11.611,11.6226,11.6264,11.588,11.6253,11.6407,11.6484,11.6484,11.6484,11.6484,11.6484,11.6484,11.6484,11.6484,11.6484,11.6484,11.6484,11.6484,11.6484,11.6484,11.6484,11.6484,11.6484,11.6484,11.6484,11.6484,11.6484,11.6484,11.6484,11.6484,11.6484,11.6484,11.6484,11.6484,11.6484,11.6484,11.6484,11.6484,11.6484,11.6484,11.6484,11.6484,11.6484,11.6484,11.6484,11.6484,11.6484,11.6484,11.6484,11.6484,11.6484,11.6484,11.6484,11.6484,11.6766,11.5734,11.5696,11.5696,11.5696,11.5696,11.5696,11.5696,11.5696,11.5696,11.5696,11.5696,11.5776,11.5906,11.5996,11.6157,11.6289,11.637,11.6473,11.6473,11.6484,11.6484,11.6484,11.6484,11.638,11.6484,11.6484,11.6418,11.6341,11.6457,11.6369,11.633,11.6484,11.6369,11.6226,11.5918,11.5495,11.5138,11.4714,11.433,11.406,11.3945,11.383,11.3599,11.3445,11.3407,11.3291,11.3368,11.3599,11.3676,11.3907,11.4253,11.4561,11.483,11.4945,11.561,11.6072,11.5995,11.638,11.6484,11.6253,11.5945,11.6264,11.6226,11.588,11.6303,11.6407,11.6484,11.6484,11.6484,11.6484,11.6484,11.6484,11.6484,11.6484,11.6484,11.6484,11.6484,11.6484,11.6484,11.6484,11.6484,11.6484,11.6484,11.6484,11.6484,11.6484,11.6484,11.6484,11.6484,11.6484,11.6484,11.6484,11.6484,11.6484,11.6484,11.6484,11.6484,11.6484,11.6484,11.6484,11.6484,11.6484,11.6484,11.6484,11.6484,11.6484,11.6484,11.6484,11.6484,11.6484,11.6484,11.6484,11.6484,11.6484,11.7225,11.5811,11.5696,11.5696,11.5696,11.5696,11.5696,11.5696,11.5696,11.5696,11.5696,11.5696,11.5763,11.5868,11.5906,11.6033,11.6229,11.6277,11.637,11.645,11.6473,11.6484,11.6484,11.6484,11.6484,11.6484,11.6484,11.6484,11.6484,11.6484,11.6484,11.6484,11.6484,11.6484,11.6418,11.6341,11.5995,11.5599,11.5407,11.4945,11.4484,11.4214,11.3868,11.3522,11.3176,11.2906,11.2791,11.2829,11.2983,11.3214,11.3637,11.3945,11.433,11.4868,11.5138,11.5572,11.6149,11.6341,11.6457,11.6495,11.6446,11.6253,11.6407,11.6457,11.6457,11.6418,11.6457,11.6484,11.6484,11.6484,11.6484,11.6484,11.6484,11.6484,11.6484,11.6484,11.6484,11.6484,11.6484,11.6484,11.6484,11.6484,11.6484,11.6484,11.6484,11.6484,11.6484,11.6484,11.6484,11.6484,11.6484,11.6484,11.6484,11.6484,11.6484,11.6484,11.6484,11.6484,11.6484,11.6484,11.6484,11.6484,11.6484,11.6484,11.6484,11.6484,11.6484,11.6484,11.6484,11.6484,11.6484,11.6484,11.6484,11.6484,11.6484,11.6155,11.5696,11.5696,11.5696,11.5696,11.5696,11.5696,11.5696,11.5696,11.5696,11.5696,11.5696,11.5723,11.5763,11.5855,11.5945,11.6071,11.6193,11.6327,11.637,11.645,11.6473,11.6484,11.6484,11.6484,11.6484,11.6484,11.6484,11.6484,11.6484,11.6484,11.6484,11.6484,11.6484,11.6484,11.6484,11.6292,11.6138,11.6022,11.5561,11.5138,11.4907,11.4368,11.3868,11.3637,11.3368,11.3291,11.3407,11.3599,11.3753,11.3907,11.4214,11.4984,11.5215,11.5407,11.611,11.6418,11.6495,11.6484,11.6484,11.6484,11.6484,11.6484,11.6484,11.6495,11.6484,11.6484,11.6484,11.6484,11.6484,11.6484,11.6484,11.6484,11.6484,11.6484,11.6484,11.6484,11.6484,11.6484,11.6484,11.6484,11.6484,11.6484,11.6484,11.6484,11.6484,11.6484,11.6484,11.6484,11.6484,11.6484,11.6484,11.6484,11.6484,11.6484,11.6484,11.6484,11.6484,11.6484,11.6484,11.6484,11.6484,11.6484,11.6484,11.6484,11.6484,11.6484,11.6484,11.6484,11.6484,11.6484,11.6484,11.6484,11.6484,11.6484,11.6002,11.5734,11.5696,11.5696,11.5696,11.5696,11.5696,11.5696,11.5696,11.5696,11.5696,11.5696,11.5696,11.571,11.5789,11.5855,11.5932,11.6108,11.6241,11.6335,11.6428,11.6473,11.6484,11.6484,11.6484,11.6484,11.6484,11.6484,11.6484,11.6484,11.6484,11.6484,11.6484,11.6484,11.6484,11.6484,11.6484,11.6446,11.6369,11.6176,11.5907,11.5726,11.5226,11.4714,11.4522,11.4407,11.4176,11.4253,11.4522,11.4599,11.4676,11.5176,11.5764,11.5792,11.588,11.6418,11.6457,11.6484,11.6484,11.6484,11.6484,11.6484,11.6484,11.6484,11.6484,11.6484,11.6484,11.6484,11.6484,11.6484,11.6484,11.6484,11.6484,11.6484,11.6484,11.6484,11.6484,11.6484,11.6484,11.6484,11.6484,11.6484,11.6484,11.6484,11.6484,11.6484,11.6484,11.6484,11.6484,11.6484,11.6484,11.6484,11.6484,11.6484,11.6484,11.6484,11.6484,11.6484,11.6484,11.6484,11.6484,11.6484,11.6484,11.6484,11.6484,11.6484,11.6484,11.6484,11.6484,11.6484,11.6484,11.6484,11.6484,11.6484,11.6484,11.6422,11.5696,11.5696,11.5696,11.5696,11.5696,11.5696,11.5696,11.5696,11.5696,11.5696,11.5696,11.5696,11.5696,11.5723,11.5789,11.5868,11.6021,11.6157,11.6277,11.6382,11.645,11.6484,11.6484,11.6484,11.6484,11.6484,11.6484,11.6484,11.6484,11.6484,11.6484,11.6484,11.6484,11.6484,11.6484,11.6484,11.6484,11.6484,11.6369,11.6407,11.6341,11.6187,11.5533,11.5291,11.5138,11.4714,11.4868,11.5407,11.5649,11.5918,11.6341,11.638,11.638,11.6457,11.6457,11.6495,11.6484,11.6484,11.6484,11.6484,11.6484,11.6484,11.645,11.6439,11.6473,11.6484,11.6484,11.6484,11.6484,11.6484,11.6484,11.6484,11.645,11.6428,11.6393,11.6359,11.6393,11.645,11.6439,11.6439,11.6439,11.6416,11.6405,11.6335,11.6405,11.6416,11.6416,11.6416,11.6416,11.6462,11.6462,11.6484,11.6484,11.6484,11.6484,11.6484,11.6484,11.6484,11.6484,11.6484,11.6484,11.6484,11.6484,11.6484,11.6484,11.6484,11.6484,11.6484,11.6484,11.6484,11.6484,11.6484,11.6484,11.6484,11.5887,11.5696,11.5696,11.5696,11.5696,11.5696,11.5696,11.5696,11.5696,11.5696,11.5696,11.5696,11.5696,11.5696,11.5696,11.5736,11.5776,11.5919,11.6033,11.6157,11.6277,11.6393,11.6473,11.6462,11.6484,11.6484,11.6484,11.6484,11.6484,11.6484,11.6484,11.6484,11.6484,11.6484,11.6484,11.6484,11.6484,11.6484,11.6484,11.6484,11.6484,11.6484,11.6341,11.6187,11.6061,11.6022,11.5792,11.5945,11.6176,11.6341,11.638,11.6446,11.6484,11.6484,11.6484,11.6484,11.6484,11.6473,11.6462,11.645,11.6439,11.6428,11.6405,11.6359,11.637,11.6439,11.6473,11.6473,11.6473,11.6473,11.6462,11.6462,11.6439,11.6393,11.6347,11.6289,11.6229,11.63,11.6382,11.6382,11.637,11.6359,11.6324,11.6289,11.6217,11.6193,11.6193,11.6193,11.6217,11.6229,11.6347,11.6382,11.6462,11.6473,11.6462,11.6462,11.645,11.6473,11.6473,11.6484,11.6484,11.6484,11.6484,11.6484,11.6484,11.6484,11.6484,11.6484,11.6484,11.6484,11.6484,11.6484,11.6484,11.6484,11.6484,11.5696,11.5696,11.5696,11.5696,11.5696,11.5696,11.5696,11.5696,11.5696,11.5696,11.5696,11.5696,11.5696,11.5696,11.5696,11.5696,11.5723,11.5842,11.5932,11.6033,11.6145,11.6277,11.6359,11.6405,11.645,11.6473,11.6484,11.6484,11.6484,11.6484,11.6484,11.6484,11.6484,11.6484,11.6484,11.6484,11.6484,11.6484,11.6484,11.6484,11.6484,11.6484,11.6484,11.6484,11.6484,11.6484,11.6484,11.6484,11.6484,11.6484,11.6484,11.6484,11.6484,11.6484,11.6484,11.6473,11.6439,11.6405,11.6393,11.637,11.6347,11.6312,11.6277,11.6217,11.6217,11.6277,11.6277,11.6277,11.6277,11.6277,11.6277,11.6265,11.6265,11.6229,11.6205,11.6181,11.6157,11.6193,11.6229,11.6241,11.6229,11.6217,11.6205,11.6193,11.6145,11.6145,11.6108,11.6083,11.6083,11.6046,11.6169,11.6253,11.63,11.6324,11.6289,11.6324,11.6382,11.6443,11.6477,11.6473,11.6473,11.6484,11.6484,11.6484,11.6484,11.6484,11.6484,11.6484,11.6484,11.6484,11.6484,11.6484,11.6484,11.6484,11.6484,11.5696,11.5696,11.5696,11.5696,11.5696,11.5696,11.5696,11.5696,11.5696,11.5696,11.5696,11.5696,11.5696,11.5696,11.5696,11.5696,11.5723,11.5802,11.5868,11.5945,11.6021,11.6145,11.6229,11.6277,11.6347,11.6405,11.6439,11.6473,11.6484,11.6484,11.6484,11.6484,11.6484,11.6484,11.6484,11.6484,11.6484,11.6462,11.6462,11.6473,11.6484,11.6484,11.6484,11.6484,11.6484,11.6484,11.6484,11.6484,11.6484,11.6473,11.6462,11.6439,11.6416,11.6405,11.6393,11.637,11.6312,11.6277,11.6253,11.6205,11.6157,11.612,11.6095,11.6083,11.6083,11.6071,11.6071,11.6071,11.6071,11.6108,11.6108,11.6108,11.6108,11.6071,11.6071,11.6071,11.6071,11.6071,11.6083,11.6095,11.6095,11.6083,11.6071,11.6071,11.6058,11.6058,11.6058,11.6058,11.6033,11.5958,11.5983,11.6021,11.6046,11.6058,11.6108,11.6181,11.6277,11.6289,11.6312,11.6405,11.6462,11.6473,11.6484,11.6484,11.6484,11.6484,11.6484,11.6484,11.6484,11.6484,11.6484,11.6484,11.6484,11.6484,11.6484,11.5696,11.5696,11.5696,11.5696,11.5696,11.5696,11.5696,11.5696,11.5696,11.5696,11.5696,11.5696,11.5696,11.5696,11.5696,11.5696,11.5696,11.575,11.5829,11.5906,11.5919,11.6021,11.612,11.6169,11.6229,11.6289,11.6359,11.6393,11.645,11.6473,11.6484,11.6484,11.6484,11.6484,11.6484,11.6473,11.6428,11.6393,11.6416,11.6439,11.6393,11.6416,11.6484,11.6484,11.6484,11.6484,11.6484,11.6484,11.6484,11.6462,11.6405,11.6359,11.6324,11.6277,11.6241,11.6229,11.6169,11.6145,11.6108,11.6071,11.6033,11.6033,11.6008,11.5945,11.5919,11.5855,11.5855,11.5868,11.5906,11.6033,11.6058,11.6058,11.6046,11.5945,11.5894,11.5906,11.5919,11.5945,11.597,11.5983,11.5983,11.597,11.5945,11.5906,11.5829,11.5829,11.5842,11.5842,11.5855,11.5829,11.5816,11.5816,11.5829,11.5945,11.6058,11.6083,11.6145,11.6157,11.6193,11.6289,11.637,11.645,11.6462,11.6484,11.6484,11.6484,11.6484,11.6484,11.6484,11.6484,11.6484,11.6484,11.6484,11.6484,11.6484]}]]